GFSMA_850_thetae_000.txt.gz
Theta_e
328 329 330 330 330 331 332 331 331 330 330 330 330 329 329 329 328 328 327 327 325 324 323 323 322 320 316 310 309 310 309 309 322 324 323 323 319 312 311 310 310 310 311
330 331 331 331 331 331 331 331 331 330 330 329 329 329 329 329 329 328 328 328 328 327 326 325 323 323 322 321 318 312 311 311 312 320 322 323 324 324 319 312 310 310 310
330 331 331 331 331 330 330 330 329 328 329 329 329 329 329 329 329 328 329 328 328 327 326 325 326 326 326 324 323 322 320 315 312 312 313 318 323 324 324 324 319 314 311
330 330 330 330 330 329 327 326 326 326 326 326 326 326 327 327 327 327 327 327 327 326 326 326 325 325 325 325 325 326 325 324 322 318 316 315 320 323 324 323 322 323 322
329 328 327 325 322 321 322 320 322 321 320 323 323 322 323 324 325 326 327 326 326 325 325 326 326 325 325 324 324 325 326 327 327 325 323 321 317 319 320 321 320 319 319
321 318 316 315 313 311 311 311 314 315 316 318 318 318 320 320 322 324 325 326 327 327 326 326 325 326 326 326 325 325 325 325 325 326 327 326 325 323 321 319 319 321 321
312 311 311 310 309 308 308 308 309 310 311 312 312 313 313 317 319 318 325 322 319 323 325 325 326 327 326 326 325 325 326 326 326 325 325 325 325 325 325 324 324 322 320
310 308 308 309 309 308 307 306 305 306 308 308 309 309 311 313 313 313 312 314 316 316 320 324 324 325 325 325 324 322 323 324 325 325 325 325 325 324 324 324 324 325 324
309 309 309 308 306 304 302 300 300 301 304 304 306 307 309 309 309 309 310 311 314 314 313 315 318 318 317 320 320 318 317 315 315 316 317 320 324 326 326 326 324 323 324
310 309 307 304 301 298 296 295 295 296 301 302 302 303 304 305 307 308 307 307 308 311 310 311 311 312 312 313 316 318 316 313 312 318 321 317 318 322 327 327 326 326 326
307 305 302 299 297 295 294 294 294 295 298 299 300 301 302 303 303 304 304 303 303 304 304 304 306 309 310 310 314 316 316 317 318 319 320 322 322 319 321 326 328 327 328
305 303 301 297 294 294 294 294 294 294 294 294 296 299 300 300 300 299 299 300 300 300 300 302 304 306 308 310 312 313 313 313 313 314 314 318 319 321 321 321 319 319 324
303 301 296 294 294 294 294 294 293 293 294 293 295 297 297 296 296 296 297 299 300 300 301 303 303 304 305 305 305 307 309 307 305 307 311 312 313 313 313 313 315 314 317
297 294 293 293 293 293 293 293 292 292 293 293 292 294 296 294 295 296 297 298 299 299 297 298 299 300 299 299 299 301 302 300 300 302 302 303 307 310 310 311 312 312 311
294 293 292 292 292 292 292 292 292 292 291 292 292 293 294 294 294 295 294 293 294 296 296 296 295 294 293 294 296 299 298 296 298 298 300 295 296 299 303 306 307 309 312
292 292 292 292 292 291 291 291 291 290 290 290 291 292 293 292 293 292 291 291 292 293 293 293 293 293 293 294 296 295 295 295 296 298 297 296 304 303 301 303 305 306 309
292 291 291 291 291 291 291 291 290 289 289 290 290 291 291 291 291 290 290 290 290 291 292 291 292 291 291 292 292 293 293 294 294 294 295 300 299 294 294 295 299 303 307
291 290 290 290 291 291 291 290 289 288 289 289 289 290 290 289 289 289 289 289 289 290 291 291 291 290 291 291 292 292 292 292 292 293 293 295 297 295 297 296 301 301 303
290 289 290 291 291 291 290 289 287 288 288 289 289 289 289 288 288 288 288 288 289 289 290 289 290 290 290 290 291 291 291 291 292 293 294 294 296 298 298 301 301 302 303
289 290 291 291 290 290 289 287 287 287 288 288 288 288 288 288 287 287 287 288 288 289 288 289 289 289 289 289 289 290 290 290 291 292 293 295 296 297 297 298 299 300 303
290 290 290 290 289 289 287 287 286 287 288 288 288 287 287 287 287 287 288 288 288 288 288 289 289 288 288 288 288 289 289 289 289 290 293 294 294 295 295 293 294 295 299
290 290 290 289 288 287 287 285 285 287 287 287 287 287 287 286 287 287 287 288 288 288 288 289 288 287 287 287 287 287 288 289 290 291 292 292 291 292 293 294 296 298 299
290 289 289 288 287 286 285 284 285 286 287 287 287 286 286 286 287 287 287 287 287 287 287 287 286 286 286 286 286 287 288 288 289 290 290 290 291 292 292 293 294 295 299
289 288 287 286 285 284 284 284 285 286 286 286 286 286 286 287 287 286 286 287 287 286 285 285 284 285 286 286 286 286 287 287 288 289 290 291 290 290 291 292 294 297 297
288 286 285 284 284 284 283 284 285 285 286 286 286 286 287 286 286 286 287 286 286 284 283 284 285 285 284 285 286 286 286 288 288 289 289 289 289 290 291 290 292 293 296
286 285 284 284 283 283 283 284 285 285 285 285 286 286 286 286 286 287 285 285 284 283 283 283 283 283 283 284 285 285 285 285 286 287 287 289 287 288 289 291 294 293 295

GFSMA_850_thetae_003.txt.gz
Theta_e
334 334 334 334 334 334 333 334 333 333 332 332 332 331 331 331 331 331 330 330 330 329 328 328 328 328 326 323 322 320 315 309 309 309 309 314 318 317 315 312 311 310 310
332 332 333 335 333 334 333 331 331 331 331 331 330 331 330 330 330 330 330 330 329 329 328 326 326 326 327 327 326 324 323 322 318 311 310 311 322 322 321 321 319 314 311
332 333 334 333 331 331 330 329 328 327 327 326 326 327 327 328 328 328 328 328 328 328 328 328 327 325 326 325 327 329 328 327 325 323 320 312 315 323 324 324 323 323 321
330 331 332 328 325 325 323 322 320 320 320 321 322 323 323 323 324 324 325 326 327 327 326 326 326 326 326 326 325 327 328 328 328 328 327 325 321 315 319 322 323 325 326
324 322 317 314 315 315 314 313 313 314 314 315 316 317 315 318 320 319 321 325 326 326 327 327 326 324 323 324 326 326 326 326 327 327 328 328 327 326 322 320 321 322 323
311 310 310 309 310 311 312 311 311 312 311 313 313 312 314 312 315 318 321 321 323 324 322 318 324 327 324 327 327 328 327 327 326 326 326 326 327 327 327 326 323 320 321
309 309 311 310 310 309 309 307 307 306 306 308 307 309 307 312 312 315 315 314 313 314 316 316 319 324 323 322 324 324 324 326 326 327 327 327 327 327 327 327 327 326 324
311 311 310 307 305 304 303 301 301 300 303 303 305 305 307 307 308 306 307 309 310 313 316 314 315 316 317 318 319 319 319 320 320 318 320 320 320 321 325 326 327 327 326
310 307 306 303 302 300 298 296 298 299 301 302 302 303 304 305 305 306 305 308 309 306 309 312 310 309 309 310 310 310 313 315 317 319 321 321 321 318 318 320 323 326 329
308 306 304 302 300 296 295 295 296 296 299 300 299 300 301 302 304 303 303 303 303 303 302 304 304 303 303 307 310 311 312 313 315 316 317 318 319 320 322 325 322 321 326
307 305 303 301 297 295 294 294 294 294 297 299 298 298 299 301 301 300 300 300 299 299 301 300 303 301 303 307 309 312 312 310 311 312 312 313 316 318 319 320 320 323 321
305 305 303 298 295 294 294 293 293 293 295 297 296 296 296 298 299 298 298 298 299 299 301 299 300 302 303 305 306 305 304 305 304 306 306 308 310 313 312 313 315 316 316
306 304 299 295 293 293 293 293 292 293 294 295 294 294 294 295 297 296 297 297 298 298 297 296 296 299 298 299 299 299 298 301 299 301 302 303 306 305 306 306 306 311 313
303 299 295 293 292 292 292 292 292 293 293 293 293 293 293 294 294 295 295 296 296 295 294 294 295 294 295 295 295 295 295 297 298 299 299 299 299 302 302 301 303 309 307
299 296 293 292 292 291 291 292 292 292 292 291 291 292 292 293 293 294 294 294 293 294 293 293 293 293 295 293 295 293 292 293 294 295 295 297 297 297 298 299 305 304 303
297 293 292 291 291 291 292 291 291 291 291 291 291 291 291 291 292 292 292 292 292 291 292 292 292 292 292 293 292 292 293 292 292 294 294 294 295 294 298 298 299 300 297
293 292 291 291 291 292 291 290 290 290 290 290 290 290 290 290 291 291 290 290 290 291 291 290 291 291 291 291 291 291 291 291 292 292 292 293 293 294 294 296 295 295 297
291 291 290 291 291 290 290 290 289 289 289 289 289 290 290 290 290 290 289 289 289 289 289 290 290 289 290 290 290 290 289 290 291 291 292 292 293 294 295 295 297 299 297
290 290 290 290 290 290 290 289 288 288 288 288 288 289 289 289 289 288 288 288 287 288 289 289 288 289 289 289 290 289 289 289 290 290 291 291 292 293 294 296 296 298 300
289 290 290 290 290 289 288 288 287 287 287 287 288 288 288 288 288 287 287 287 288 288 288 288 288 289 289 289 289 289 288 288 287 288 288 290 291 292 294 295 294 293 296
289 290 290 289 289 288 288 287 286 286 286 287 287 288 288 288 287 287 287 288 288 288 288 288 288 288 288 287 287 286 286 287 287 288 289 289 290 290 291 292 292 293 295
289 289 289 288 288 287 287 287 286 286 286 286 287 287 287 287 287 287 288 288 288 287 288 288 289 287 286 286 285 286 286 287 287 287 288 288 289 290 291 292 292 295 294
289 289 288 288 287 286 286 286 286 286 286 286 287 287 287 287 287 287 287 287 287 287 287 287 286 285 284 285 285 286 286 285 285 286 287 288 290 290 291 290 291 292 293
288 288 288 287 286 285 285 285 285 285 286 286 286 286 286 286 286 287 287 287 286 285 285 285 285 284 284 285 285 284 285 285 285 286 287 288 287 290 288 289 288 290 291
288 288 287 286 285 285 285 285 285 285 285 285 286 286 286 287 286 288 287 286 284 283 284 284 284 284 284 284 284 284 284 285 285 285 285 285 286 287 286 288 288 289 292
287 286 285 285 284 284 285 285 285 285 285 285 285 285 286 286 287 286 285 284 283 283 284 283 283 282 282 282 283 283 283 284 284 284 284 284 285 286 287 287 289 288 287

GFSMA_850_thetae_006.txt.gz
Theta_e
334 333 333 333 333 332 332 331 330 329 329 329 329 328 327 328 329 329 330 329 330 330 329 328 329 329 328 329 332 331 331 328 325 322 317 310 311 322 325 322 317 313 311
332 333 333 332 331 331 330 328 327 326 325 325 324 324 325 325 325 325 326 326 325 327 328 327 326 325 326 327 328 328 329 330 330 328 327 325 322 315 321 325 325 322 317
332 333 331 330 327 326 324 324 317 316 315 316 317 318 320 321 320 318 320 318 321 324 325 325 326 326 325 324 323 322 323 327 328 329 329 328 328 326 324 321 322 325 325
330 330 326 319 317 315 313 312 312 311 311 310 312 313 313 314 313 313 314 317 319 322 324 325 325 320 323 324 325 324 324 324 325 327 328 328 328 328 327 326 323 321 323
322 315 310 310 311 311 311 310 309 308 307 306 308 307 307 309 310 313 314 317 318 319 320 317 316 316 318 322 326 326 326 324 325 326 327 326 327 328 328 328 328 327 323
309 310 311 311 310 308 308 306 305 304 302 303 301 303 302 309 307 309 312 311 311 308 309 309 312 315 317 317 317 317 320 321 321 320 321 323 326 326 326 328 329 328 328
311 311 310 308 307 305 304 301 300 299 299 298 300 299 301 302 304 305 303 303 303 307 310 313 310 308 308 308 309 309 312 315 309 307 315 318 318 320 321 321 324 328 325
310 309 308 307 305 304 302 299 298 296 297 297 298 298 301 299 301 299 304 301 305 306 304 301 302 304 305 304 303 302 302 303 308 314 316 318 318 319 320 322 321 321 322
309 308 307 305 303 301 299 296 296 295 296 297 296 297 299 300 299 300 297 301 297 298 297 296 298 301 299 301 302 299 301 305 307 310 313 315 316 316 317 318 319 320 322
309 308 307 304 302 299 297 296 296 295 294 294 295 295 294 296 298 298 298 297 296 296 296 298 297 301 301 297 300 303 305 305 306 305 307 308 312 312 312 314 315 316 315
310 308 307 305 303 300 297 295 295 294 294 294 295 294 293 294 293 295 296 296 295 295 296 296 299 295 294 299 299 297 299 300 300 301 302 305 308 308 309 310 309 309 311
308 308 306 304 301 298 295 294 294 293 293 293 293 293 293 294 293 294 295 295 295 295 295 295 294 293 295 295 295 294 294 295 297 298 299 301 303 304 304 303 303 305 307
308 307 305 302 299 296 294 293 293 292 293 292 292 292 292 292 292 293 294 294 294 294 293 293 292 293 292 292 293 293 293 294 294 294 295 296 297 298 298 299 300 301 302
306 305 302 298 295 293 292 292 292 292 292 291 291 291 291 291 291 292 292 293 293 292 292 292 292 291 290 292 292 292 292 293 293 294 294 294 294 295 296 295 297 298 298
304 301 297 295 293 292 291 292 292 292 291 291 290 290 290 290 290 291 291 291 292 292 291 291 290 290 291 290 290 291 290 291 291 291 292 293 293 294 294 294 295 295 296
300 296 294 293 292 291 291 292 292 291 290 290 289 289 289 289 290 290 290 290 290 290 290 289 290 289 288 289 289 289 289 290 290 291 291 291 292 293 293 294 295 295 297
297 294 292 291 291 291 292 292 291 290 289 289 288 288 288 288 289 289 289 289 289 289 289 288 288 287 288 288 287 288 289 289 289 290 290 290 290 291 292 292 293 294 295
293 292 291 290 291 291 292 291 290 289 288 288 287 287 287 288 288 288 289 288 288 288 287 287 288 288 287 287 288 288 288 289 288 288 288 289 288 289 290 291 291 292 294
292 291 290 290 291 291 290 289 288 288 287 287 286 286 286 287 287 288 288 288 287 287 287 288 287 287 288 288 287 288 288 287 286 286 286 287 288 288 290 291 291 292 294
290 290 290 290 291 290 289 288 288 287 287 287 286 285 286 287 288 288 288 288 288 288 288 288 288 288 287 287 287 286 285 285 285 285 285 287 287 287 288 289 290 290 292
290 290 290 291 290 289 288 288 288 287 287 286 285 286 287 287 287 288 288 288 288 287 288 288 287 287 287 287 285 285 284 284 284 285 286 284 285 285 286 287 289 290 292
289 290 291 289 288 287 287 287 287 287 286 285 285 286 286 286 286 287 287 287 287 288 287 287 286 285 284 284 285 284 284 284 285 285 284 284 285 286 287 287 289 291 292
290 290 290 288 287 286 286 287 287 286 286 285 285 285 286 286 286 285 286 287 287 287 286 285 284 283 284 284 284 284 285 284 284 283 284 284 285 286 285 285 287 288 289
291 289 288 287 286 285 285 286 286 286 286 285 285 285 285 285 285 286 287 287 286 285 284 283 283 284 284 284 284 283 283 283 283 284 284 284 285 284 284 284 285 286 287
290 288 287 286 285 285 284 285 286 286 286 285 285 285 285 285 286 287 287 286 285 284 283 283 284 284 283 282 283 283 283 283 283 283 282 283 283 283 284 284 285 286 288
288 287 287 285 284 284 284 285 286 286 285 285 285 285 285 285 285 286 286 285 284 283 283 284 282 281 281 281 282 282 282 282 282 282 282 282 283 283 284 285 286 285 286

GFSMA_850_thetae_009.txt.gz
Theta_e
332 332 332 331 330 330 329 329 328 327 325 322 320 319 321 322 321 321 321 321 322 322 323 324 325 326 326 327 327 326 325 324 326 327 329 330 328 325 323 322 323 324 324
331 332 331 330 329 328 328 326 324 319 313 313 313 313 314 318 318 318 314 317 318 317 320 321 324 327 329 328 326 325 322 323 323 323 324 327 329 329 328 326 323 322 323
331 331 329 329 326 324 322 316 312 312 312 311 310 310 310 310 310 310 311 313 316 317 318 316 317 318 318 321 325 326 325 328 326 324 325 326 327 328 329 328 328 327 324
330 327 327 320 313 311 311 312 311 309 307 306 305 305 305 305 306 310 311 313 314 313 314 311 311 312 314 316 318 319 321 321 322 322 322 322 324 326 327 327 329 329 328
327 320 310 311 311 310 309 308 306 304 303 303 303 303 303 304 309 305 305 308 309 306 305 306 309 310 311 310 311 312 309 309 312 314 313 312 314 313 316 322 325 327 330
310 311 311 310 308 307 306 305 304 303 301 300 301 302 302 302 301 303 301 302 301 302 304 306 308 308 310 309 305 306 306 306 306 307 309 310 312 314 316 319 319 317 315
311 310 309 307 306 305 304 302 302 301 300 299 300 301 300 299 302 298 298 297 298 299 299 302 301 298 297 297 298 300 300 300 301 308 310 312 314 315 316 317 318 318 319
309 308 309 308 307 304 303 301 299 298 298 296 296 297 297 297 299 296 297 296 298 297 295 295 294 295 294 297 298 298 297 300 301 306 308 309 309 310 312 315 316 317 318
309 310 309 309 307 304 301 299 297 296 296 297 295 295 296 295 294 297 294 297 294 294 293 293 293 293 297 297 295 293 297 299 300 302 303 305 306 307 309 311 311 311 314
311 310 309 308 305 302 300 298 296 295 295 295 294 293 294 294 293 295 294 292 293 293 292 292 292 295 295 293 292 294 293 295 297 299 300 302 303 304 306 307 308 308 309
310 309 308 306 304 301 299 297 296 295 294 293 293 293 293 292 291 293 293 292 292 293 291 292 293 291 292 291 293 293 291 295 296 297 298 299 299 300 302 303 304 305 305
308 307 306 304 301 299 297 296 295 294 293 293 293 292 291 291 291 291 291 291 292 292 292 292 291 291 291 292 291 290 293 293 293 294 295 296 297 297 298 299 298 300 301
308 306 305 302 299 297 295 295 294 292 292 293 292 291 290 290 290 290 290 291 291 291 291 290 291 291 291 289 290 291 291 290 292 293 293 294 295 295 295 296 296 297 297
307 305 303 300 297 295 294 292 292 292 292 292 291 290 290 289 289 288 289 290 290 290 290 290 290 289 289 289 289 288 288 290 289 290 291 292 292 294 293 293 294 294 295
305 303 301 297 295 293 291 291 292 292 292 291 290 289 289 288 288 287 288 289 289 290 289 289 289 288 288 287 287 288 288 287 288 289 290 291 291 292 292 293 292 293 294
304 301 298 295 292 291 291 291 292 291 290 290 289 288 288 287 287 286 287 288 289 288 289 288 288 288 287 287 287 287 287 287 287 288 289 290 291 290 291 290 292 291 292
301 298 294 292 291 291 291 291 291 290 289 289 288 287 287 287 286 286 286 287 288 288 288 287 287 287 287 287 286 287 287 287 287 288 289 288 288 289 288 289 290 291 291
297 294 291 290 290 291 291 291 290 289 288 288 287 287 287 286 285 286 287 287 287 287 287 287 287 287 287 287 287 287 287 286 287 286 286 286 286 287 287 288 289 290 291
294 291 290 290 291 291 290 289 288 288 288 287 287 287 286 285 286 287 287 287 287 288 288 287 288 287 287 287 287 286 286 285 285 285 285 284 285 286 287 288 287 288 289
291 290 290 291 291 290 289 288 287 287 287 287 287 286 285 285 286 287 287 287 288 287 287 287 287 288 287 286 285 284 283 284 284 284 284 284 285 286 285 285 286 287 288
290 290 291 291 290 289 288 287 287 287 287 287 286 286 285 285 286 286 287 287 286 286 287 288 288 286 285 284 283 283 284 284 284 284 284 284 283 283 283 284 285 286 287
290 291 291 290 289 288 286 286 287 287 286 286 286 285 285 285 285 285 285 286 287 287 288 287 287 285 284 283 283 283 284 284 283 283 283 283 283 283 283 283 285 286 286
291 291 290 289 288 287 285 286 286 286 286 286 286 285 285 285 285 285 285 286 286 286 286 286 284 284 283 283 285 284 282 282 283 283 282 282 282 282 282 283 284 285 286
291 290 289 288 286 285 284 285 286 286 286 286 285 285 285 285 285 285 286 286 286 285 284 284 283 283 284 284 282 282 282 282 282 282 282 282 282 282 282 282 283 284 285
291 290 288 287 285 284 283 284 285 285 285 285 285 285 285 284 284 285 285 286 284 283 282 283 283 283 282 282 282 282 282 282 282 281 281 281 281 282 282 283 284 285 285
289 288 287 285 284 284 283 284 285 284 284 284 284 284 284 284 284 285 286 284 282 282 283 283 281 281 280 280 281 281 280 280 281 281 282 281 281 282 283 283 284 284 285

GFSMA_850_thetae_012.txt.gz
Theta_e
331 331 331 331 330 330 327 327 328 327 324 317 314 313 313 314 317 318 318 317 313 316 316 319 321 322 324 327 329 327 326 325 326 323 325 325 324 325 327 328 328 325 322
331 331 330 329 328 327 326 326 322 315 312 312 312 311 311 311 313 313 313 311 312 313 315 316 315 316 320 323 322 323 324 325 324 325 326 326 326 325 326 327 329 329 329
330 330 329 327 326 326 321 315 311 311 311 309 307 306 305 305 305 306 307 312 313 313 312 312 312 312 313 315 316 317 318 321 321 321 321 320 321 320 318 321 325 326 328
329 326 326 326 316 311 311 311 309 307 306 305 304 304 303 303 304 308 306 306 307 308 308 307 307 307 309 309 309 308 310 311 312 311 311 312 313 314 314 315 316 316 319
328 327 316 311 310 309 308 306 305 304 303 303 303 302 302 302 304 302 303 300 300 299 302 304 304 305 304 304 304 305 304 304 305 307 309 311 312 310 313 317 318 318 319
312 311 310 308 307 306 305 304 303 301 300 300 301 301 301 302 299 302 297 297 297 298 298 297 296 297 297 297 297 298 298 297 298 306 306 308 310 310 311 313 315 317 317
310 309 308 308 308 307 305 303 301 301 299 299 299 300 298 297 298 300 297 296 296 296 295 295 295 295 295 296 296 295 295 295 295 300 303 305 307 307 308 309 310 312 313
309 309 309 310 308 306 303 301 300 299 297 296 295 296 295 296 298 295 296 295 296 294 295 294 294 294 293 293 293 293 293 293 296 297 301 302 303 304 306 306 309 311 311
310 310 310 309 307 304 302 300 298 297 296 295 294 294 294 294 293 294 293 294 293 293 292 292 292 292 292 291 291 291 292 293 294 295 299 301 301 302 304 304 306 306 308
310 310 309 308 306 302 299 297 295 295 295 294 293 293 293 292 292 292 292 292 292 291 291 291 291 290 290 290 290 291 291 292 293 297 298 298 299 300 301 302 302 303 304
310 309 308 307 303 300 297 295 294 294 293 293 292 293 292 291 291 290 290 291 290 290 290 290 290 290 290 290 291 291 290 292 294 294 295 295 297 298 298 299 300 301 302
309 308 306 304 301 298 296 295 293 292 292 292 292 292 291 290 290 289 290 289 289 289 289 289 289 289 290 290 290 288 290 291 291 291 293 295 295 295 296 297 298 298 299
307 306 305 302 299 296 294 293 292 292 292 292 292 291 290 290 289 289 288 288 288 288 288 289 289 290 289 289 288 288 288 289 289 290 291 292 293 293 294 295 295 297 297
306 305 303 299 297 295 293 292 291 292 292 292 291 290 290 289 288 288 287 287 287 287 287 288 288 288 288 288 288 287 287 287 288 289 290 290 291 291 291 292 293 294 295
305 304 302 298 296 293 291 291 291 292 291 291 290 289 289 288 288 287 287 286 286 287 287 287 288 288 287 287 287 287 287 287 288 289 289 289 289 290 291 292 293 293 293
304 303 299 296 293 291 291 291 292 291 290 290 289 288 288 287 287 286 285 285 286 286 287 287 287 287 287 287 287 287 287 287 287 287 288 288 288 289 290 290 289 290 291
303 300 296 293 291 291 292 291 290 289 289 288 288 287 287 287 286 285 285 286 287 287 287 287 287 287 287 287 286 287 287 287 286 286 286 287 287 288 288 288 288 288 289
300 296 293 291 291 292 291 290 289 289 288 287 287 287 287 286 285 285 285 286 287 287 287 287 287 287 286 286 287 287 286 285 284 284 284 285 286 286 286 287 287 288 289
296 292 291 291 292 291 290 289 288 287 287 287 287 287 286 286 285 285 285 286 286 287 287 286 286 286 286 287 287 285 284 283 282 283 284 285 285 285 286 287 288 288 287
293 291 291 292 291 290 289 288 287 287 287 287 286 286 286 285 285 285 285 286 286 285 285 286 286 287 287 286 284 284 283 282 283 283 284 283 284 284 285 285 285 285 286
290 290 291 291 290 289 288 287 287 287 286 286 286 286 286 285 285 286 286 286 286 286 287 287 286 286 286 284 283 283 283 283 284 282 282 282 282 282 282 283 283 284 284
290 291 291 290 289 288 287 286 286 286 286 286 286 285 285 285 284 285 285 285 286 286 286 286 287 284 283 283 283 283 284 283 282 282 282 282 282 282 282 282 282 284 285
290 291 291 289 288 287 286 285 285 286 286 285 285 284 284 284 284 284 284 285 285 285 286 284 283 283 283 283 284 282 282 282 282 282 281 281 281 282 282 282 283 283 284
291 290 289 288 287 286 285 284 284 285 284 284 283 283 284 284 283 284 285 285 286 283 283 282 282 283 283 282 282 282 282 282 281 281 281 281 281 281 282 282 283 283 284
290 289 288 286 285 285 284 283 285 284 284 283 283 284 284 283 283 285 286 284 283 282 281 282 282 282 281 281 281 282 281 280 280 280 281 280 281 281 281 283 283 283 284
289 288 287 285 285 284 283 283 284 284 284 284 285 284 283 283 285 285 284 283 282 281 282 282 281 281 280 281 280 280 280 280 280 280 282 281 281 281 282 283 283 282 283

GFSMA_850_thetae_015.txt.gz
Theta_e
330 328 329 329 328 327 327 326 325 326 325 318 313 312 312 311 311 312 314 315 314 313 312 314 316 318 320 323 325 325 325 325 325 325 326 324 324 326 326 325 325 327 328
330 329 329 327 327 326 325 326 325 317 312 311 311 309 308 306 306 306 307 308 309 310 311 311 312 312 313 315 318 319 318 319 321 321 320 321 321 322 323 324 323 323 325
329 329 328 328 326 326 325 315 311 311 309 307 306 305 304 304 303 304 305 308 309 310 310 310 309 309 309 309 310 310 312 312 313 313 315 315 317 316 315 315 316 316 316
328 327 327 326 324 312 310 309 308 306 305 304 304 303 303 302 303 305 306 304 303 302 303 304 305 304 304 305 305 306 306 307 307 307 307 308 309 310 311 310 310 313 316
326 325 324 314 310 308 307 306 305 304 303 303 303 302 302 302 302 302 300 298 298 297 298 300 298 297 297 297 297 297 297 298 299 300 300 303 306 307 309 309 310 311 310
326 317 310 309 308 308 307 306 304 302 301 301 301 301 300 300 301 298 300 297 297 296 297 296 296 295 295 296 296 296 296 296 296 296 299 303 303 305 307 308 309 310 311
310 309 309 309 310 309 307 304 302 301 299 299 300 300 299 298 297 298 300 297 296 296 296 295 295 295 295 295 295 294 294 295 295 297 298 300 302 304 305 306 307 308 309
309 309 310 310 310 308 304 302 300 298 297 296 296 296 295 296 297 298 296 296 295 294 295 294 294 294 294 294 294 294 294 293 293 296 298 299 300 302 303 304 305 306 307
309 310 310 310 309 306 302 300 298 296 295 294 293 293 293 293 292 294 294 294 293 294 293 293 293 293 292 292 292 292 292 292 292 294 298 300 300 301 301 302 303 304 305
310 310 310 309 307 304 301 299 297 295 294 293 292 292 292 291 291 291 292 293 292 292 292 292 291 291 291 290 290 290 290 291 292 295 297 298 298 298 300 301 301 302 302
310 310 308 307 306 303 300 297 295 294 293 292 292 292 292 291 290 289 289 290 291 291 290 290 289 289 289 289 289 289 289 291 292 293 294 295 297 298 298 299 299 300 301
309 308 307 306 305 301 298 296 294 292 292 292 292 291 290 289 289 288 288 288 287 288 288 289 289 288 288 288 288 288 288 290 290 291 292 293 295 295 296 296 297 297 298
308 307 306 305 302 299 296 294 292 291 291 292 291 291 290 289 288 288 287 287 287 287 286 286 287 287 287 287 287 287 287 289 289 289 291 292 293 293 293 293 294 295 296
307 306 305 303 299 296 293 292 291 291 292 291 290 290 289 288 288 287 287 286 285 286 286 286 286 287 287 287 287 288 287 287 287 288 290 291 291 291 291 291 292 293 294
306 305 303 300 296 293 292 291 292 292 291 290 290 289 288 288 287 287 286 285 285 285 286 286 286 286 287 287 287 287 287 286 287 288 289 289 290 289 289 290 291 291 292
304 303 301 297 294 292 291 292 292 291 290 290 289 288 288 287 287 286 286 285 285 285 286 286 286 286 286 286 286 286 286 287 287 288 288 288 288 287 288 288 289 290 290
303 301 298 295 292 291 292 292 291 290 290 289 288 288 287 287 286 286 285 285 285 285 286 286 286 285 285 285 285 286 286 286 286 286 286 286 286 286 287 288 289 289 289
301 299 295 292 291 292 292 291 290 289 289 288 287 287 286 286 286 285 285 285 285 285 286 286 285 285 285 286 286 286 286 285 284 284 284 284 285 286 286 287 287 287 287
299 295 292 291 291 292 291 290 289 288 288 287 286 286 286 286 285 285 285 285 285 286 286 285 285 286 286 286 285 286 285 283 283 283 283 284 284 285 285 285 286 287 287
296 292 291 291 291 291 290 289 288 287 287 286 286 286 285 285 285 285 285 285 286 285 285 285 286 286 285 285 284 283 283 282 283 283 283 283 283 283 283 284 285 285 285
293 291 290 291 291 290 289 288 287 286 286 286 285 285 284 284 284 285 285 285 284 285 286 286 285 285 283 283 282 282 282 283 283 282 281 282 282 282 282 282 282 283 283
290 290 291 291 291 289 288 287 286 286 285 284 284 284 283 283 284 284 284 284 285 286 286 287 283 283 282 282 282 283 283 282 282 282 282 281 281 281 281 281 282 283 284
289 290 291 290 290 288 287 285 285 286 284 284 284 283 283 284 283 283 284 284 286 284 284 283 282 282 282 282 282 282 282 281 281 281 281 281 281 281 282 282 282 283 283
289 291 290 289 288 286 285 284 284 284 284 284 284 284 284 283 283 284 285 285 283 282 282 281 282 282 283 282 282 282 281 281 281 281 280 280 281 281 282 282 283 283 283
290 290 289 287 286 285 284 283 284 284 284 284 284 285 284 283 283 285 285 283 282 282 281 282 282 282 281 281 281 282 281 280 280 280 280 280 281 281 281 282 283 283 283
290 289 287 286 285 284 283 283 284 284 284 284 285 283 283 283 284 284 283 282 282 281 283 282 281 281 282 282 281 281 281 280 280 280 280 280 280 281 282 282 282 283 283

GFSMA_850_thetae_018.txt.gz
Theta_e
330 328 327 328 327 325 325 325 325 325 324 317 311 311 310 309 308 307 308 308 309 310 310 311 312 313 315 319 321 322 324 323 324 324 324 324 325 324 323 324 325 325 324
328 327 328 327 325 325 324 325 324 314 311 310 309 307 306 305 304 303 304 305 307 308 309 309 309 310 310 311 313 315 316 317 317 317 318 318 318 319 319 319 320 322 323
328 328 328 326 325 325 324 313 310 309 307 306 304 304 303 303 303 303 303 304 305 305 305 306 307 307 307 308 308 308 308 310 311 311 311 310 311 311 312 313 314 314 314
328 327 326 325 325 315 309 308 307 307 305 304 303 303 302 302 302 302 303 301 300 300 299 299 300 301 300 300 300 301 302 303 304 305 305 305 304 305 306 306 308 310 311
327 326 324 322 310 308 308 308 307 305 304 303 302 302 301 301 301 302 302 299 297 297 296 297 297 296 296 296 296 296 296 297 297 297 297 299 299 299 300 303 305 306 308
325 323 319 309 308 309 309 307 304 303 302 301 301 301 301 300 299 301 300 298 298 297 296 296 296 295 295 295 295 295 295 296 296 296 297 299 300 301 302 307 307 307 309
325 311 309 309 310 309 308 305 303 302 301 301 301 301 300 298 298 297 297 300 297 296 296 295 295 295 295 294 294 294 294 294 294 295 297 299 298 300 304 304 306 306 307
310 309 309 310 310 309 307 305 302 301 299 298 297 296 296 297 297 297 297 296 296 295 295 294 294 294 294 293 293 293 293 293 293 294 298 299 301 303 303 303 304 304 305
309 309 310 310 310 309 307 305 301 299 298 296 294 293 293 292 292 294 295 295 294 293 293 293 293 293 292 292 292 292 291 291 291 295 297 298 300 301 301 301 302 303 304
309 310 310 310 309 308 307 303 300 298 296 294 293 292 292 291 290 291 291 293 292 291 292 292 292 292 292 291 291 290 290 290 291 294 295 297 298 299 300 301 302 303 302
309 310 310 309 308 307 305 302 298 296 293 292 292 292 292 291 290 289 288 290 291 291 291 290 289 290 290 289 289 288 288 290 292 293 294 295 296 297 298 299 299 300 300
310 309 309 308 307 305 303 300 296 293 292 292 292 291 290 289 289 288 287 288 287 288 289 290 290 289 289 288 288 287 287 289 290 291 293 293 294 295 296 297 297 298 298
309 308 307 306 305 303 300 297 294 292 292 292 291 291 290 289 288 288 287 287 287 287 287 286 287 287 287 287 286 286 287 289 289 290 290 292 293 293 294 294 295 295 295
308 307 306 305 304 301 297 294 292 292 292 292 291 290 289 289 288 288 287 286 286 286 285 285 286 286 286 285 286 287 286 286 287 288 289 290 291 291 292 292 292 292 292
306 305 305 304 301 298 295 293 292 292 292 291 290 289 289 288 288 287 287 286 285 284 285 285 285 285 285 285 285 286 286 286 287 288 288 289 290 290 291 291 290 290 290
305 305 304 302 299 295 292 292 292 292 291 291 290 289 288 287 287 286 286 285 285 285 285 285 285 285 285 284 285 285 285 286 286 286 287 288 288 288 289 289 288 288 289
305 303 302 300 296 293 291 292 292 291 291 290 290 288 288 287 286 286 285 285 285 285 285 285 285 285 284 284 285 285 285 285 285 286 286 287 287 286 286 287 287 288 289
303 302 301 297 293 291 291 292 292 291 290 289 288 287 287 286 286 285 285 285 285 285 285 285 284 284 284 285 285 285 285 284 283 283 284 284 285 285 286 286 287 287 287
302 301 298 293 291 291 292 292 291 290 289 288 287 286 285 285 284 284 284 285 285 285 285 284 284 285 285 285 285 283 283 282 282 282 283 283 284 284 285 285 285 286 287
301 298 294 291 291 292 292 291 290 289 288 287 286 285 284 284 283 284 284 285 285 284 284 284 285 285 285 284 283 282 281 282 282 282 282 282 283 283 283 283 284 284 284
297 294 291 290 291 292 291 290 288 287 286 285 284 284 284 283 284 285 285 284 284 284 285 286 284 284 283 282 281 282 282 282 282 282 282 282 282 281 281 282 282 282 283
294 291 290 291 291 291 289 288 286 285 285 285 284 284 283 284 284 284 283 284 285 286 284 284 283 282 281 281 282 282 282 282 282 282 282 281 281 281 281 281 282 282 283
291 289 290 291 290 289 288 286 285 284 284 284 284 284 284 284 283 283 283 284 286 284 283 282 281 281 282 282 283 282 281 281 281 281 281 281 281 281 281 282 282 282 283
289 289 290 290 290 288 286 285 284 284 284 284 284 284 284 283 283 284 284 285 283 283 282 281 282 282 283 282 282 282 282 281 281 281 280 280 281 281 281 282 283 283 283
289 289 290 290 288 286 284 284 283 284 284 284 284 284 283 283 283 284 285 284 282 282 281 282 282 282 281 281 281 282 281 280 280 281 281 280 281 280 281 282 283 282 283
289 290 290 287 285 284 284 283 283 284 284 284 284 283 283 283 284 284 283 282 282 281 283 282 281 282 282 283 283 282 281 280 280 280 283 280 281 281 281 282 283 283 284

GFSMA_850_thetae_021.txt.gz
Theta_e
329 327 327 327 326 326 324 323 324 324 319 312 310 310 308 307 306 305 304 305 305 306 307 308 309 310 312 314 317 319 320 322 323 323 322 323 323 323 324 323 322 323 324
328 327 326 326 325 325 324 323 323 312 310 308 306 305 304 304 303 303 303 303 304 306 307 308 309 309 309 309 309 310 311 312 314 315 316 316 316 316 316 317 318 318 319
327 328 327 326 326 324 324 315 309 308 306 305 304 303 303 303 302 302 302 303 304 303 302 301 301 302 303 303 303 303 304 306 308 309 310 310 310 310 311 311 311 312 313
328 328 326 325 325 323 310 308 308 307 306 304 303 303 302 302 301 301 301 301 298 297 297 296 297 297 297 296 296 296 296 296 297 297 298 299 299 300 301 302 303 304 306
329 327 325 324 321 309 309 309 308 305 303 303 302 302 302 302 301 300 301 301 300 298 297 296 296 296 296 296 296 295 295 295 296 296 296 296 299 299 299 300 300 303 307
327 325 324 321 309 309 309 308 305 303 302 302 302 302 302 301 299 299 301 297 297 298 297 296 296 295 296 295 295 295 295 294 295 294 295 297 301 303 304 304 306 307 308
325 324 320 309 309 310 309 307 305 303 302 302 301 301 300 299 298 297 297 296 297 296 295 295 295 295 295 295 294 294 294 294 294 294 294 297 302 302 302 305 306 306 307
324 319 309 309 310 310 309 307 306 304 301 300 298 297 297 297 297 297 297 296 296 295 295 294 294 294 294 294 294 294 294 294 294 293 295 299 300 301 302 303 304 305 305
319 310 309 310 310 309 308 308 306 303 300 298 296 295 294 294 293 295 295 295 295 294 294 294 294 294 294 294 293 293 293 292 292 292 297 298 299 300 301 302 302 303 303
310 309 310 310 310 309 308 307 305 302 299 297 295 294 293 292 291 291 292 292 292 292 293 294 293 293 292 292 291 291 291 290 290 294 296 297 298 299 300 301 301 302 303
309 309 310 310 308 308 307 306 303 300 297 295 294 293 293 292 291 289 290 291 291 292 292 291 292 291 291 290 289 288 288 288 291 293 294 295 296 298 298 299 300 300 301
308 309 309 308 307 307 306 304 301 298 295 294 293 292 291 290 290 289 288 289 288 289 289 290 291 290 289 288 287 287 286 287 290 291 292 293 294 295 296 296 297 298 299
308 309 308 307 307 306 305 302 299 296 294 293 292 292 291 290 289 289 288 288 288 287 287 287 287 286 287 286 286 286 286 287 287 289 290 291 292 293 293 293 294 295 297
309 308 308 307 306 305 303 300 296 294 293 293 292 291 291 290 289 288 288 287 286 287 287 287 286 286 286 285 285 285 286 286 286 287 288 289 290 290 290 291 292 293 293
308 307 307 306 305 304 300 297 294 293 293 292 291 291 290 289 288 288 287 286 286 286 286 286 286 286 285 285 285 285 285 286 286 287 287 288 288 289 290 290 291 291 291
307 307 306 305 303 300 297 294 293 293 292 292 291 290 289 288 288 287 286 286 286 285 285 286 285 285 285 285 285 285 285 285 285 286 286 287 287 288 288 288 289 289 289
306 305 304 303 301 298 294 293 292 293 292 291 290 289 288 287 286 286 285 285 285 285 285 284 285 285 285 285 285 285 285 285 285 285 285 286 286 286 287 287 287 288 288
305 304 303 301 298 294 292 292 292 292 291 290 289 288 287 286 285 284 284 284 284 284 285 284 284 285 285 285 285 285 284 284 283 283 283 284 285 285 286 286 287 287 287
303 302 300 298 295 293 292 292 292 291 290 289 288 286 286 284 284 284 284 284 284 285 284 284 284 285 285 285 284 283 283 282 282 282 283 283 284 285 285 286 286 286 286
301 300 298 295 293 291 292 291 291 290 289 287 286 285 284 284 284 284 284 285 285 285 284 285 285 285 284 284 283 282 282 282 282 283 283 283 283 284 284 284 284 284 285
299 297 295 293 291 291 291 291 289 288 287 286 285 284 284 284 284 284 285 285 284 285 285 286 285 284 283 282 282 282 282 282 282 282 282 282 283 282 283 283 283 283 283
297 295 292 291 290 291 291 290 288 286 285 284 284 284 284 284 284 284 284 284 285 285 286 284 284 283 282 282 282 283 283 282 282 283 283 282 282 282 282 282 282 283 283
294 292 290 290 290 291 290 288 286 284 284 284 284 284 284 284 283 283 283 284 285 285 284 283 282 282 282 282 283 282 282 282 282 282 282 282 282 282 282 282 283 283 283
292 290 289 290 291 289 287 286 284 284 283 284 284 284 284 283 283 283 284 285 284 283 282 282 282 282 283 283 282 282 282 282 282 282 282 281 282 282 282 283 284 285 284
290 289 290 290 289 287 285 284 283 283 283 284 283 284 283 283 283 284 285 284 283 282 281 283 282 282 282 282 282 281 282 281 281 281 283 281 282 281 282 285 286 286 284
289 290 290 288 286 285 284 283 282 283 284 283 284 283 283 283 283 284 284 283 282 281 283 282 282 282 283 283 283 282 282 280 279 280 283 281 281 281 282 283 285 287 288

GFSMA_850_thetae_024.txt.gz
Theta_e
329 328 328 326 326 326 324 324 323 323 321 311 310 308 307 305 304 304 304 304 304 305 306 307 307 308 309 310 311 313 314 315 317 320 321 321 321 321 321 322 323 323 323
328 327 326 326 325 325 324 324 324 314 309 308 307 306 305 304 303 303 302 303 303 304 305 305 305 305 306 307 307 306 307 308 309 311 311 312 313 313 314 314 315 316 317
328 327 326 326 326 325 324 324 310 308 308 307 305 304 303 302 302 301 302 302 302 302 300 298 298 298 298 299 299 298 298 298 298 298 299 300 302 304 306 308 309 310 311
327 327 327 326 325 324 322 309 309 308 305 304 303 302 302 302 301 300 301 300 299 298 297 297 297 297 296 296 296 296 296 296 296 296 296 297 297 297 298 298 299 299 300
328 328 327 325 324 320 309 309 308 306 304 303 302 302 302 301 300 300 300 300 301 300 298 298 297 296 296 296 296 296 296 296 296 296 296 296 296 297 300 303 301 299 299
329 328 326 324 323 309 309 309 308 307 305 303 302 301 300 300 299 299 299 301 297 296 297 297 296 296 296 296 296 295 295 295 295 295 295 295 296 303 305 305 305 306 307
330 326 324 323 310 309 310 309 309 307 306 303 301 300 299 298 297 298 297 296 296 296 296 296 295 295 295 295 296 296 296 295 295 295 295 296 299 302 303 304 304 305 307
328 323 323 311 309 311 310 310 309 307 306 303 299 299 300 299 297 297 297 296 296 295 295 295 295 295 295 295 295 294 294 294 294 294 294 297 300 301 302 303 304 305 305
324 319 312 309 310 311 310 310 309 307 303 301 298 296 298 299 296 297 296 295 295 294 294 295 295 295 294 293 293 293 293 292 292 292 294 298 299 300 301 302 303 304 304
315 312 309 310 311 311 310 309 308 306 303 299 296 296 295 294 295 295 295 295 294 293 293 293 294 294 293 292 291 291 291 290 290 290 295 296 297 299 300 300 301 302 303
310 309 309 310 311 310 309 308 307 304 301 298 296 294 293 293 293 293 294 294 293 293 292 291 290 290 290 290 289 289 288 288 290 292 293 294 296 297 298 298 299 300 300
309 308 309 310 310 309 308 307 305 303 300 296 294 293 293 292 292 292 292 292 292 292 292 291 290 290 289 289 289 288 287 287 289 290 291 292 293 294 295 296 297 297 298
311 308 309 309 309 308 307 305 303 301 297 294 294 293 292 292 291 290 290 291 291 291 291 290 290 289 288 288 288 287 286 287 288 289 290 291 292 292 293 293 294 295 295
309 308 309 308 307 306 305 303 301 298 295 294 293 293 292 291 291 290 289 289 290 290 290 290 290 289 288 288 287 287 287 287 287 288 289 289 290 290 290 291 291 292 293
308 308 308 307 306 305 303 301 298 295 294 293 293 292 292 290 290 289 289 289 289 289 289 289 289 288 288 287 287 287 287 287 287 287 288 288 289 289 289 289 290 290 291
307 307 307 305 304 303 301 299 296 294 293 293 293 291 290 289 289 288 288 288 288 288 288 288 288 287 287 287 287 287 287 287 287 287 287 287 287 287 288 288 288 289 290
306 306 305 304 302 301 299 296 294 293 293 293 291 290 289 288 287 287 287 287 287 287 287 287 287 287 287 286 287 287 287 286 286 286 285 285 286 286 287 288 288 288 289
305 304 303 302 300 299 296 293 293 293 292 292 290 289 288 287 286 286 286 286 286 286 286 286 286 286 286 287 287 286 286 285 285 284 285 285 286 286 287 287 287 288 288
304 303 302 300 299 296 293 292 292 292 291 290 289 287 286 286 286 286 286 286 286 287 286 286 286 286 287 287 286 285 285 284 285 284 285 285 285 286 286 287 287 287 287
302 301 300 298 296 294 292 291 291 291 290 288 287 286 286 285 285 285 286 286 286 286 286 286 286 286 287 286 285 285 284 284 284 285 284 285 285 285 285 286 286 286 286
300 299 298 296 294 291 291 291 290 289 288 287 286 286 285 285 284 285 286 286 286 285 285 285 286 287 285 285 284 284 284 284 284 284 284 284 285 284 284 285 285 285 285
298 297 296 293 291 290 291 291 289 287 287 286 286 286 285 285 285 285 285 285 285 285 285 286 286 285 284 284 284 284 284 285 284 284 284 284 284 284 284 284 285 285 285
296 295 293 291 290 291 291 289 287 286 286 285 285 285 285 285 285 284 284 285 285 285 286 285 284 284 284 284 283 284 284 283 283 283 284 283 284 284 284 284 285 285 286
294 292 290 290 291 290 289 287 286 285 285 286 285 285 285 285 284 284 285 285 285 284 284 284 283 283 283 283 284 283 283 282 283 284 283 283 283 283 284 285 287 287 287
291 290 290 291 290 288 287 285 285 284 285 285 285 285 285 284 284 284 285 284 284 284 283 283 283 284 284 283 283 282 282 282 282 283 284 282 284 283 283 286 287 287 287
289 290 290 290 288 286 285 285 284 284 285 285 285 285 284 284 284 284 284 283 283 283 282 283 284 283 282 282 282 282 282 282 282 281 284 283 282 282 283 284 286 288 290

GFSMA_850_thetae_027.txt.gz
Theta_e
328 329 330 326 326 326 326 324 324 323 322 311 309 308 306 306 305 305 306 305 303 304 305 305 305 306 307 308 308 309 309 310 311 311 313 314 315 316 317 318 318 320 321
330 329 326 326 326 325 325 324 324 322 310 308 307 306 304 304 303 303 304 304 303 303 304 304 304 302 301 300 301 301 301 301 301 301 301 302 304 306 308 310 312 313 313
330 327 327 326 326 325 325 324 321 309 308 306 304 303 303 303 302 302 302 303 302 302 301 299 298 297 297 297 297 297 297 297 297 297 297 297 298 298 298 298 299 300 303
328 327 327 327 326 325 324 322 309 308 307 305 303 303 302 302 302 301 301 300 300 299 300 300 299 299 298 297 297 297 297 297 297 297 297 297 297 297 297 297 298 298 298
328 327 327 327 325 324 323 310 309 308 307 305 304 302 302 302 302 301 300 300 300 300 299 297 298 297 298 297 297 297 297 297 296 296 296 296 296 296 297 298 305 306 302
328 327 328 326 324 323 310 310 309 309 308 307 305 303 302 301 301 300 301 300 298 298 297 296 296 296 296 296 296 296 296 296 296 296 296 296 296 297 302 305 306 307 307
328 328 328 325 323 313 309 310 310 310 309 307 305 303 302 301 300 301 301 299 298 297 297 296 295 295 295 295 295 296 295 295 295 295 295 295 296 300 303 304 305 305 306
329 329 327 323 318 309 311 311 311 310 309 307 303 301 302 301 300 299 299 298 297 296 296 295 295 296 295 295 295 295 295 294 294 293 293 294 299 301 302 302 303 304 305
329 329 324 322 310 310 311 311 311 310 307 306 303 300 300 301 299 299 298 298 296 296 295 295 295 295 294 294 293 293 292 292 292 291 292 295 298 299 300 301 302 303 304
329 326 320 312 309 311 311 310 310 309 307 304 301 299 297 296 296 297 297 297 297 296 295 294 294 294 293 293 292 292 291 291 291 290 292 296 297 298 299 300 300 301 302
327 326 313 308 310 311 310 310 310 308 306 303 300 297 295 295 295 295 295 295 295 295 294 294 293 292 292 291 291 290 290 291 291 292 293 294 295 296 297 298 298 299 300
325 324 308 308 310 310 310 309 308 307 305 302 298 296 295 294 294 294 294 293 293 293 293 293 292 292 291 291 290 290 290 290 290 291 292 293 294 295 295 296 296 296 297
322 315 308 308 309 309 309 308 307 306 304 300 297 295 294 294 293 292 292 292 292 292 292 292 292 292 291 290 289 289 289 289 289 290 291 292 293 292 292 293 293 294 294
319 314 307 308 309 308 308 307 306 304 301 298 295 295 294 293 293 292 291 291 291 291 291 291 291 291 290 290 289 289 288 288 288 289 290 290 290 290 290 291 291 292 292
312 308 307 308 308 307 306 305 304 302 299 295 294 294 293 293 292 291 290 290 290 290 290 290 290 290 289 289 288 288 287 287 288 289 289 289 289 289 289 290 290 290 291
311 308 307 307 306 306 305 304 302 300 296 294 293 293 292 292 291 290 289 289 289 288 288 288 288 288 288 288 288 287 287 288 288 288 288 288 288 288 288 289 289 289 290
308 306 307 306 305 304 303 302 300 296 294 293 292 292 292 291 289 288 288 287 287 287 287 287 288 288 288 287 287 287 287 287 286 287 287 287 287 288 288 288 289 289 289
305 305 305 305 304 303 301 299 296 293 293 292 292 291 290 289 288 287 287 287 287 287 287 288 288 287 287 287 287 287 287 287 286 286 286 287 287 288 288 288 288 289 289
304 304 304 303 302 301 300 297 293 292 292 292 291 290 289 288 287 287 287 287 287 287 287 287 287 287 286 286 287 287 286 286 285 285 285 286 286 287 287 288 288 288 288
303 303 303 302 301 300 297 294 292 292 292 291 290 289 288 287 287 286 286 286 286 286 286 286 286 285 286 287 286 286 285 285 285 285 285 285 286 286 286 287 287 287 287
302 302 301 300 299 298 295 292 292 291 290 289 288 288 288 287 286 286 286 286 286 285 285 285 286 286 287 286 285 285 285 285 284 285 285 285 285 285 285 285 286 286 287
301 300 299 298 298 294 292 292 292 290 288 287 288 287 287 286 286 286 286 286 286 285 285 286 286 286 285 285 284 284 284 284 285 284 284 284 285 285 285 285 285 286 287
299 298 298 297 294 291 292 291 290 287 286 287 287 287 286 286 286 286 285 285 285 285 286 286 285 285 285 284 283 284 285 284 284 284 283 284 284 284 285 285 286 286 287
298 297 298 293 291 292 291 289 287 286 286 286 286 286 286 286 286 285 285 285 284 284 284 284 284 284 284 284 285 285 284 283 283 284 283 284 284 284 285 285 287 287 288
299 295 291 291 291 290 289 286 286 285 285 286 286 286 286 286 285 286 285 284 284 284 283 284 284 284 285 285 285 284 283 283 283 283 283 282 284 283 284 286 286 286 287
292 290 291 291 290 288 286 286 285 284 284 285 285 285 285 285 285 285 285 285 283 283 282 283 283 283 283 283 283 283 283 283 283 282 284 283 282 282 283 283 285 287 288

GFSMA_850_thetae_030.txt.gz
Theta_e
323 328 330 329 329 326 325 324 324 324 323 312 309 308 306 305 305 304 304 304 304 303 304 304 304 305 305 304 303 302 302 302 302 302 302 303 304 306 309 312 313 314 315
328 329 330 329 326 325 325 324 324 324 313 309 307 305 304 303 303 303 303 303 303 303 303 303 303 301 298 298 298 298 298 298 298 298 298 298 298 299 299 299 299 301 304
329 330 330 325 325 325 325 325 324 314 309 307 305 304 304 303 302 302 302 302 302 302 301 300 299 298 299 299 298 298 298 298 298 298 299 299 299 299 298 298 298 298 299
330 330 326 326 326 325 324 324 320 309 308 308 306 304 303 303 302 302 302 301 301 301 301 301 300 298 298 298 298 298 297 298 298 298 297 298 298 298 298 298 298 299 301
330 328 327 326 326 325 324 323 310 309 309 309 307 305 304 302 301 302 301 301 300 300 300 298 297 297 298 298 298 298 297 297 297 297 297 297 297 297 297 297 299 302 307
329 328 327 327 326 325 323 311 310 310 310 310 308 306 304 302 301 301 300 301 300 299 298 297 297 297 297 297 297 297 297 297 296 296 296 296 296 297 300 303 304 306 307
329 328 327 327 326 324 318 310 311 311 311 310 309 305 303 302 302 300 300 300 299 298 298 297 297 297 296 296 296 295 295 295 295 295 294 294 296 297 301 303 304 305 305
329 328 328 328 326 324 310 311 311 311 311 310 308 304 302 302 301 301 300 299 298 298 297 297 297 296 296 296 295 294 294 294 293 293 293 294 294 298 300 302 302 303 304
329 328 328 328 325 319 310 311 311 311 311 310 308 305 301 301 301 299 299 298 298 297 297 296 296 296 295 295 294 293 293 292 292 292 296 297 298 299 300 301 301 302 302
330 328 329 328 323 313 310 311 311 311 310 310 308 304 300 299 298 297 298 298 297 296 296 296 295 295 294 294 293 292 292 291 292 294 295 296 297 298 299 300 300 301 301
329 328 329 326 321 310 310 311 311 310 309 309 306 303 299 297 296 296 296 296 295 295 295 295 294 293 293 292 292 292 291 291 291 293 294 295 296 297 298 299 299 299 299
327 327 327 323 316 310 310 310 310 310 309 307 305 302 298 296 295 295 294 295 294 295 294 294 293 292 292 292 291 291 290 290 291 292 293 294 295 296 296 296 296 296 296
326 326 324 320 314 310 309 310 309 309 308 306 304 300 297 295 295 294 293 293 293 293 293 293 291 291 291 291 291 290 290 290 290 290 291 293 294 294 293 293 294 294 294
324 322 322 314 310 309 309 309 308 308 307 305 302 298 296 295 294 293 293 291 291 290 290 290 290 290 290 290 290 289 289 288 289 289 290 292 291 291 291 291 292 292 292
322 321 317 312 308 308 308 308 307 306 305 303 300 297 295 294 293 293 292 291 290 289 289 289 289 289 288 288 288 288 288 287 288 289 290 290 289 290 290 290 290 291 291
320 317 315 308 307 307 307 306 306 304 302 299 297 295 294 293 293 292 290 289 289 288 288 288 287 287 287 288 288 287 286 287 287 288 288 288 289 289 289 289 290 291 291
316 315 310 307 306 306 305 305 304 303 301 297 295 293 293 293 292 290 289 288 287 287 287 287 287 287 287 287 287 287 286 286 287 287 287 288 288 288 289 289 290 290 290
311 310 305 304 305 304 304 304 302 301 298 295 293 293 293 291 290 289 288 287 287 287 287 287 287 287 286 286 285 286 286 287 286 285 287 287 287 288 288 288 289 289 290
307 304 304 304 304 303 303 302 300 297 294 293 293 293 291 290 289 288 287 287 286 286 286 286 286 285 285 285 286 286 286 285 285 285 285 286 286 287 287 287 288 289 289
304 302 302 302 302 302 301 301 298 294 293 293 292 291 289 288 288 287 287 287 287 286 286 286 285 285 285 285 286 285 285 285 284 284 284 285 286 286 285 286 286 286 287
301 302 302 302 300 300 301 297 294 293 293 292 290 288 288 288 287 287 287 287 287 286 286 286 285 285 286 286 285 285 284 284 284 285 285 285 284 285 285 286 286 286 286
303 302 301 300 300 301 300 294 293 293 291 290 288 287 287 287 286 286 287 286 286 286 286 285 286 285 285 284 284 284 284 284 284 285 285 284 284 285 285 285 285 285 286
300 302 300 299 302 300 293 293 292 291 289 288 287 286 286 286 286 285 285 286 285 285 285 285 285 284 284 284 284 284 285 285 285 284 283 283 285 285 285 285 285 286 286
301 298 300 303 297 293 293 292 290 288 287 286 285 285 286 286 285 286 286 286 285 285 284 284 284 284 284 284 285 285 285 284 284 284 284 283 284 283 284 284 285 286 286
298 304 300 294 292 292 291 290 288 287 286 285 284 285 285 285 285 286 286 285 285 284 284 283 283 284 284 284 284 284 283 283 283 283 284 282 283 282 283 284 285 285 285
302 295 292 291 291 290 288 287 287 286 284 284 283 284 284 285 285 286 285 285 285 284 283 283 283 283 284 284 283 283 283 282 282 282 283 282 282 281 281 282 284 285 286

GFSMA_850_thetae_033.txt.gz
Theta_e
327 325 325 329 328 328 325 324 324 323 323 315 310 308 306 305 305 304 304 304 304 304 303 303 303 303 302 300 299 298 298 298 298 298 298 298 299 299 299 300 303 307 310
323 324 328 329 329 327 325 325 323 323 322 310 308 306 304 304 303 303 303 303 303 303 302 302 302 300 298 298 299 299 298 298 298 298 299 299 299 299 299 299 298 299 299
325 327 328 329 329 325 325 325 324 324 312 309 307 306 305 303 303 302 302 302 302 302 301 301 301 301 300 299 298 298 298 298 298 298 298 298 298 298 299 299 299 299 299
328 328 329 329 327 325 325 324 324 322 309 309 308 306 305 304 302 302 302 302 301 301 301 300 300 298 298 298 298 298 298 298 298 298 298 298 298 298 298 298 298 299 301
328 329 329 329 326 325 324 324 323 311 310 310 309 307 305 303 302 302 302 301 301 300 299 299 298 298 298 298 298 298 297 297 297 297 297 297 296 297 297 298 299 301 305
329 330 330 327 326 326 325 324 318 310 311 311 310 307 304 303 302 301 301 301 300 300 299 299 298 298 297 297 297 297 296 296 296 296 296 295 296 298 300 302 303 305 306
330 330 328 327 326 326 325 323 310 311 312 311 310 308 305 304 303 302 300 300 300 299 298 298 297 297 297 297 296 296 296 295 295 294 294 295 299 300 301 302 303 304 304
331 331 329 327 327 326 324 319 310 312 312 312 311 308 305 304 303 302 301 299 299 298 298 297 297 297 297 296 295 295 294 294 293 293 294 297 299 300 300 301 302 303 303
332 332 329 327 327 326 324 314 311 312 312 312 311 309 305 303 302 300 299 299 298 298 297 297 297 296 295 295 294 294 293 293 292 295 297 299 299 299 300 301 302 302 303
332 332 329 327 327 326 323 311 311 312 312 312 311 309 307 304 301 300 299 298 298 297 297 296 296 295 294 293 293 292 292 292 292 295 296 297 298 298 299 300 300 301 302
332 332 328 327 327 325 319 310 311 312 311 311 310 309 306 303 300 298 298 298 298 297 296 296 295 294 293 292 292 291 291 291 293 294 295 296 296 297 298 299 299 300 299
331 331 328 327 327 323 318 310 311 311 310 310 309 308 305 302 298 297 295 296 295 296 296 295 294 293 291 291 291 291 290 290 292 293 293 294 295 295 296 297 297 297 297
329 329 327 326 326 319 312 310 311 310 309 309 308 306 304 300 297 296 295 294 293 294 294 294 292 291 290 290 290 290 290 290 289 290 291 292 293 294 294 294 294 294 294
328 327 324 321 321 312 310 310 310 309 308 308 307 305 301 298 296 294 294 293 292 292 292 292 290 290 289 288 288 288 288 288 287 288 290 291 292 292 291 291 292 293 293
327 326 323 319 314 310 308 309 308 308 307 306 305 303 299 296 294 294 293 292 291 289 289 289 289 288 288 287 287 287 287 287 287 288 289 289 290 290 290 291 291 291 292
324 323 320 314 313 306 308 307 307 306 305 305 303 300 297 295 293 293 292 291 290 288 288 288 288 287 287 286 286 286 286 285 285 286 288 289 289 289 290 290 290 291 291
322 321 317 310 308 308 306 306 306 304 303 302 300 297 294 293 293 292 291 290 289 288 287 287 287 286 286 286 285 285 285 285 286 286 287 287 288 289 289 289 289 290 290
318 315 314 308 304 306 304 304 304 303 302 300 297 294 293 293 292 290 289 288 288 287 287 286 286 286 285 285 285 285 285 285 285 285 285 287 287 287 287 288 288 289 289
314 312 306 305 306 303 303 303 302 300 298 296 294 293 292 291 290 289 288 288 287 287 287 286 286 286 285 285 285 285 285 284 284 284 285 285 285 286 286 288 288 287 288
307 304 303 299 300 302 302 301 301 297 298 293 293 292 290 289 288 288 287 287 287 287 287 286 286 286 285 285 285 285 284 284 284 284 285 285 286 285 285 285 285 285 286
302 299 299 300 298 301 300 303 303 296 293 292 291 290 288 288 287 287 287 287 287 287 286 286 286 285 284 284 284 283 284 284 284 285 285 285 285 284 285 285 285 286 286
299 299 299 301 300 301 304 305 296 292 292 291 289 288 288 287 286 286 286 286 287 287 286 286 285 285 284 284 283 283 284 284 284 285 285 284 284 284 285 285 285 285 285
303 304 301 301 303 303 297 293 293 291 290 289 288 287 286 286 286 286 285 286 286 286 286 286 285 284 283 283 283 284 285 285 284 284 284 284 285 284 285 285 284 285 285
301 300 302 300 298 292 292 292 291 289 288 288 287 286 285 285 285 285 286 286 286 286 285 284 284 284 283 284 285 285 284 284 283 284 284 282 284 283 283 284 285 285 286
299 294 297 294 292 291 291 290 289 288 287 287 285 284 284 284 284 285 286 286 285 285 285 284 283 284 284 284 283 283 283 283 283 283 284 282 284 283 282 284 285 285 285
295 295 292 291 290 290 289 288 288 287 287 285 284 284 283 283 284 285 286 286 285 284 283 283 283 284 284 284 284 284 283 282 282 281 284 282 282 282 281 282 283 285 285

GFSMA_850_thetae_036.txt.gz
Theta_e
324 326 326 322 320 324 325 324 323 323 323 321 311 308 307 305 304 304 304 304 304 304 304 303 303 303 301 299 298 298 298 299 298 299 299 299 299 299 299 299 299 300 304
322 325 327 324 327 327 326 324 324 323 323 319 309 307 305 304 303 303 303 303 303 303 302 302 301 299 298 299 299 299 299 299 299 299 299 299 299 299 299 299 299 299 299
321 324 323 325 328 328 326 324 324 323 323 312 308 307 305 304 303 303 303 302 302 302 301 301 301 301 299 298 298 298 298 299 299 299 298 298 298 298 298 299 299 299 300
326 323 323 326 328 328 325 325 324 324 323 309 308 307 305 304 303 303 302 302 302 301 301 300 300 299 298 298 298 298 298 298 298 298 298 298 297 298 298 299 302 304 305
328 325 326 327 328 328 325 324 324 323 319 309 309 309 306 305 303 302 302 301 301 301 300 299 299 298 298 298 298 298 297 297 297 297 297 297 296 297 297 298 301 304 306
331 327 328 328 329 328 325 324 324 323 310 310 311 309 307 304 303 302 302 301 301 300 300 299 298 298 298 297 297 297 296 296 296 296 296 296 297 300 301 302 303 304 305
333 331 328 328 329 328 325 325 323 318 310 311 311 309 306 305 303 302 301 301 300 299 299 298 298 298 298 297 296 296 295 295 294 294 296 295 299 301 302 302 303 304 304
333 332 330 329 329 328 326 325 323 312 311 312 311 310 306 305 304 303 302 301 300 299 298 298 298 297 297 296 296 295 294 294 293 294 297 298 300 301 301 302 303 303 304
333 331 330 329 329 327 326 326 323 311 312 312 312 311 309 307 305 303 301 300 299 298 298 297 297 296 296 295 295 294 294 293 293 294 298 299 300 300 300 301 302 302 303
331 330 331 330 330 328 326 325 322 311 312 312 312 311 310 309 306 302 301 299 298 298 298 296 296 295 295 295 294 293 292 292 292 295 297 298 299 299 299 300 301 301 302
331 331 331 330 331 329 326 325 322 311 312 312 312 311 310 309 307 304 301 300 299 297 297 296 296 295 294 293 292 292 291 291 292 294 296 297 297 298 298 299 299 300 300
330 330 331 330 330 329 327 326 320 310 311 311 311 310 309 308 306 303 300 299 298 298 297 296 295 294 293 292 291 290 290 290 290 290 293 294 295 296 296 297 297 298 298
330 329 329 330 328 328 326 323 318 310 311 311 310 309 308 306 304 301 298 297 295 295 295 295 294 292 291 290 290 289 288 288 288 288 291 292 293 294 294 294 295 295 295
326 327 328 328 326 327 324 319 312 309 309 309 309 308 306 304 302 299 296 295 294 294 294 294 292 291 290 289 289 288 288 287 287 287 289 291 291 291 292 292 293 293 294
326 327 328 326 324 325 317 315 308 307 308 308 307 307 304 302 299 296 294 294 293 291 290 291 290 289 288 288 288 287 287 286 286 286 287 288 289 290 291 291 291 292 292
327 327 326 324 319 321 315 308 307 308 304 307 305 304 301 298 296 294 294 293 292 290 289 289 289 288 288 287 287 286 286 285 285 285 286 288 288 289 289 290 291 291 291
327 327 325 321 314 315 308 305 306 305 303 304 303 301 299 297 295 293 293 292 290 289 288 288 288 287 287 286 286 286 285 285 285 285 285 287 287 288 289 289 289 290 290
326 324 319 313 310 307 304 306 307 301 300 301 299 297 295 294 294 293 292 290 289 288 288 287 287 287 286 286 285 285 285 285 284 285 285 286 287 287 287 288 288 289 290
321 318 313 309 307 304 306 297 299 301 298 297 295 294 296 294 293 291 290 289 288 287 287 287 287 286 286 285 285 284 284 284 284 285 285 285 285 286 286 287 288 288 288
315 311 305 304 305 302 300 301 297 297 298 296 299 301 298 292 290 289 288 288 287 287 287 287 286 286 286 285 284 284 283 283 284 285 285 285 285 285 285 285 285 285 285
307 305 303 303 300 299 296 295 297 300 303 303 299 293 290 288 288 287 287 287 287 287 286 286 286 286 285 285 284 283 283 283 284 285 285 285 285 285 286 286 286 286 286
302 301 300 301 301 300 299 302 302 302 299 295 292 289 288 287 287 286 286 287 287 287 287 286 286 286 285 284 284 283 283 284 284 285 285 284 285 285 286 286 286 286 285
299 302 302 301 300 301 301 300 295 291 291 290 289 288 287 286 285 285 285 285 285 286 286 286 285 285 284 284 283 284 285 284 284 284 284 284 285 286 286 285 285 286 285
301 301 301 301 300 300 292 292 292 291 289 288 287 286 285 284 284 284 284 285 285 285 285 285 284 284 283 284 285 285 284 283 283 284 285 282 285 285 285 285 286 286 286
300 301 300 300 298 293 291 291 291 288 287 287 286 285 284 283 283 284 285 285 286 285 285 284 283 284 284 284 284 283 283 283 283 284 285 282 284 283 284 285 286 286 286
301 299 293 290 290 289 288 286 287 287 286 285 285 284 283 282 282 285 285 285 284 284 283 283 283 283 283 283 284 284 283 283 283 281 284 283 283 282 282 283 284 285 286

GFSMA_850_thetae_039.txt.gz
Theta_e
324 325 326 323 319 322 323 324 323 322 322 322 319 310 308 306 305 304 304 304 304 304 304 303 303 303 301 299 299 299 299 299 299 299 299 299 300 299 300 299 299 299 299
324 325 326 325 320 322 325 324 323 323 322 322 318 309 307 305 304 303 303 303 303 303 302 302 302 300 300 300 300 299 299 299 299 299 299 299 299 299 299 299 299 300 300
321 324 327 327 324 326 327 325 323 323 323 322 313 308 307 305 304 303 303 302 302 302 301 301 301 300 299 298 298 298 299 299 299 299 299 299 299 299 299 299 299 299 300
318 322 325 326 325 328 327 326 324 323 323 322 310 308 307 306 304 303 302 302 302 301 301 300 300 299 298 298 298 298 298 298 298 298 298 298 298 298 298 298 299 301 303
327 322 324 324 324 328 328 327 324 323 323 321 309 308 307 306 304 303 302 302 301 301 300 300 299 299 298 298 298 298 297 297 297 297 297 297 297 297 297 298 301 303 305
331 330 326 324 326 327 328 327 324 323 323 318 309 309 308 306 304 303 302 302 301 301 300 299 299 298 298 298 298 297 297 297 296 296 296 296 296 298 301 303 304 304 305
332 331 328 325 327 327 328 327 325 323 322 314 310 310 308 306 304 303 303 302 301 301 300 299 299 298 298 298 297 297 296 296 295 295 295 299 299 300 303 303 304 304 305
332 331 331 329 328 328 328 327 325 324 323 311 310 310 308 306 305 304 303 302 301 301 299 299 298 298 297 297 297 296 296 295 294 294 296 299 301 302 302 303 303 304 304
333 331 330 330 330 328 328 328 326 325 323 311 311 311 309 309 306 305 304 302 301 300 299 298 298 297 297 296 296 296 295 294 293 293 298 300 301 301 302 302 302 303 304
332 331 330 329 330 329 329 329 327 325 323 311 311 312 311 310 308 306 304 302 301 300 299 298 297 296 296 296 296 294 293 293 292 295 298 299 299 300 301 301 301 302 302
330 331 330 328 329 329 329 329 327 326 324 313 311 312 311 310 309 308 305 303 301 299 298 297 297 296 296 295 294 293 292 292 291 291 294 297 297 298 299 300 300 300 300
328 329 331 329 329 329 329 329 327 326 324 316 311 311 311 311 310 308 306 303 301 299 298 297 296 296 295 294 293 292 291 291 290 290 290 294 295 296 297 297 298 298 299
329 328 327 328 328 327 328 328 326 325 323 311 310 311 310 310 308 307 305 302 299 299 298 297 296 295 293 292 291 290 290 290 289 289 288 292 293 294 294 294 294 295 296
330 329 327 327 328 327 328 327 322 322 318 309 308 308 308 307 306 305 303 301 297 296 296 297 295 294 292 290 290 289 289 289 288 288 288 288 290 290 291 292 293 293 294
327 328 328 327 326 327 326 324 318 315 309 310 307 306 309 307 303 300 301 297 295 294 294 295 293 293 290 290 289 288 288 287 287 286 286 286 287 289 290 290 291 292 292
324 326 326 326 326 325 322 320 312 308 306 305 306 310 302 304 300 298 296 295 294 293 291 291 291 290 289 289 288 287 287 286 286 286 285 285 287 288 289 289 290 291 291
325 326 326 326 324 322 321 315 307 306 307 305 305 306 299 300 298 296 295 294 293 291 290 289 289 288 288 288 287 287 286 286 285 285 285 285 286 288 288 289 289 290 290
326 324 324 323 323 321 314 305 306 306 305 307 308 304 297 298 296 295 294 293 292 290 288 288 288 288 287 286 286 286 286 285 285 284 285 286 286 287 287 288 288 289 289
322 321 322 322 319 309 304 305 304 304 305 303 298 293 294 296 298 297 295 291 289 288 288 287 287 287 286 286 286 285 285 284 284 284 286 286 286 286 286 287 288 288 288
321 320 318 313 306 304 304 303 303 303 299 297 295 296 298 299 299 292 289 288 288 287 287 287 287 286 286 286 285 285 284 284 283 285 286 286 285 285 285 286 286 286 286
316 317 313 305 303 302 303 304 301 299 299 299 300 299 300 293 289 288 287 287 287 287 287 286 286 286 286 286 285 284 284 283 284 285 286 285 284 285 286 287 287 287 287
308 305 302 301 302 303 302 302 301 300 300 299 299 292 289 287 287 287 286 286 286 287 287 287 286 286 286 285 284 284 283 284 284 284 284 284 284 285 286 286 287 287 286
301 302 302 302 301 300 300 300 299 298 296 291 288 288 287 287 286 285 285 284 284 285 286 286 286 285 285 284 284 284 285 285 284 284 284 284 285 286 286 286 286 286 286
301 301 301 301 300 300 299 299 298 292 289 288 287 287 286 285 285 284 283 285 285 285 285 285 285 284 284 284 284 285 284 284 283 284 284 283 285 285 285 286 286 286 286
300 300 300 299 299 299 296 291 289 288 287 286 286 286 285 284 283 282 284 285 285 285 284 284 283 283 283 283 283 283 283 283 283 284 285 283 285 284 284 285 286 286 286
300 299 299 298 290 289 289 288 287 286 287 287 286 285 283 282 282 284 285 285 284 283 283 283 283 283 283 283 284 283 283 283 283 281 284 283 283 282 282 283 284 285 286

GFSMA_850_thetae_042.txt.gz
Theta_e
326 327 326 323 318 321 322 324 323 323 322 321 321 317 310 308 305 304 304 304 304 304 305 304 303 302 301 300 300 300 300 300 300 300 300 300 300 300 300 300 300 300 300
324 325 326 325 323 319 322 324 324 323 322 321 322 317 309 306 305 304 303 303 303 303 303 302 302 300 300 300 300 299 299 299 300 300 300 300 300 300 300 300 300 300 300
322 324 325 325 324 321 321 324 324 323 322 321 322 316 308 306 305 304 303 303 302 302 302 301 301 300 300 299 299 299 299 299 299 299 299 299 299 299 299 299 299 299 300
319 322 324 326 327 324 324 326 326 323 322 322 322 315 308 306 305 304 303 302 302 302 301 301 300 300 299 299 298 298 299 298 298 298 298 298 298 298 298 298 299 300 301
323 318 322 324 327 326 325 327 327 324 323 322 322 314 308 307 306 304 303 302 302 301 301 300 300 299 299 298 298 298 298 298 298 298 298 298 297 297 298 301 303 304 305
328 322 319 321 325 325 324 327 327 325 323 322 321 312 309 308 306 304 303 302 302 301 301 300 299 299 299 299 299 298 298 297 297 297 296 296 297 297 299 304 304 305 305
332 330 329 324 325 324 323 326 327 326 324 322 320 310 309 308 307 304 303 303 302 301 301 301 300 299 299 299 298 298 297 297 296 296 295 297 298 300 302 304 304 304 305
333 332 330 329 328 325 325 326 327 327 324 321 319 310 308 308 308 305 304 303 302 302 302 301 300 299 299 298 298 297 297 296 296 295 295 297 301 302 303 303 304 304 305
331 331 331 330 329 326 326 327 327 328 326 323 322 311 309 310 308 307 305 304 303 302 302 301 300 299 299 298 297 297 296 296 295 294 295 300 301 302 302 303 304 304 304
329 330 332 331 328 329 327 327 328 327 326 324 322 315 310 310 309 307 306 305 304 302 302 301 300 300 299 297 297 296 296 294 293 293 294 297 300 301 301 301 302 303 303
329 328 328 330 328 328 328 328 328 327 327 326 325 322 311 311 310 309 308 308 304 303 302 301 300 299 298 297 296 295 294 293 292 292 292 293 297 298 299 300 300 301 301
330 329 329 327 327 327 329 328 328 327 326 325 323 319 312 311 311 310 309 308 307 304 302 300 299 297 296 296 295 293 293 291 291 291 291 291 294 297 297 298 298 298 298
326 329 329 329 327 326 326 328 327 327 326 324 321 316 310 310 309 310 309 307 306 303 302 300 298 297 296 295 294 292 292 291 291 291 290 289 291 292 293 294 295 295 296
323 325 328 329 329 327 326 327 327 326 326 322 318 310 310 308 309 306 305 304 303 301 301 299 298 296 294 293 291 290 290 290 289 289 289 288 288 288 289 291 292 293 294
320 322 325 326 329 328 327 326 327 326 324 319 314 309 308 308 304 306 306 302 303 297 297 298 296 295 293 291 290 290 289 288 288 287 287 287 287 287 289 290 290 291 292
317 320 324 326 326 328 328 327 326 323 320 313 309 308 304 304 302 303 300 299 296 295 293 296 296 293 291 290 290 289 288 287 287 286 286 286 285 286 288 289 290 291 291
316 320 324 326 326 326 326 324 322 320 314 308 305 303 301 302 304 302 297 299 295 293 292 294 294 291 289 289 288 288 287 286 286 286 286 285 285 287 288 289 290 290 290
319 321 324 324 324 323 321 321 317 312 306 304 303 303 304 306 304 301 296 298 300 297 294 290 289 289 288 288 287 286 286 286 285 285 285 285 285 286 287 287 288 289 289
320 321 320 321 321 321 318 314 309 305 302 303 303 304 304 302 301 302 300 298 298 291 289 288 288 287 287 286 286 286 285 285 285 284 284 285 285 286 286 286 287 288 288
318 319 319 318 317 315 309 307 302 302 302 303 303 301 302 301 300 298 299 296 289 288 288 288 287 287 286 286 286 285 285 284 284 284 285 285 285 285 286 286 286 286 286
314 314 314 312 311 309 304 300 302 303 303 301 300 301 299 298 300 295 290 288 287 288 287 287 287 286 286 285 285 285 284 283 284 284 286 286 285 285 286 286 286 287 287
309 306 305 305 303 301 302 302 302 301 300 300 299 299 299 291 289 287 286 286 285 285 286 286 285 286 286 285 285 284 283 284 284 284 284 285 285 285 286 286 286 287 286
303 301 300 300 300 301 302 301 300 300 299 299 299 293 288 286 287 286 285 285 284 284 285 286 285 285 285 284 283 284 284 284 284 283 283 284 284 285 286 286 286 286 286
300 300 300 300 300 299 299 299 299 299 298 292 286 287 287 286 286 285 284 283 284 284 285 285 284 284 283 284 284 283 283 283 283 284 284 283 285 285 285 285 286 286 286
299 299 298 298 298 299 298 300 295 288 287 287 287 286 286 285 283 282 283 284 285 285 284 283 282 282 282 282 283 283 283 283 284 284 285 283 285 284 284 285 285 285 286
299 299 300 299 297 294 291 290 287 287 287 286 285 284 283 282 282 284 285 285 284 283 282 282 282 282 283 284 284 284 284 283 283 282 283 282 283 282 281 283 284 285 285

GFSMA_850_thetae_045.txt.gz
Theta_e
323 327 327 324 321 319 321 322 323 323 322 321 321 321 314 309 307 305 305 305 304 304 304 304 303 303 301 300 301 301 300 300 300 300 300 301 300 300 300 300 300 300 300
322 324 327 327 325 318 320 322 323 323 322 322 321 321 315 308 306 305 304 303 303 303 303 303 302 301 301 301 300 300 300 300 300 300 300 301 301 300 300 300 300 300 300
319 321 325 326 326 324 320 321 323 323 323 322 322 321 317 308 306 305 304 303 303 303 303 302 301 301 300 300 299 299 299 300 300 300 300 300 300 299 299 299 299 299 299
321 319 322 324 325 325 323 320 323 324 323 322 322 322 319 308 306 305 304 303 303 302 302 301 301 300 300 300 299 299 299 299 299 299 299 299 299 299 298 298 298 298 299
327 321 320 322 324 326 326 323 324 325 324 323 322 322 319 308 307 306 304 303 302 302 301 301 300 300 300 299 299 299 299 299 298 298 298 298 298 297 297 298 300 301 303
333 328 324 320 323 325 326 326 325 326 326 323 322 321 318 309 307 306 305 303 302 302 301 301 301 300 300 299 299 299 298 298 298 297 297 297 296 297 298 299 305 305 306
334 333 331 325 320 322 324 326 325 327 326 324 321 320 316 309 308 307 305 303 303 302 302 302 302 301 301 300 300 299 298 298 297 297 296 296 297 298 302 304 305 305 306
331 332 333 330 325 321 322 325 325 325 327 324 321 319 312 310 308 308 306 304 303 303 302 302 302 301 301 300 300 299 298 297 297 296 295 296 298 303 304 304 305 305 306
331 330 330 330 330 327 325 325 324 324 327 326 323 320 312 310 310 309 307 305 304 304 303 303 303 302 300 300 299 299 298 297 296 295 295 297 301 302 303 304 304 305 305
328 329 329 330 330 329 329 328 325 324 326 327 324 323 322 318 311 310 308 307 305 304 304 303 303 302 300 299 299 298 297 297 295 294 294 294 297 300 301 302 303 303 303
325 327 328 329 328 328 329 328 328 325 325 327 326 324 320 317 317 310 310 309 307 305 304 303 303 302 301 299 298 297 296 295 294 293 292 292 292 296 299 300 301 302 302
322 324 325 329 329 328 327 327 328 327 326 326 326 324 323 321 319 309 308 309 308 306 304 303 301 300 300 298 297 297 295 294 293 292 292 292 292 294 297 298 298 299 299
321 321 322 326 329 328 328 327 327 327 327 326 326 324 322 319 313 310 308 307 306 307 303 301 300 299 298 297 296 295 294 293 292 292 291 291 290 290 290 291 294 295 296
321 322 322 323 324 326 328 328 327 326 328 326 326 324 321 312 310 307 308 306 310 308 302 300 300 298 296 296 294 293 293 291 291 290 290 290 289 289 288 288 291 293 294
315 317 322 325 324 325 326 327 327 327 326 326 324 321 318 312 308 307 307 309 306 302 303 300 298 297 295 295 294 292 291 290 289 289 288 288 288 287 287 288 289 291 292
313 314 318 323 325 326 326 327 327 327 326 323 322 319 316 311 307 306 307 309 305 300 297 296 295 294 293 297 295 291 290 289 288 287 287 287 287 286 287 288 289 290 291
315 315 316 321 325 326 326 324 326 325 323 321 319 315 310 305 305 305 304 299 301 301 300 301 302 301 299 292 290 289 288 287 286 286 286 286 286 285 287 288 289 289 290
316 316 318 320 321 323 323 322 322 321 319 317 310 308 303 303 303 302 301 302 302 302 300 300 299 298 290 289 289 288 287 286 286 286 286 286 285 285 285 286 288 288 289
318 319 318 318 319 320 320 320 318 317 314 308 303 301 301 302 303 303 301 301 300 298 297 297 294 289 288 288 287 286 285 285 285 286 285 285 285 286 286 286 287 288 288
317 317 318 318 317 317 317 316 313 309 304 302 301 301 302 302 302 300 300 298 297 297 293 288 288 288 287 286 286 285 285 285 284 284 284 285 286 286 286 286 286 286 286
315 314 314 313 311 310 309 307 302 300 301 301 302 302 301 300 300 299 298 297 291 288 287 287 287 286 286 285 285 285 284 284 283 284 285 286 286 286 287 286 286 287 287
309 308 307 305 303 300 299 300 301 301 302 302 301 299 299 298 299 295 289 286 286 286 285 286 285 285 285 285 284 284 283 284 284 284 284 284 284 286 286 286 286 286 287
302 302 301 300 299 300 300 301 300 301 300 299 298 299 298 291 287 286 285 285 284 284 284 285 285 285 285 284 283 283 283 283 283 284 284 284 286 286 286 286 286 286 286
300 301 300 300 299 298 299 299 299 299 299 299 295 288 287 286 286 285 284 283 283 284 284 285 285 284 283 283 283 283 283 283 283 285 284 283 286 285 285 286 286 286 286
298 298 298 299 299 298 298 299 298 294 288 287 287 287 286 285 284 283 283 284 285 285 284 283 282 282 282 282 283 283 284 283 284 285 285 283 285 283 284 286 286 286 286
299 298 297 298 298 298 292 288 289 287 287 286 285 284 283 283 283 284 285 285 284 283 282 282 282 282 283 284 284 284 284 284 284 283 283 283 283 282 282 284 285 285 286

GFSMA_850_thetae_048.txt.gz
Theta_e
331 331 331 330 328 329 329 328 323 323 322 322 321 321 320 313 309 315 320 308 306 305 305 304 304 303 302 301 301 302 301 301 301 301 301 301 301 301 301 301 301 301 301
325 327 330 331 330 328 327 325 322 323 323 322 321 321 321 315 308 309 315 312 305 304 304 304 303 302 301 302 301 301 300 300 300 301 301 301 301 300 300 300 300 300 300
323 323 325 330 329 328 325 321 322 322 323 322 322 321 321 318 309 307 305 314 308 304 303 303 302 301 301 301 301 300 300 300 301 301 300 300 300 300 299 299 299 299 299
325 322 325 329 329 329 326 322 320 322 323 323 322 322 321 320 310 307 306 304 305 307 303 303 302 301 301 300 300 300 300 300 300 300 300 299 299 299 299 299 299 299 299
332 328 324 327 329 328 326 325 322 321 323 324 323 322 321 320 312 307 306 305 304 303 304 302 301 301 300 300 300 300 299 299 299 299 299 299 299 298 298 298 300 301 303
333 333 330 327 327 326 326 326 325 323 324 325 323 322 321 320 316 308 307 306 305 303 303 302 302 301 301 300 300 300 299 299 299 298 298 298 298 297 297 298 301 306 307
333 333 333 331 326 324 325 324 326 327 324 325 323 321 321 320 317 309 307 306 305 303 303 302 301 302 301 301 300 300 300 299 299 298 298 297 297 297 299 302 306 306 307
330 331 331 331 331 329 325 323 324 326 326 326 324 315 313 314 319 314 308 307 306 304 303 302 302 302 301 301 300 300 300 300 299 298 297 297 297 299 303 305 305 306 306
328 330 330 330 330 330 329 325 322 323 327 325 325 320 316 317 313 314 311 308 307 306 304 303 302 302 302 301 300 300 300 299 299 298 297 296 296 297 301 304 305 305 306
322 326 330 328 328 329 329 329 326 323 326 326 324 325 323 317 312 311 309 309 307 306 305 304 303 302 302 301 301 300 300 299 298 298 297 296 295 295 298 302 303 304 304
319 320 321 327 327 328 329 328 328 326 324 326 325 325 324 322 317 313 311 311 308 307 305 304 303 303 302 301 299 299 299 299 297 296 295 294 294 294 298 301 301 302 303
319 319 320 322 326 327 327 328 328 328 326 326 326 325 326 325 322 318 312 313 309 307 306 305 303 303 303 302 299 298 298 297 296 295 294 293 293 294 295 296 296 298 299
320 319 321 323 324 325 325 326 326 327 327 327 327 326 325 326 323 323 317 315 308 308 308 305 303 301 300 302 298 297 296 295 294 294 294 293 292 292 292 291 291 293 295
326 319 319 321 324 325 325 326 326 326 327 327 327 327 326 325 324 322 319 314 307 306 306 304 305 309 306 297 296 294 293 294 293 294 292 292 292 291 290 290 290 290 291
316 316 317 319 323 325 326 326 326 327 327 327 327 326 326 325 323 320 316 311 307 305 306 307 306 300 297 296 294 292 294 296 297 295 292 290 290 289 288 289 289 289 289
313 313 313 314 315 319 325 326 325 324 326 325 324 324 324 323 318 313 308 305 305 306 307 304 301 300 295 295 296 300 301 300 297 292 289 289 288 287 287 288 288 289 291
311 311 313 315 316 318 322 324 324 324 323 323 323 322 319 316 310 312 305 303 304 305 305 302 300 300 300 299 299 300 300 294 289 288 287 287 287 287 287 287 287 289 290
312 314 314 316 319 321 322 321 322 322 322 321 319 318 316 313 306 301 300 302 304 302 302 301 301 300 299 298 299 297 290 288 287 286 286 286 286 286 285 285 286 288 289
316 315 316 315 318 317 317 318 319 318 318 317 315 312 308 303 301 302 303 302 303 301 300 299 299 298 297 294 289 288 287 286 286 286 286 286 285 286 286 287 287 287 288
314 314 315 315 316 316 315 316 316 314 312 309 305 302 301 301 301 302 301 301 300 299 298 296 296 292 289 288 287 286 287 287 287 286 285 286 286 287 288 287 287 287 287
312 312 312 314 315 310 312 312 310 306 305 302 301 301 302 302 301 300 299 298 297 296 292 288 287 288 288 288 287 287 286 286 285 285 286 286 286 286 286 287 288 288 287
307 307 306 306 304 302 301 300 301 300 300 301 302 301 300 300 298 297 297 293 289 286 286 287 287 287 287 287 287 286 285 285 285 285 286 286 286 286 287 287 288 287 287
300 298 299 299 299 299 299 299 300 301 301 300 300 299 297 297 296 291 287 286 286 285 284 285 287 287 287 286 285 284 285 285 284 285 285 285 286 286 286 286 287 287 287
299 298 298 299 299 298 299 299 299 299 297 297 297 296 292 288 286 286 286 285 284 284 284 285 285 285 285 285 285 284 284 284 285 285 285 285 285 285 286 287 288 287 287
297 297 297 298 299 297 297 297 297 297 293 289 288 287 287 286 284 283 283 284 285 286 285 284 283 282 282 282 282 283 284 284 284 285 285 285 286 285 286 287 287 287 287
297 297 297 297 297 298 293 290 288 287 287 286 286 285 284 283 283 284 286 286 285 284 283 283 283 282 283 284 284 284 284 284 284 284 285 285 286 283 283 286 286 286 287

GFSMA_850_thetae_051.txt.gz
Theta_e
333 333 332 331 329 331 331 332 331 327 323 321 320 320 318 317 316 319 321 319 308 307 305 304 304 304 303 302 302 302 301 301 301 301 302 302 302 302 302 301 301 301 301
332 332 333 333 331 329 330 330 330 327 322 319 319 319 318 316 315 316 319 316 308 305 304 304 304 303 303 302 302 302 301 301 301 301 301 301 301 301 301 301 301 301 301
330 332 332 332 332 332 330 329 329 326 321 318 317 320 320 318 317 314 315 317 312 305 304 304 304 303 302 302 301 302 301 301 301 301 301 301 301 301 300 300 300 300 300
330 330 330 331 332 332 332 329 328 325 320 319 321 318 320 321 319 313 312 313 313 309 306 304 303 302 302 301 301 301 301 301 302 302 302 301 300 300 300 300 299 299 299
335 332 331 330 331 331 330 330 328 324 321 320 320 317 320 320 321 317 311 309 309 310 308 305 303 302 302 301 301 301 301 301 301 302 303 302 301 300 300 299 299 299 301
335 334 333 332 331 331 329 330 328 326 322 320 319 316 319 321 320 320 313 309 308 307 305 305 304 302 302 301 301 300 300 300 300 301 301 301 301 299 298 298 299 300 305
335 336 334 333 332 331 330 329 328 326 323 321 318 316 316 320 321 320 317 309 308 308 305 303 304 302 303 302 301 300 300 300 300 300 299 299 299 298 298 300 302 306 307
334 333 334 333 333 332 331 330 329 326 323 322 320 318 317 316 321 321 319 313 308 308 307 305 303 302 302 303 302 302 301 301 301 300 300 299 299 298 300 304 306 307 307
336 336 333 333 333 332 331 331 329 327 324 322 324 322 319 319 319 316 318 316 309 307 307 306 304 303 303 303 304 303 302 302 301 301 300 299 299 298 297 300 304 305 306
325 326 329 332 333 333 332 331 330 329 326 322 322 324 322 319 318 313 313 313 310 307 306 305 305 303 303 302 303 303 303 301 300 300 300 299 298 297 297 299 301 304 304
329 324 323 328 330 330 331 331 330 330 329 324 324 323 324 322 319 317 315 314 310 308 306 304 304 303 303 302 302 302 302 301 300 300 299 299 297 296 296 298 300 302 302
330 330 328 326 329 331 332 333 330 329 328 327 323 323 323 324 323 321 318 315 314 313 310 306 305 304 303 302 301 301 302 300 299 298 297 298 297 296 296 296 295 294 294
327 327 326 325 325 327 331 331 330 327 327 327 325 323 323 323 323 322 321 316 315 315 311 307 305 303 303 302 301 301 300 299 297 296 295 295 297 302 297 294 294 292 292
326 328 328 326 322 321 326 330 328 328 328 326 325 323 323 323 322 322 323 321 316 313 314 308 306 306 302 301 300 302 306 299 296 295 296 298 305 305 299 293 292 291 290
321 324 325 327 324 320 322 327 326 325 325 325 324 322 321 321 323 321 319 322 318 312 308 303 300 300 300 299 300 305 300 296 297 297 299 304 304 300 294 292 290 290 289
317 319 322 322 324 321 320 324 325 325 324 323 322 321 319 320 321 320 317 313 310 308 306 306 306 303 303 305 302 300 299 299 300 299 302 303 300 292 289 289 289 289 288
311 312 313 316 317 317 317 317 322 322 320 320 320 320 320 320 318 316 313 309 305 305 304 303 304 305 303 302 301 301 301 300 300 300 299 292 290 289 287 288 287 287 287
311 311 313 315 316 317 318 319 319 319 318 317 317 317 317 317 315 311 307 306 307 305 303 304 303 303 300 300 299 299 299 299 296 291 289 288 287 287 287 287 286 287 287
310 312 313 314 316 316 316 317 318 317 316 315 314 313 312 311 309 307 305 304 304 303 303 302 302 299 298 297 297 297 295 291 288 287 288 287 287 286 287 287 287 288 288
310 311 312 312 313 313 315 314 315 315 314 312 310 308 305 303 302 303 303 302 302 301 300 299 297 296 295 294 290 288 288 288 288 287 286 286 286 287 288 288 288 288 288
309 308 309 308 307 309 312 310 308 311 308 305 302 302 301 301 302 302 301 301 299 298 296 295 294 290 288 289 289 288 288 287 287 285 286 286 287 288 288 288 288 288 288
305 305 304 302 301 302 301 302 303 303 302 300 300 301 301 301 300 299 298 298 297 296 293 288 288 289 288 288 288 287 287 287 284 286 286 287 287 287 288 288 288 288 288
301 301 300 302 299 298 299 300 299 300 299 299 299 298 298 298 297 297 296 291 288 286 286 286 286 287 287 287 287 286 285 285 285 285 286 288 287 287 288 288 288 288 288
300 300 300 299 299 298 298 298 298 298 298 296 297 297 296 292 289 287 287 286 285 284 285 285 285 285 286 285 285 285 285 284 285 286 286 286 287 287 288 289 289 288 288
298 298 298 298 298 298 297 296 297 296 292 290 288 288 287 286 285 284 284 285 285 286 286 285 284 284 283 283 282 282 284 284 285 286 286 286 287 286 288 289 289 289 288
298 298 297 296 295 292 289 288 288 288 287 287 286 285 284 284 284 284 284 286 286 285 285 283 283 284 283 283 284 285 285 285 285 285 286 286 286 286 285 288 288 287 288

GFSMA_850_thetae_054.txt.gz
Theta_e
333 333 330 329 327 320 328 328 330 326 325 322 321 320 320 320 318 317 317 319 318 309 306 305 304 304 304 303 302 303 302 302 302 302 302 302 302 302 302 302 302 302 302
332 332 333 332 331 328 331 331 332 331 329 323 321 320 320 319 318 317 317 316 315 311 306 305 305 304 303 303 303 302 302 302 302 302 302 302 303 302 302 302 301 301 301
332 332 331 333 333 332 329 330 330 330 329 324 320 319 320 319 318 316 316 315 313 311 307 305 305 304 303 303 303 302 302 302 303 303 303 303 303 302 302 301 301 301 300
332 330 331 330 333 333 332 330 329 329 328 325 320 319 319 320 319 318 315 315 312 311 309 306 305 304 303 303 303 303 303 304 304 304 304 304 303 303 302 302 301 300 300
336 334 330 329 329 331 332 331 330 329 328 325 321 319 318 319 320 320 318 315 313 311 309 308 306 304 303 302 302 304 303 304 305 306 306 306 305 304 303 303 301 300 300
336 336 335 333 331 329 331 331 330 329 328 326 321 319 317 317 320 320 320 318 312 310 309 309 307 305 304 302 302 303 304 305 306 307 307 307 307 306 305 303 302 301 302
336 334 334 334 333 331 331 330 330 329 328 326 321 319 316 315 318 320 320 320 318 313 309 309 308 306 304 303 303 304 304 304 304 304 305 306 306 306 305 304 303 303 305
339 337 335 332 332 332 332 331 331 330 328 327 323 319 316 314 318 320 320 320 319 318 311 309 308 306 304 303 303 303 303 303 303 302 303 304 304 304 303 302 302 303 305
330 335 336 336 332 331 332 331 331 331 330 328 325 321 316 318 319 320 320 320 318 317 316 309 308 307 305 304 303 303 303 303 302 302 302 303 302 302 301 300 300 301 303
324 325 332 333 334 335 334 331 331 331 330 329 326 324 321 321 320 318 317 317 315 314 315 311 309 307 305 304 304 303 303 303 302 302 302 303 302 301 301 299 300 302 304
331 328 326 327 330 332 333 331 331 331 330 329 328 326 323 321 318 320 319 318 314 312 312 314 310 307 305 304 303 304 302 302 301 301 301 300 300 301 300 301 301 302 302
329 329 329 328 331 329 329 330 329 329 329 328 328 326 326 324 321 318 315 317 317 316 313 309 307 305 303 303 302 301 301 300 300 300 299 299 298 297 299 300 302 305 301
326 327 327 326 326 329 329 327 326 326 327 328 327 326 325 323 322 321 320 317 317 315 312 307 306 303 302 301 302 301 299 299 299 299 298 297 297 297 297 300 305 305 303
322 324 325 325 325 327 329 328 324 324 325 325 327 324 323 323 322 320 319 320 318 317 312 310 304 307 309 305 304 300 300 299 298 298 299 299 296 297 299 303 304 303 298
314 318 320 323 324 323 325 326 325 322 323 324 324 323 322 322 321 320 318 317 318 314 310 308 307 306 306 300 299 302 300 301 300 302 303 297 299 299 303 304 302 297 293
312 312 314 318 321 323 322 322 323 320 321 320 321 322 321 321 320 320 319 318 315 313 310 310 310 306 303 302 302 305 300 299 303 301 300 300 300 302 301 298 292 290 289
310 310 311 312 315 316 316 320 319 319 317 318 319 321 319 319 318 318 317 316 313 310 306 305 305 305 306 307 305 304 300 301 301 299 300 300 298 296 292 289 288 288 288
310 310 310 311 312 314 317 316 317 317 316 316 317 317 317 316 315 314 312 308 308 306 306 305 305 303 304 304 302 300 300 300 300 300 299 294 292 289 288 288 287 287 288
309 309 309 309 311 312 314 313 314 314 315 315 315 313 312 311 310 309 307 305 303 303 302 303 303 302 301 300 299 298 298 298 298 294 289 288 288 287 287 287 288 289 289
308 308 308 308 308 309 309 310 310 311 313 314 314 312 312 308 305 304 303 302 302 302 301 301 299 299 298 297 297 294 290 289 289 288 287 287 286 286 287 288 288 288 288
310 309 309 309 307 307 307 307 307 304 310 306 306 305 306 303 301 301 301 301 301 300 300 299 298 298 295 290 289 289 288 288 288 287 286 286 286 288 288 288 288 288 288
305 305 305 305 304 301 301 301 303 302 301 300 301 300 303 300 300 299 298 299 298 297 297 296 291 289 289 288 288 288 288 287 286 285 285 286 287 288 289 288 289 289 288
301 302 301 300 300 299 299 299 299 299 298 299 299 298 298 298 297 297 297 295 290 287 287 287 287 287 286 287 287 287 287 286 285 285 286 288 288 289 289 289 289 289 288
300 300 299 299 300 299 298 298 298 298 298 298 298 297 298 293 289 287 287 286 285 285 285 285 285 285 285 285 286 285 284 284 284 285 286 287 288 288 289 290 290 289 289
298 298 298 299 299 298 297 296 292 290 289 289 288 288 286 286 285 285 284 285 286 286 286 286 285 284 284 283 283 283 283 283 285 287 287 287 288 288 289 290 289 289 288
294 292 293 292 290 289 289 288 288 287 286 286 285 285 284 284 284 284 284 285 285 285 285 284 283 283 283 283 284 284 285 285 285 286 287 286 287 286 286 289 289 288 288

GFSMA_850_thetae_057.txt.gz
Theta_e
326 330 330 327 321 319 317 319 322 325 325 321 320 320 320 320 320 318 318 317 317 317 311 306 305 305 305 304 303 303 303 303 303 303 303 303 303 303 303 303 303 302 302
329 331 331 329 328 328 326 323 327 329 329 326 324 321 320 320 320 319 318 318 317 315 314 307 306 305 305 304 303 303 303 303 303 303 303 303 304 303 303 303 302 302 302
331 331 332 330 329 332 331 329 329 331 331 330 328 322 320 319 319 320 319 318 318 315 312 309 307 306 305 304 303 303 303 303 304 304 304 305 305 304 304 303 302 302 302
335 331 331 331 330 331 332 332 330 329 330 330 329 326 320 319 318 318 319 319 318 317 313 311 308 307 305 304 304 303 303 304 305 305 305 305 305 305 304 303 303 302 302
336 335 333 332 330 330 331 332 332 330 329 329 329 327 323 319 318 318 319 320 320 318 315 311 309 308 306 305 304 304 304 305 305 306 306 306 306 306 305 305 304 304 302
337 334 334 333 333 330 330 330 331 332 331 328 328 327 325 320 318 318 318 320 321 320 318 313 310 309 307 304 303 303 304 304 305 306 306 307 308 307 306 306 305 305 304
335 336 335 334 333 334 333 330 329 331 331 330 329 327 325 320 317 317 317 318 319 321 320 318 312 309 308 306 303 302 303 303 303 304 305 306 307 308 307 308 306 305 306
331 330 331 335 334 334 334 332 331 330 330 331 329 327 322 320 319 318 317 317 319 319 320 320 316 310 308 307 304 302 302 302 301 301 302 303 305 307 307 306 306 305 305
328 327 329 331 331 333 332 332 331 331 329 329 329 327 320 319 320 320 319 318 319 319 319 319 317 313 309 307 305 303 302 301 300 300 300 301 301 303 304 304 304 304 304
329 328 326 328 328 329 330 329 330 329 328 328 328 328 326 323 321 320 321 321 318 317 316 314 313 312 309 307 305 304 302 302 300 299 299 300 300 299 300 301 302 302 303
328 329 329 326 324 325 325 327 329 329 330 330 329 328 326 324 321 320 320 321 319 318 316 313 312 310 309 307 306 304 303 302 301 300 299 301 300 299 299 299 301 302 302
319 322 325 326 327 327 326 326 326 326 328 330 330 329 328 326 324 320 318 318 318 317 315 312 311 310 307 306 304 303 303 303 303 300 299 301 300 298 298 298 300 300 299
316 321 324 326 326 326 325 324 325 324 324 325 326 327 327 327 326 325 320 317 316 315 315 314 312 310 310 310 305 302 300 302 300 300 299 298 298 297 297 297 297 297 301
314 315 321 324 322 324 324 324 322 323 323 323 323 323 323 323 324 323 322 319 315 314 314 316 314 309 310 305 304 303 309 306 300 301 302 302 304 298 298 296 296 299 302
312 313 314 317 320 320 321 323 323 320 321 321 321 322 322 322 323 323 321 322 318 315 315 316 312 312 306 305 308 306 307 309 304 303 303 305 302 298 300 298 298 302 303
311 311 311 312 314 316 319 319 320 319 319 318 318 319 319 319 320 321 317 318 315 315 314 313 311 308 306 305 307 308 307 305 304 302 302 301 299 299 299 301 301 298 295
310 310 310 310 310 311 313 317 315 313 316 315 316 316 316 318 319 319 318 317 314 311 308 309 308 308 309 309 305 305 305 300 302 300 299 298 298 298 298 297 294 290 290
309 309 309 309 310 310 310 309 311 313 312 313 314 314 315 316 316 315 315 314 313 310 306 307 307 306 302 306 303 302 300 301 299 299 298 297 296 293 291 290 290 289 289
309 308 307 308 307 308 310 311 311 310 311 313 312 312 313 314 315 313 310 309 308 306 305 303 303 303 303 302 301 300 301 298 298 297 295 292 289 289 288 287 287 288 289
308 308 308 308 307 308 307 306 307 308 309 311 311 311 309 308 309 307 304 303 302 301 301 301 301 301 301 300 299 297 297 295 292 289 288 288 287 287 286 286 287 288 288
308 308 307 307 307 305 306 306 306 306 305 306 306 306 306 304 302 301 300 300 300 299 299 299 299 298 297 296 295 291 290 289 288 288 287 286 285 286 287 288 288 288 288
303 304 304 304 303 302 301 302 302 302 302 302 301 301 301 300 299 299 299 299 299 297 297 296 294 291 289 289 289 288 288 288 287 286 285 285 286 288 288 288 288 289 289
301 302 302 301 301 300 299 300 299 300 299 299 299 299 299 298 298 298 297 295 292 289 288 287 287 287 287 287 287 287 287 287 286 284 284 287 288 288 288 289 289 289 289
300 300 300 300 299 298 298 298 298 297 297 297 296 296 294 292 289 288 287 287 286 286 285 285 285 285 285 285 285 285 285 284 283 284 285 287 288 289 289 289 290 289 288
299 299 297 294 291 290 289 289 289 288 288 288 287 286 286 285 285 285 285 285 285 285 285 285 285 284 284 283 283 283 283 282 284 286 286 286 287 288 289 290 289 289 288
291 291 290 289 289 288 288 287 286 286 286 286 286 285 285 285 284 284 284 284 284 284 284 284 284 283 283 283 283 284 285 285 285 285 286 286 286 287 289 290 289 289 288

GFSMA_850_thetae_060.txt.gz
Theta_e
323 324 326 328 327 321 317 317 318 320 321 322 320 320 320 320 320 320 319 318 318 317 316 315 308 306 305 305 304 303 304 303 303 303 303 303 303 303 303 303 303 303 303
332 329 328 328 329 328 327 325 321 324 325 326 324 321 320 320 320 320 319 319 319 318 317 315 311 307 305 305 304 304 304 303 303 303 303 303 303 303 303 303 302 302 302
334 333 331 330 330 329 328 329 329 327 327 329 329 328 327 322 320 320 319 319 319 319 318 316 313 309 307 305 304 303 303 303 303 303 303 303 304 303 303 303 302 302 302
336 335 334 331 330 331 330 330 331 330 329 329 330 329 329 328 321 319 319 319 319 319 319 317 314 311 308 306 305 304 303 303 303 304 304 304 304 304 304 303 303 303 302
336 335 335 333 332 331 331 330 331 332 331 330 329 329 329 328 326 320 318 318 318 318 319 318 316 313 309 307 305 306 303 302 302 303 304 304 305 305 305 304 304 304 304
336 336 336 334 335 334 333 331 330 331 332 331 331 330 329 328 327 325 321 318 318 318 318 319 318 315 311 308 305 310 309 303 302 302 303 304 305 304 305 305 304 304 304
337 335 334 333 332 333 333 333 332 330 331 331 331 330 329 329 328 327 324 320 318 317 318 319 318 317 313 310 307 305 310 307 302 301 301 302 302 304 303 304 304 304 305
333 331 331 330 331 331 332 331 333 332 331 330 330 330 327 327 328 327 327 323 320 318 317 318 317 316 315 311 309 306 304 308 307 302 300 300 301 301 301 302 303 305 306
333 333 332 329 327 329 329 330 331 332 331 331 330 329 326 325 326 325 325 324 322 320 318 317 318 317 315 313 310 308 305 304 306 307 305 302 300 300 300 303 304 304 304
320 323 326 327 328 326 328 327 327 327 328 329 329 329 329 327 324 322 323 323 322 318 315 314 315 315 314 312 311 309 307 304 303 303 307 305 303 305 305 304 305 306 306
318 324 327 327 326 325 324 324 325 325 325 326 327 326 327 327 326 324 322 324 323 322 321 317 314 313 313 312 310 309 307 304 302 301 302 305 305 305 305 305 305 306 306
312 314 316 320 323 324 324 326 326 325 325 326 325 324 325 326 326 325 323 322 321 321 321 320 320 319 313 311 310 308 307 307 309 304 301 302 304 305 303 304 304 304 303
313 312 314 319 323 324 326 326 325 324 323 323 323 323 322 323 324 323 322 321 318 318 315 316 315 317 316 310 309 308 308 305 304 304 303 304 305 303 301 301 302 301 301
314 313 313 314 319 322 323 322 323 323 323 322 321 320 320 320 321 321 321 319 317 316 316 316 314 310 313 311 308 308 308 308 304 306 307 306 304 301 301 302 302 302 300
312 312 312 312 313 315 317 319 319 320 322 321 318 318 319 319 320 318 319 319 317 315 314 312 307 310 307 308 306 307 307 306 303 305 304 305 302 300 300 301 300 300 300
311 311 311 310 310 311 312 314 315 317 318 318 312 315 315 317 318 319 317 317 316 314 312 311 311 311 308 307 304 304 303 300 303 304 301 301 299 299 299 299 299 298 298
309 309 309 310 310 310 310 311 313 314 315 311 311 312 313 314 314 314 316 315 315 314 312 313 311 310 309 305 301 302 302 301 302 301 299 298 297 297 297 297 297 297 297
310 309 309 308 308 308 309 309 309 309 309 310 311 311 312 313 314 313 313 312 312 311 309 309 307 306 307 306 304 305 302 301 299 299 298 299 298 295 296 296 295 293 292
308 307 307 307 307 307 306 306 307 307 308 309 310 310 311 311 310 309 308 308 307 306 306 305 304 303 303 303 303 302 300 300 299 299 299 298 296 296 294 292 291 289 289
308 308 307 307 307 306 306 306 306 306 305 307 307 308 308 309 308 308 306 304 304 303 302 303 303 302 301 301 301 299 298 297 296 296 296 292 290 289 288 287 287 286 287
308 307 307 306 305 305 305 305 306 304 305 306 306 306 306 305 304 303 303 302 301 300 300 300 300 300 299 299 298 297 296 295 291 289 288 288 287 286 286 286 286 287 288
305 304 304 303 303 302 302 302 302 302 302 302 303 303 302 301 301 301 300 299 298 297 297 297 297 296 295 293 292 290 289 288 288 287 286 286 285 285 286 287 288 288 288
302 302 302 302 302 301 301 301 300 300 300 301 300 300 299 299 298 298 297 295 290 287 287 287 287 288 288 288 287 287 287 287 287 286 284 285 285 287 288 288 288 288 289
301 301 300 297 293 291 290 290 290 290 290 290 290 289 289 288 287 287 286 286 286 286 285 285 285 285 285 285 285 285 285 285 284 283 283 285 287 288 288 288 289 289 289
298 294 291 290 289 289 288 288 288 287 287 287 286 286 286 285 285 285 285 285 285 285 285 285 285 285 284 284 284 284 283 283 282 284 285 286 287 288 289 289 289 289 289
291 290 289 289 288 287 287 287 287 286 286 286 285 285 284 284 284 284 284 284 284 284 284 284 284 283 283 283 283 283 283 284 285 286 287 286 287 287 288 289 289 289 289

GFSMA_850_thetae_063.txt.gz
Theta_e
318 319 323 324 326 325 320 317 316 318 319 320 321 320 320 320 320 320 320 320 319 318 318 318 316 313 307 305 305 304 303 303 303 302 303 303 303 303 303 303 303 303 303
331 329 327 327 327 327 327 326 326 321 321 322 325 324 322 320 320 320 320 319 319 318 318 318 318 315 310 306 305 304 303 303 303 302 302 303 303 303 303 303 303 302 302
334 334 333 331 330 330 330 329 329 329 327 327 327 328 328 327 326 325 321 319 319 319 318 318 318 317 313 309 307 305 304 303 303 302 302 303 303 303 303 303 302 302 302
335 335 335 333 333 331 331 331 330 330 330 330 330 328 328 328 328 328 327 322 319 318 318 318 318 318 316 312 308 307 304 303 303 302 302 303 303 303 303 302 302 302 302
334 335 334 333 334 335 333 332 331 331 330 330 330 331 331 330 329 328 328 327 324 319 318 318 318 318 317 315 311 312 309 304 303 303 303 303 303 303 303 302 302 302 302
336 336 336 336 336 336 335 334 333 332 331 331 331 331 331 331 330 329 328 328 327 325 321 318 317 318 318 316 313 313 316 312 304 302 301 302 303 303 303 303 302 302 302
337 337 337 336 336 335 334 333 333 332 332 331 331 331 330 330 330 329 329 328 328 327 326 321 317 316 317 317 315 311 312 316 313 307 301 300 301 302 302 302 303 302 304
337 335 334 333 331 331 330 330 330 332 332 331 330 330 329 328 327 327 327 327 326 326 326 325 320 316 316 315 315 313 310 312 315 312 306 303 300 300 301 302 304 306 309
332 333 333 333 332 332 331 326 328 330 330 330 330 329 327 326 326 326 326 325 325 324 324 323 320 316 314 314 314 314 312 309 311 313 311 308 305 303 303 306 308 309 310
319 319 320 322 326 327 325 326 325 327 327 327 327 327 328 328 327 325 325 324 323 324 323 320 320 318 316 314 313 314 313 310 308 312 312 310 309 308 308 307 308 307 308
316 316 316 318 321 326 326 325 324 324 325 326 325 325 326 327 325 324 321 321 322 323 323 322 320 319 317 313 312 312 312 311 309 310 311 310 309 308 308 307 307 307 306
312 312 312 312 315 320 324 324 323 326 325 324 324 324 324 324 324 323 322 322 322 321 320 320 320 320 319 318 311 310 311 311 308 308 308 307 306 305 305 305 305 306 306
313 314 314 313 315 319 321 325 325 326 324 324 323 322 322 321 320 321 320 321 320 318 318 318 317 317 317 317 316 312 309 310 309 308 307 306 305 305 305 305 306 306 305
314 313 313 314 314 314 318 322 322 323 323 323 323 323 322 319 319 318 317 319 319 318 316 316 315 315 316 312 314 313 312 309 308 307 307 306 306 306 305 304 304 304 303
312 312 312 311 311 311 312 313 315 318 320 323 322 321 319 315 315 316 315 316 318 316 316 314 314 313 312 311 311 311 309 308 304 305 306 305 305 303 303 303 302 301 300
309 309 310 310 310 310 310 310 311 314 315 316 316 315 313 310 311 313 314 316 314 314 313 314 313 313 312 311 310 305 308 305 304 303 302 301 301 301 301 301 300 300 299
309 309 309 309 308 308 309 310 310 310 310 311 311 310 309 310 311 312 312 312 313 313 313 312 311 311 310 309 307 302 303 301 302 300 300 300 300 299 299 299 298 298 298
309 309 309 308 308 308 308 308 308 309 309 309 308 309 310 310 310 310 310 310 310 310 309 309 308 308 307 305 304 303 300 300 298 299 299 299 298 298 297 297 297 297 297
309 308 307 307 307 306 306 306 306 306 306 307 306 307 308 309 309 308 308 308 307 307 307 306 305 304 304 302 301 300 300 299 299 298 298 298 298 297 296 295 294 294 294
308 308 307 307 307 306 306 306 306 306 305 305 305 305 306 307 307 307 306 306 305 304 304 304 303 302 303 302 300 299 299 298 298 298 297 297 297 296 294 293 292 289 288
307 306 306 305 304 304 304 304 304 302 303 304 305 304 304 303 302 302 302 301 301 301 301 301 300 300 300 299 298 297 297 296 295 294 293 291 290 289 288 287 287 286 286
305 305 304 303 303 303 302 302 302 302 302 302 301 301 300 300 300 299 299 299 299 298 298 298 297 297 297 296 295 293 292 290 289 288 287 287 287 286 286 286 286 286 287
303 302 302 301 299 297 296 295 294 293 293 293 294 295 294 294 294 293 292 289 288 288 288 287 287 287 288 288 288 288 287 287 286 286 286 286 285 285 285 286 287 288 288
301 300 296 292 291 290 289 289 289 289 288 288 288 287 287 287 287 286 286 286 285 285 285 285 285 285 285 285 285 285 285 285 285 285 284 284 285 287 287 288 288 288 288
296 291 290 290 289 289 289 288 288 288 288 287 287 286 286 286 285 285 285 285 284 284 285 285 285 285 284 284 284 283 284 283 282 283 284 285 287 288 288 288 289 289 289
291 290 289 289 289 289 288 288 288 288 287 287 286 286 285 285 284 284 284 284 283 283 283 283 283 283 283 282 282 283 282 283 284 285 286 286 287 287 288 289 289 288 288

GFSMA_850_thetae_066.txt.gz
Theta_e
323 316 318 320 322 325 324 321 318 316 317 319 320 321 320 320 320 320 319 320 319 319 319 318 318 319 317 312 306 305 304 304 304 303 303 303 303 303 303 303 303 303 303
327 327 326 325 326 327 328 328 327 326 325 322 323 323 325 324 322 321 322 321 320 319 319 318 318 319 319 316 311 307 305 304 303 303 303 303 303 303 303 303 303 303 303
333 333 333 333 331 330 330 330 330 329 328 328 328 328 327 327 328 327 327 327 326 322 319 318 318 318 318 318 316 311 307 304 303 303 303 303 303 303 303 303 303 303 302
334 334 334 334 334 333 333 331 331 331 330 330 330 329 330 330 329 329 328 328 327 327 324 320 318 317 317 318 317 316 313 308 304 303 302 302 302 302 303 302 302 302 302
333 334 334 334 335 335 335 335 335 333 332 332 331 331 330 330 330 330 330 329 329 328 327 325 321 317 317 316 317 317 319 316 309 304 302 302 301 301 302 302 302 302 302
334 335 335 335 336 336 336 336 335 334 333 332 331 331 331 331 330 330 330 329 329 328 328 327 325 323 317 316 316 316 317 320 317 311 304 302 301 301 301 301 302 302 302
336 336 336 336 335 336 335 334 333 332 331 332 332 331 329 330 330 329 328 327 328 328 327 327 325 323 321 316 315 315 315 316 317 317 313 303 301 301 301 302 304 304 304
337 336 337 336 335 335 332 332 332 332 329 328 331 330 328 327 326 325 325 325 326 326 325 325 324 321 319 318 315 314 315 315 316 317 316 311 308 304 303 305 308 309 309
335 335 334 333 333 334 334 333 332 331 327 326 329 329 327 326 325 324 324 324 325 324 324 323 322 321 319 318 315 314 314 314 314 317 317 313 310 309 309 309 309 309 311
318 319 319 320 320 320 323 328 329 327 327 325 325 326 326 328 326 324 323 322 322 321 321 322 323 321 322 320 320 317 313 314 314 313 314 316 312 309 309 309 309 310 310
314 314 315 315 315 316 319 322 325 328 326 325 326 327 325 325 323 324 323 322 321 319 320 321 320 320 320 319 319 320 316 312 313 313 313 314 314 311 310 309 310 309 307
313 312 312 312 311 311 312 316 321 326 326 325 326 324 323 323 322 322 321 321 319 319 317 317 317 317 317 316 317 317 317 312 311 313 313 310 313 313 309 309 307 306 307
313 313 313 313 313 313 313 314 318 320 325 325 325 323 322 323 324 322 319 317 317 317 318 315 315 314 315 314 315 314 312 312 311 312 312 311 311 308 307 308 307 306 307
313 313 313 313 313 313 313 314 318 323 324 325 323 323 322 321 321 320 320 319 317 316 314 315 315 313 314 313 311 312 311 311 310 309 311 310 309 307 307 305 306 306 306
311 311 311 311 311 311 310 311 312 315 320 320 319 318 317 317 317 317 313 312 315 315 314 313 314 313 313 313 312 312 311 310 308 307 308 309 306 306 306 306 305 304 304
308 308 308 308 308 308 309 310 310 312 314 315 315 316 316 314 311 310 310 311 312 313 311 312 312 311 311 311 312 311 310 309 306 305 305 304 305 306 305 303 302 303 302
308 308 308 309 309 308 308 308 309 309 309 310 310 310 309 309 310 310 310 310 311 311 311 311 310 309 308 308 308 308 307 307 304 302 305 303 301 301 302 301 300 300 299
308 308 309 308 308 307 307 307 307 307 308 308 308 308 308 308 309 308 309 308 308 308 308 308 308 308 308 307 307 305 304 305 302 302 301 301 300 300 300 299 298 298 298
308 308 308 307 307 306 306 306 305 306 305 305 305 306 306 306 307 308 308 307 307 307 307 306 306 306 305 304 304 304 303 303 302 300 300 299 299 298 298 297 297 297 296
307 307 307 307 306 306 306 306 305 303 303 304 304 304 303 304 306 306 305 304 304 304 304 303 302 302 301 301 301 300 300 299 299 299 299 299 298 298 297 297 297 296 296
306 306 305 305 304 304 304 303 303 302 303 303 302 303 303 303 302 302 302 301 301 301 301 300 300 299 299 298 297 297 297 297 296 296 295 295 294 293 291 291 290 289 288
304 304 303 302 302 302 301 301 301 301 300 300 300 300 299 299 298 297 297 297 296 296 295 294 294 294 292 292 291 291 290 289 289 289 289 288 287 287 286 286 286 286 285
302 301 301 299 297 294 291 290 290 289 289 289 289 289 289 288 288 288 287 287 287 287 287 287 287 286 286 286 286 286 286 286 286 285 285 286 285 285 285 285 285 286 287
300 299 294 291 290 290 289 289 289 289 289 288 288 288 287 287 287 287 286 286 286 286 286 285 285 285 285 285 285 285 285 285 284 284 283 283 284 285 286 287 288 288 288
296 291 290 290 289 289 289 289 289 288 288 288 287 287 287 286 286 286 286 285 285 284 284 284 284 284 284 284 284 283 283 283 283 283 284 285 286 287 288 288 288 288 288
291 290 289 289 289 289 289 288 288 288 288 287 287 286 286 285 285 284 285 284 284 284 283 283 283 283 283 282 282 283 283 283 284 286 286 286 286 287 288 288 288 288 288

GFSMA_850_thetae_069.txt.gz
Theta_e
321 323 316 318 318 321 325 324 322 319 318 318 318 319 320 321 322 321 320 320 320 320 319 319 318 319 319 319 318 312 307 305 304 303 303 302 303 303 304 304 304 304 304
325 327 323 323 324 326 328 328 328 327 327 327 326 326 326 326 326 326 326 325 326 326 323 319 318 318 318 318 319 318 313 307 304 303 303 303 303 303 304 304 304 303 303
333 333 333 333 332 331 330 329 330 330 329 330 329 329 329 329 329 328 328 328 328 327 327 325 320 318 317 317 318 318 318 314 307 304 303 303 303 303 303 303 303 303 303
332 333 334 334 335 334 334 333 333 332 332 332 331 331 331 330 330 330 330 330 330 329 328 327 326 322 318 317 317 318 321 319 317 309 304 303 303 303 303 303 303 303 303
333 333 333 334 334 335 335 335 334 335 334 334 333 332 331 331 331 330 330 330 330 330 329 328 327 325 321 317 316 319 322 321 319 318 312 305 303 302 302 303 303 303 303
336 335 334 334 335 335 335 335 335 335 334 333 331 330 330 330 330 329 329 329 329 328 328 328 328 326 324 321 319 316 318 319 319 318 317 313 306 303 302 303 303 303 303
336 336 335 335 336 335 335 334 333 332 331 330 331 329 326 325 326 327 326 325 325 325 326 326 326 326 324 321 319 318 316 317 317 318 318 317 316 307 304 304 306 305 305
335 334 334 334 334 335 334 334 334 333 333 332 332 328 328 326 325 325 325 325 324 323 324 324 324 324 323 321 320 318 317 315 316 318 319 319 317 315 308 309 310 310 311
332 332 332 333 333 332 330 330 332 333 333 332 328 326 327 325 324 324 323 322 322 322 322 321 320 321 322 322 321 320 318 316 315 316 318 319 316 315 314 309 309 311 311
321 320 320 319 319 320 320 320 322 327 331 330 328 326 325 327 325 323 323 322 322 320 320 320 320 321 321 320 320 319 316 314 314 315 316 316 317 315 312 311 309 310 311
314 314 314 314 314 314 314 314 315 319 325 328 329 326 325 327 325 324 322 321 319 319 317 318 318 317 317 317 317 317 317 318 316 313 315 316 315 316 313 312 309 307 308
313 312 312 312 312 312 312 312 312 313 317 326 328 326 325 327 322 321 320 318 318 317 316 315 316 316 315 314 315 315 316 316 316 316 315 315 316 315 314 313 313 309 308
312 312 312 313 313 312 313 313 313 314 316 319 323 325 325 325 320 319 319 318 317 316 315 314 315 315 314 313 313 312 312 312 312 311 313 314 315 315 313 314 312 310 310
312 312 312 312 312 312 312 312 313 313 318 326 326 326 323 320 318 317 316 317 316 315 313 312 314 313 313 313 313 313 312 312 312 310 310 311 313 316 313 312 311 310 308
310 310 310 310 310 310 310 310 310 311 313 319 319 320 318 317 316 316 315 315 311 311 312 313 312 311 311 311 312 311 312 311 310 310 308 309 311 312 311 310 308 307 305
308 308 308 308 308 308 308 308 309 310 310 313 315 314 313 314 314 314 311 309 310 310 311 311 311 310 309 308 307 309 310 309 308 307 306 307 308 307 306 307 308 307 305
307 307 308 308 308 308 308 308 308 308 309 310 311 311 311 310 309 309 309 309 309 309 310 310 309 308 307 307 307 308 307 306 306 304 304 305 305 305 306 306 305 304 303
307 308 308 309 308 308 307 307 307 307 307 307 308 308 308 308 308 308 308 308 308 308 307 307 307 306 306 306 306 306 306 305 304 303 303 305 305 303 302 303 303 303 302
307 307 308 308 307 307 307 306 305 305 305 304 305 305 305 305 306 307 307 307 307 306 306 306 306 305 304 304 304 304 304 304 303 302 302 302 301 301 300 300 300 299 299
306 307 307 307 307 306 305 306 304 303 303 303 304 304 304 304 305 306 305 304 304 304 303 303 303 302 302 301 300 300 300 301 301 301 301 300 300 300 299 298 298 298 298
306 306 306 305 304 304 304 304 303 302 303 303 303 302 303 303 303 302 302 301 301 301 300 300 300 299 299 298 297 296 296 296 297 297 298 298 298 297 296 296 296 296 295
304 304 304 303 302 302 302 302 301 301 300 299 297 295 292 291 290 289 289 289 289 289 288 289 289 288 288 288 288 288 288 288 288 288 288 289 288 288 288 288 288 287 287
302 302 301 301 300 296 291 290 290 290 290 289 289 289 289 289 288 288 288 287 287 287 287 287 286 286 286 286 286 286 286 286 286 286 286 286 286 285 286 286 286 286 285
300 299 293 290 290 289 289 289 289 290 289 289 289 288 288 288 288 288 287 287 286 286 286 285 285 285 285 285 285 285 284 284 284 284 284 284 284 285 286 287 287 287 287
298 292 290 289 289 289 289 289 290 289 289 289 288 288 287 287 287 287 286 286 285 285 285 284 284 284 284 284 284 284 283 283 283 283 285 285 286 287 287 288 288 288 288
291 289 288 288 289 289 289 289 289 289 289 288 288 288 287 286 286 285 285 285 285 285 284 284 283 283 283 283 283 283 283 283 284 285 285 285 286 286 287 287 287 287 288

GFSMA_850_thetae_072.txt.gz
Theta_e
321 323 321 315 316 317 321 325 324 323 320 320 320 320 321 323 323 325 324 324 322 324 324 322 319 319 319 318 318 319 317 309 305 304 304 303 303 303 303 304 304 305 304
326 324 324 319 322 324 326 328 329 329 328 328 328 328 328 328 328 328 328 327 327 327 327 326 324 321 322 322 318 318 318 319 312 306 304 303 303 303 304 304 304 304 304
332 332 332 332 332 332 331 330 329 329 329 330 330 330 330 330 329 329 329 329 329 329 329 328 327 326 322 321 324 323 320 318 319 315 306 304 303 303 303 304 304 304 304
331 332 333 334 334 334 334 334 333 333 333 333 333 333 332 331 331 331 330 330 330 329 330 329 329 328 326 322 323 322 323 323 320 319 318 308 304 303 303 303 303 303 303
334 333 332 332 333 334 334 335 335 335 335 334 333 333 332 331 330 330 329 330 329 329 329 329 329 329 328 325 322 322 322 322 321 320 318 318 314 305 303 303 303 303 304
336 335 335 334 334 334 334 335 335 334 333 334 333 332 330 329 328 326 324 327 328 326 326 326 326 327 328 327 324 322 321 321 320 319 319 318 318 317 307 303 304 304 304
337 336 336 335 335 335 336 335 335 335 334 334 332 332 331 328 326 324 326 326 325 325 324 324 325 325 325 325 324 323 321 319 320 320 320 319 319 318 317 311 305 308 310
335 335 335 334 334 334 334 334 335 334 334 334 333 331 330 326 325 325 325 325 324 323 323 323 322 322 322 322 322 321 320 317 318 318 319 320 320 319 319 317 311 310 311
330 329 329 330 331 333 332 333 332 334 333 330 330 330 329 325 324 325 324 323 323 323 322 321 321 321 321 321 321 321 320 317 318 318 318 320 321 320 317 316 315 312 309
320 321 322 322 322 322 320 320 320 319 320 326 326 328 329 327 326 324 323 323 323 321 321 320 318 318 319 320 319 319 319 319 316 316 318 318 319 322 320 316 314 312 312
314 314 315 315 315 314 314 313 313 313 314 317 325 325 326 327 325 323 323 322 320 319 319 318 317 316 316 317 316 315 315 316 317 318 318 317 317 319 318 316 312 313 312
313 313 313 313 312 312 312 312 312 312 312 313 319 322 324 325 324 323 322 320 318 317 317 316 317 313 315 315 314 313 313 314 315 315 315 316 316 318 319 319 315 314 313
312 312 312 312 312 312 312 313 313 313 313 316 321 320 322 323 323 322 321 319 318 317 316 315 314 313 314 314 313 313 313 312 312 312 312 312 312 315 316 315 317 313 312
312 312 312 312 312 311 311 312 312 312 313 315 321 321 322 322 321 320 318 316 315 314 314 315 312 312 312 312 313 312 312 312 312 311 311 311 311 311 313 314 316 314 313
310 310 310 310 309 309 309 309 310 310 311 314 317 318 320 319 318 317 315 315 314 314 313 312 312 312 311 310 310 310 310 311 311 311 310 309 310 309 312 314 311 314 312
309 308 308 308 308 308 308 308 308 308 310 312 312 315 316 316 316 314 313 313 311 310 310 311 311 310 310 309 308 308 309 309 309 308 308 308 307 308 310 311 310 309 309
308 307 307 307 308 308 308 308 308 308 308 309 310 312 312 312 312 311 310 309 309 309 309 310 309 309 308 307 306 307 307 306 306 307 306 306 305 305 306 307 307 307 307
307 307 307 308 308 308 308 307 307 307 307 308 308 308 309 309 309 308 308 308 308 308 307 307 307 306 306 305 304 305 305 305 305 305 305 304 305 304 304 305 305 305 304
307 307 307 308 308 308 308 307 306 306 306 306 306 306 306 305 306 306 307 306 307 307 306 306 306 305 304 304 303 303 303 303 303 304 304 303 303 304 303 303 302 303 304
306 306 307 307 307 307 306 306 305 305 304 304 304 304 305 305 305 305 306 305 305 304 304 303 303 302 301 301 300 300 299 300 300 301 301 301 302 302 301 301 301 301 300
306 306 306 306 305 304 305 304 303 302 303 303 303 303 303 304 303 303 303 302 301 300 300 299 298 297 296 294 293 292 291 291 292 294 296 297 298 298 298 299 299 299 298
303 304 304 303 303 303 304 303 303 303 302 301 301 298 293 291 290 290 290 289 289 289 288 288 288 288 288 287 287 287 287 287 289 288 287 288 288 288 288 289 289 290 290
301 302 302 302 302 302 301 298 294 292 291 290 290 289 289 289 289 289 289 288 288 288 287 287 287 287 286 286 286 286 286 286 286 286 285 286 286 285 286 286 286 286 286
301 301 300 300 295 291 290 289 289 290 290 290 290 290 289 289 289 288 287 287 287 286 286 286 286 286 286 285 285 285 285 284 285 285 284 285 285 286 287 287 287 287 287
300 298 291 290 289 289 289 289 289 290 290 290 289 289 289 289 289 288 287 286 286 286 286 285 285 285 284 284 284 284 284 284 285 285 285 286 287 287 288 288 288 288 288
297 292 290 289 289 289 289 289 289 289 289 289 290 289 289 288 287 287 286 286 286 285 285 285 284 284 284 284 283 283 283 283 284 286 286 286 286 286 287 288 288 288 288

GFSMA_850_thetae_075.txt.gz
Theta_e
331 330 328 326 326 324 327 330 330 329 328 327 328 328 328 327 327 326 326 326 326 325 326 326 325 324 323 321 319 318 318 319 317 309 306 304 304 304 304 304 304 305 305
331 326 329 323 322 323 329 331 332 332 332 332 331 331 331 330 330 330 328 328 328 328 328 328 327 327 325 325 327 324 321 318 318 318 311 305 304 304 304 304 304 305 305
331 330 330 333 330 331 331 331 331 331 332 332 332 333 332 332 332 332 331 330 329 328 329 329 329 329 328 327 324 325 324 324 322 318 319 313 306 304 304 304 304 304 305
330 331 332 333 335 334 333 334 334 334 334 334 334 334 334 333 332 332 332 332 331 329 329 328 329 329 329 328 327 325 326 325 323 322 320 319 318 310 304 304 304 304 304
336 333 333 333 334 335 335 335 335 335 335 335 334 334 333 333 333 332 332 331 331 331 329 328 328 327 328 329 328 326 324 324 324 323 322 320 319 318 316 305 304 304 304
339 336 336 335 336 335 335 335 335 336 335 334 333 333 332 332 332 332 329 329 328 329 329 326 325 325 325 326 327 326 324 323 323 323 323 321 320 319 318 317 308 304 304
337 338 336 336 336 335 335 335 334 334 334 333 333 331 330 332 331 329 328 327 327 327 326 324 323 323 322 323 323 323 324 323 322 323 323 322 321 320 319 319 318 313 311
337 336 336 336 336 336 336 335 335 335 336 335 331 329 329 326 326 326 326 325 325 325 323 322 322 321 321 321 321 321 322 321 321 321 321 322 322 321 320 319 318 318 315
330 332 332 331 331 333 336 335 335 334 331 330 329 328 327 326 326 325 325 325 324 323 322 322 321 320 319 319 320 320 321 321 320 320 319 320 321 321 322 321 319 318 317
320 319 319 320 320 321 322 321 320 320 325 325 323 323 325 323 326 324 324 323 323 321 322 321 319 318 316 316 318 318 317 318 318 319 319 318 318 320 320 321 321 318 315
315 315 314 314 314 314 314 314 314 313 312 313 317 322 322 322 322 323 325 322 320 321 320 318 318 317 316 314 315 316 315 313 314 314 315 318 318 318 319 319 321 319 315
313 313 312 312 313 313 312 312 312 312 312 313 313 319 323 325 323 325 323 323 321 320 318 317 316 316 315 313 314 314 314 313 313 313 314 314 315 316 317 318 319 319 316
312 312 312 312 312 312 312 312 312 313 313 313 314 321 320 320 321 321 322 322 321 318 317 315 315 315 314 312 313 313 313 312 312 313 312 312 312 312 312 312 316 318 315
312 312 312 312 312 311 311 311 311 311 312 312 313 316 319 319 319 320 322 320 318 316 315 313 314 313 312 312 311 310 310 310 311 312 311 311 311 311 311 310 311 314 315
311 311 310 310 310 309 309 309 309 309 310 311 312 315 318 319 318 320 319 316 316 315 313 313 312 311 311 311 309 309 308 309 310 310 310 310 310 310 309 311 312 313 314
309 309 309 309 308 308 308 308 308 308 308 309 311 314 315 315 315 315 316 315 313 312 312 311 310 310 310 309 308 307 307 308 308 308 308 308 308 308 308 312 310 313 312
309 309 308 308 307 307 308 308 308 308 308 308 309 310 311 313 312 312 312 312 310 309 309 309 309 309 308 307 306 305 305 307 306 306 306 307 307 306 306 307 308 308 309
309 308 308 307 307 308 308 308 308 307 307 307 308 308 309 309 309 309 309 308 308 308 308 307 307 307 307 306 305 304 305 305 305 305 305 305 305 304 305 304 305 306 306
308 308 307 307 307 307 307 307 307 306 306 306 306 306 307 306 306 307 307 307 307 307 306 306 306 306 305 305 304 304 303 303 303 303 303 304 304 304 304 305 304 304 304
307 306 306 306 307 307 306 306 305 305 305 304 304 304 305 305 305 306 306 306 305 304 304 303 303 302 302 301 301 300 298 298 298 298 300 300 301 301 302 302 302 301 301
306 306 306 306 306 305 305 305 303 303 304 304 304 303 303 304 304 304 304 303 302 301 300 299 297 294 293 292 290 290 290 290 289 289 290 291 292 295 297 298 299 299 299
305 304 304 305 304 304 304 304 303 303 303 302 302 300 296 293 292 291 290 290 290 290 289 289 288 289 289 288 288 288 287 287 289 289 289 287 287 288 287 288 289 290 291
301 301 303 303 302 302 302 301 301 300 297 294 291 290 290 290 290 290 290 289 289 289 289 288 288 288 287 287 287 286 286 286 286 286 286 286 286 286 286 286 287 287 287
301 300 301 300 301 301 298 293 290 290 290 290 290 290 290 290 290 289 289 289 288 288 288 287 287 287 286 286 286 286 285 285 285 286 285 285 286 286 287 287 288 288 288
300 300 300 299 294 290 289 290 289 289 290 290 290 290 290 289 289 288 288 288 287 288 287 287 286 286 286 285 285 284 284 285 285 286 286 286 287 288 288 288 288 289 288
299 299 295 291 289 289 289 289 290 290 289 290 290 290 289 289 288 288 288 287 286 287 286 286 285 286 285 285 284 284 284 284 284 286 288 286 287 287 288 288 288 288 288

GFSMA_850_thetae_078.txt.gz
Theta_e
330 326 325 324 321 320 321 324 326 326 328 328 327 327 328 328 328 328 327 327 327 327 327 327 327 327 326 326 326 324 320 318 318 319 315 309 306 304 304 304 304 305 305
330 328 326 324 321 319 322 325 328 331 330 331 331 331 330 330 330 330 330 329 328 327 328 328 329 329 328 327 328 327 326 325 324 319 319 318 310 305 304 304 304 304 305
329 328 325 329 328 329 330 330 330 330 330 330 330 331 332 332 331 331 331 331 331 330 329 328 329 329 329 329 328 327 327 326 325 324 323 319 319 317 306 304 304 304 304
329 330 331 332 333 334 333 333 333 333 333 333 333 333 333 333 333 333 332 332 332 332 331 328 326 328 328 328 329 328 327 326 325 324 324 322 321 318 318 311 304 304 304
334 333 332 332 333 334 334 334 333 333 334 334 333 333 332 333 332 331 332 332 332 331 330 328 329 325 325 325 326 328 327 326 325 324 324 323 322 320 319 318 314 305 304
338 338 335 336 335 335 335 334 334 334 333 333 333 333 333 332 330 330 330 327 326 327 326 327 327 324 323 324 323 324 325 325 325 324 324 324 323 322 320 319 318 317 309
337 337 337 338 336 337 336 335 335 334 334 334 333 332 330 328 326 326 326 329 326 326 326 325 324 322 322 322 322 322 322 323 324 324 323 324 324 323 322 321 320 319 318
336 336 336 336 335 335 335 333 333 332 331 332 330 328 328 327 324 325 325 329 326 325 324 324 321 322 321 320 320 319 320 320 321 321 321 323 322 323 323 322 321 320 318
331 332 332 332 333 336 337 334 333 330 330 329 329 328 328 326 326 325 325 325 325 323 323 321 320 319 318 317 316 317 318 319 320 320 320 319 318 319 321 321 322 322 319
323 321 320 318 318 317 317 318 318 319 320 320 321 324 324 324 326 325 321 323 324 322 321 321 319 319 318 317 315 313 315 316 315 314 314 317 318 318 319 320 320 322 321
316 315 315 314 313 313 313 313 313 313 313 313 313 313 322 324 321 323 323 321 322 322 320 321 319 318 317 316 315 313 314 314 313 313 312 314 314 315 317 318 319 319 321
314 314 313 312 312 312 312 312 312 312 312 312 312 314 320 320 321 322 321 321 323 322 321 320 317 316 315 314 314 312 313 313 313 312 312 312 312 312 313 313 313 317 317
313 312 311 311 311 311 312 312 312 312 312 313 313 318 318 318 319 319 321 318 322 321 320 317 316 314 314 314 312 312 311 311 310 310 311 311 311 311 311 311 311 311 315
312 311 312 312 311 311 311 310 310 310 310 311 311 312 313 318 321 319 320 318 320 319 317 314 313 312 312 311 311 310 309 309 308 309 310 310 310 310 310 310 311 312 311
311 311 311 310 310 309 309 309 308 308 308 308 309 311 312 315 316 316 318 318 319 316 315 314 313 312 312 310 309 308 307 307 307 308 308 309 309 309 308 309 311 312 312
311 310 310 309 309 308 308 307 307 307 307 308 308 310 311 313 314 316 316 314 314 314 313 312 312 311 310 309 308 306 306 305 306 306 307 307 308 308 308 309 311 311 313
311 311 310 309 309 308 308 307 308 308 308 308 308 309 310 310 310 311 312 313 313 312 311 310 309 308 308 307 306 306 305 305 305 306 306 305 306 307 307 306 308 310 311
310 309 309 309 309 308 307 308 308 307 307 307 307 307 308 308 309 309 309 309 309 308 308 307 307 307 306 306 306 305 304 303 304 304 304 304 304 303 304 305 305 305 306
309 308 308 308 308 307 307 307 307 307 307 306 306 306 306 307 307 307 307 307 307 307 306 306 306 306 306 305 304 303 302 302 301 301 302 302 302 303 303 304 304 304 304
308 307 307 307 307 306 307 307 306 306 305 305 305 304 305 305 305 305 305 306 306 306 305 304 304 304 302 300 299 298 296 295 293 292 292 294 297 299 300 301 302 303 303
307 306 306 306 305 306 306 305 303 302 303 304 304 304 302 303 303 304 305 304 304 302 301 300 298 295 292 291 290 290 289 289 288 289 289 289 289 289 290 293 297 299 300
306 305 304 304 304 305 304 303 301 301 303 302 302 301 300 299 295 295 293 291 290 290 290 289 289 289 289 290 289 288 288 288 288 289 288 287 287 287 287 287 288 288 288
305 303 301 301 304 303 302 300 301 302 302 300 297 292 290 290 290 291 291 290 290 290 289 288 289 289 288 288 288 287 287 287 286 286 287 286 287 287 287 287 287 287 287
301 300 300 301 302 301 301 300 299 295 292 290 289 290 291 291 291 290 290 290 289 289 288 288 288 287 287 287 286 286 286 286 286 287 286 286 287 287 288 288 289 289 288
301 300 300 300 300 300 296 291 289 289 289 289 289 289 290 291 290 289 289 289 289 288 288 287 287 286 286 286 285 286 286 285 285 286 287 287 288 288 289 289 289 289 289
301 300 299 299 297 290 289 288 288 289 290 290 290 289 290 290 289 289 289 289 288 288 288 287 287 286 286 285 285 286 285 285 285 286 288 288 288 288 288 289 289 288 288

GFSMA_850_thetae_081.txt.gz
Theta_e
326 324 323 322 321 319 319 320 323 325 326 327 327 327 328 327 327 328 328 328 328 328 327 327 328 328 327 328 328 327 326 325 323 320 318 318 313 307 305 305 305 305 305
329 327 325 324 323 320 320 323 325 328 329 329 330 330 329 329 329 330 330 330 330 330 330 330 329 328 328 328 328 328 327 327 326 325 323 321 318 317 309 305 304 304 305
330 327 326 325 326 325 327 329 330 330 330 330 330 330 331 332 332 332 332 332 331 331 331 330 329 326 327 328 327 328 328 327 327 326 324 323 322 319 318 312 305 304 304
328 329 329 329 331 332 332 332 332 332 332 332 332 332 332 332 331 332 333 333 332 331 330 329 329 327 326 325 325 325 327 328 327 326 325 324 323 322 320 318 314 306 304
331 331 330 331 331 333 333 333 333 333 333 332 332 331 331 331 331 332 331 330 331 330 329 326 325 326 326 324 324 324 324 326 326 326 326 325 324 323 322 320 319 317 309
336 335 335 334 334 335 334 334 334 333 333 332 332 331 332 332 330 328 325 325 328 327 325 325 324 325 324 322 322 322 321 323 323 323 325 325 324 324 323 322 320 319 319
338 336 335 335 335 334 335 334 333 334 333 332 332 330 329 328 327 325 323 324 328 328 325 326 322 323 321 321 321 320 320 320 321 322 322 323 324 324 324 322 321 321 319
336 336 336 336 337 337 334 333 332 331 331 329 328 327 326 326 325 323 324 325 326 326 324 323 323 320 320 319 317 316 316 317 319 319 320 321 320 322 322 323 323 321 320
336 333 330 328 326 330 333 332 331 328 328 327 326 327 327 325 325 323 325 326 325 324 323 323 321 319 318 318 318 317 315 313 315 317 317 318 319 318 318 319 321 322 321
332 330 328 326 321 318 316 316 317 318 317 316 317 318 325 326 324 323 322 322 324 323 323 322 321 320 319 317 317 315 314 312 314 315 314 313 312 314 317 319 319 320 320
325 318 316 315 314 314 313 313 312 312 313 313 313 312 313 314 318 321 322 320 321 322 322 322 321 320 317 316 315 314 314 312 313 313 313 312 312 312 313 314 316 317 318
315 315 314 313 313 312 312 312 312 312 312 312 312 312 312 313 317 320 322 321 320 321 322 321 320 319 316 315 314 313 312 311 311 311 312 311 311 312 312 311 311 312 312
314 314 313 312 311 311 311 311 311 312 312 312 312 312 313 317 317 317 319 319 320 319 320 320 319 316 314 312 312 311 311 309 309 308 310 310 310 311 310 310 310 310 310
313 313 312 311 311 311 311 311 310 310 310 310 310 310 311 315 316 316 317 319 318 318 319 318 317 314 312 310 311 310 308 307 307 307 308 309 309 309 309 309 309 310 311
312 311 311 311 311 310 310 309 309 309 308 308 308 308 309 311 312 315 314 315 317 317 318 316 314 314 312 311 310 309 307 306 306 306 307 307 307 307 307 308 309 311 311
311 311 311 311 311 310 309 309 308 308 307 307 307 307 308 311 312 313 314 316 316 317 315 313 313 312 311 310 309 307 306 305 305 305 306 306 305 307 307 307 309 310 312
312 312 311 311 310 310 309 308 308 307 307 308 308 308 308 309 308 311 312 312 313 313 312 312 310 309 308 308 307 306 305 304 305 305 305 305 305 305 306 306 307 309 311
311 310 309 309 309 309 308 308 307 307 307 307 307 307 307 307 307 307 307 309 310 311 310 308 307 307 307 306 306 305 304 303 302 302 303 303 303 304 304 305 305 305 306
310 309 309 308 308 308 307 307 307 307 307 306 306 306 306 306 307 307 307 308 308 307 307 307 306 305 305 304 304 303 302 301 300 299 299 299 300 301 302 304 304 304 304
308 308 308 307 307 307 307 306 306 306 306 305 305 304 304 304 305 305 305 305 306 306 305 305 304 302 302 301 299 296 295 294 292 291 291 290 291 293 296 299 301 302 302
308 307 306 307 306 306 306 305 305 305 303 303 304 304 303 302 302 302 304 305 305 304 303 301 300 296 293 292 291 290 290 289 289 289 289 290 289 289 289 289 291 295 299
306 306 306 305 305 305 305 304 303 301 302 303 303 303 302 302 302 301 302 300 295 291 291 290 290 290 290 290 290 289 288 288 288 289 288 288 288 288 288 288 288 288 288
305 305 305 304 303 304 303 301 300 301 301 301 301 299 294 290 290 290 290 290 290 290 290 290 289 289 289 289 288 288 287 287 287 287 287 287 287 287 287 287 288 288 288
304 303 301 300 300 302 300 299 300 300 301 299 293 289 290 291 291 290 290 290 289 289 290 290 289 289 288 288 287 287 287 286 287 287 287 287 287 288 288 289 289 289 289
303 301 300 300 300 300 300 300 298 292 290 289 289 290 290 290 290 289 289 289 289 290 290 289 288 288 288 287 287 287 286 286 285 287 287 288 289 289 289 289 289 289 289
302 301 300 300 299 299 297 291 289 288 289 289 289 290 289 289 289 289 289 289 290 290 289 289 288 287 287 287 286 286 286 286 285 286 288 288 288 288 288 288 289 289 288

GFSMA_850_thetae_084.txt.gz
Theta_e
328 325 323 322 321 319 319 320 322 325 326 327 328 328 328 327 327 328 328 328 329 330 330 330 330 329 328 328 327 327 327 327 326 325 323 321 319 316 309 305 305 305 305
329 327 323 323 323 321 320 321 324 327 329 329 329 329 329 329 330 330 331 331 331 331 331 331 330 328 325 324 326 327 328 327 327 326 325 324 323 320 318 311 305 305 305
330 328 325 324 324 323 323 326 328 329 330 330 330 330 331 331 331 330 331 332 332 332 331 329 328 325 326 326 323 325 325 327 327 327 326 324 323 323 321 318 314 306 305
330 328 327 325 328 329 330 331 331 331 331 331 331 331 331 330 330 330 330 330 331 331 329 327 327 326 323 325 323 323 324 325 327 327 326 325 324 324 323 321 319 317 307
329 329 329 329 330 331 331 332 333 333 333 331 331 330 331 330 330 331 332 332 328 328 328 327 325 324 324 323 324 322 322 322 324 325 325 324 324 324 323 322 321 320 318
335 334 334 334 333 333 334 334 334 334 332 331 330 330 330 329 330 328 328 326 326 327 329 324 324 322 323 321 321 321 320 320 320 321 323 323 324 324 323 323 322 321 320
335 335 334 334 334 333 333 332 333 332 330 329 330 327 327 326 326 325 324 322 323 325 326 325 324 323 322 319 320 318 316 316 317 317 319 320 321 322 324 325 322 321 321
336 335 335 335 335 334 333 332 332 330 330 329 327 327 326 325 323 323 324 323 323 326 326 325 322 321 319 319 317 318 317 316 314 315 317 318 319 319 320 321 322 323 321
333 333 336 335 335 336 330 326 327 329 327 326 325 326 326 326 325 323 324 325 324 323 324 323 322 322 320 318 317 316 316 314 313 312 313 315 314 314 317 319 318 319 320
331 334 336 334 328 322 320 320 319 320 320 318 317 317 321 324 324 322 321 322 323 322 321 321 321 322 321 319 317 316 315 313 313 311 313 313 313 314 315 315 318 319 319
331 331 330 325 320 316 314 314 313 313 312 312 312 312 312 314 318 322 318 319 320 321 321 321 320 320 320 318 316 315 314 312 311 311 311 312 314 312 311 311 312 314 317
328 325 321 316 314 314 313 312 311 311 311 311 311 311 312 312 312 316 318 319 321 321 321 321 320 320 318 315 314 312 312 310 310 310 310 311 312 311 310 311 310 310 311
324 319 315 314 313 312 311 311 311 311 311 311 311 311 312 312 312 314 317 316 317 320 319 320 320 319 316 313 312 310 310 309 307 308 309 310 309 310 310 310 310 310 310
316 314 313 313 312 311 311 311 311 310 310 310 310 309 310 309 310 316 316 317 319 316 318 318 318 317 315 313 311 310 310 308 307 306 307 308 308 309 309 309 309 309 310
313 313 312 312 311 311 311 310 310 309 309 309 308 308 308 307 310 311 314 314 316 315 317 317 316 316 314 312 310 310 308 307 306 305 306 307 307 307 308 308 308 309 310
313 312 311 311 311 312 311 310 310 309 308 308 307 307 307 307 308 313 312 313 315 315 315 314 314 313 312 310 309 308 306 306 305 305 305 306 306 306 307 307 309 308 311
314 317 315 311 311 311 310 309 309 309 308 308 307 307 307 307 308 311 311 311 312 314 314 313 312 311 309 308 307 306 305 305 303 304 304 305 305 304 304 306 306 309 310
319 315 312 311 310 309 309 309 308 308 308 307 307 307 307 307 306 307 308 307 308 309 309 309 310 307 306 306 306 305 305 303 302 302 301 301 302 302 303 304 305 305 308
311 311 310 310 309 308 308 308 307 307 307 307 306 306 306 306 305 305 305 306 307 308 308 308 307 305 305 305 305 304 302 301 300 299 296 296 297 298 300 301 303 303 304
310 310 309 308 308 308 308 306 306 306 306 306 306 306 305 305 304 305 305 306 306 306 306 306 305 304 303 302 302 299 296 295 292 291 290 290 290 290 291 294 298 302 302
309 309 308 307 307 307 306 305 305 305 305 304 303 304 304 303 302 302 303 304 304 304 304 304 302 300 297 295 293 291 291 290 289 289 289 290 290 289 289 289 289 291 297
309 308 307 306 305 305 305 304 303 302 301 301 301 302 302 301 302 302 302 303 302 301 299 295 294 293 291 291 290 290 289 289 289 289 288 288 288 288 288 288 288 289 289
308 306 305 305 304 303 302 302 300 300 300 301 300 301 300 296 292 290 290 290 290 290 290 290 289 290 289 290 290 289 288 288 288 288 288 288 287 288 288 288 288 288 288
306 305 304 303 300 300 301 300 299 299 299 299 300 298 291 289 290 290 290 290 290 290 290 290 289 289 289 288 288 288 287 287 287 287 288 288 287 288 288 289 289 289 289
305 303 302 300 300 300 299 298 298 299 299 298 292 289 289 290 290 290 289 289 289 290 290 289 289 288 288 288 287 287 286 286 287 287 287 288 288 289 289 289 289 289 289
303 302 301 300 299 299 299 299 299 293 289 289 289 289 290 290 290 289 289 290 290 290 290 289 288 288 288 287 287 287 286 286 286 287 288 288 288 289 289 288 289 289 289

GFSMA_850_thetae_087.txt.gz
Theta_e
329 325 321 322 322 319 319 321 322 324 325 327 327 328 328 327 327 328 328 329 330 331 331 331 330 329 327 322 323 324 325 327 327 326 325 324 323 321 318 315 308 305 305
328 327 326 324 323 322 320 320 322 325 328 329 329 329 329 329 330 330 330 330 331 331 332 330 328 327 326 326 325 323 326 326 326 327 326 325 324 323 322 319 315 308 305
329 329 328 325 325 324 321 323 326 328 329 330 330 330 331 331 330 330 329 329 329 329 330 328 326 325 325 324 323 323 322 324 324 325 326 326 325 323 323 322 320 317 309
332 331 329 327 326 327 327 328 330 330 331 331 331 331 329 329 329 329 329 329 329 329 330 325 326 325 324 323 323 321 322 321 321 323 325 327 325 324 324 323 322 320 318
334 331 329 329 327 330 331 331 332 332 332 332 329 330 328 329 329 329 329 329 330 328 325 327 327 325 323 320 321 320 320 320 320 320 322 324 325 324 323 323 323 322 321
334 330 330 330 331 331 332 333 333 333 332 331 329 329 329 329 327 327 327 326 326 326 325 326 325 323 323 322 319 318 320 318 318 318 318 320 321 322 324 324 322 322 321
333 333 333 333 332 332 332 332 330 331 329 329 329 327 326 324 324 323 324 322 321 320 323 326 326 324 322 320 317 317 317 317 316 315 314 316 318 319 320 322 325 324 321
334 334 334 333 334 334 334 332 331 330 330 327 327 327 326 324 320 322 323 323 322 323 325 325 325 323 322 320 319 317 316 315 314 314 313 313 316 316 317 319 320 322 324
333 332 331 331 331 333 333 333 332 327 327 325 326 328 325 325 324 323 322 323 323 324 323 323 322 321 321 321 319 317 316 315 315 313 312 312 313 315 317 317 319 319 319
331 330 327 327 327 331 335 329 323 321 320 317 318 317 319 321 325 321 320 321 322 322 321 321 321 320 321 321 319 318 315 315 314 312 311 311 315 315 315 312 312 317 318
330 329 328 329 331 331 327 317 314 313 313 312 312 312 312 313 314 319 320 319 317 319 321 321 320 321 321 319 319 317 313 312 311 310 310 313 313 313 312 311 311 311 312
328 327 325 326 327 321 315 314 313 312 311 311 311 311 311 312 313 313 315 316 316 318 318 319 320 319 319 319 317 315 312 311 309 308 311 313 312 311 312 312 312 310 310
323 324 325 326 318 314 313 312 311 311 311 311 311 311 311 311 312 312 314 315 315 317 317 317 317 318 318 317 315 313 312 310 309 307 307 309 310 308 309 311 311 311 309
326 326 326 317 314 313 312 311 311 311 310 310 309 309 309 310 311 310 312 313 315 317 317 316 317 317 316 316 314 312 311 309 308 307 306 306 307 308 308 308 308 308 309
325 324 315 313 312 313 312 311 310 310 310 310 309 308 308 309 309 308 309 313 313 314 314 316 315 315 315 314 313 311 309 309 307 305 305 306 307 307 307 307 308 308 310
318 314 312 314 318 318 316 312 311 311 310 310 309 308 307 307 307 307 306 312 311 312 313 313 314 314 313 312 311 310 308 307 306 305 305 305 305 306 306 307 307 308 309
315 317 318 317 319 317 312 311 310 310 309 309 308 307 307 307 307 306 309 309 309 311 312 312 312 312 311 310 309 308 306 305 304 303 304 305 305 305 304 304 306 307 308
315 314 316 317 315 311 310 309 309 308 308 308 307 307 307 307 307 306 307 307 307 308 308 309 310 309 309 309 307 305 305 305 303 302 301 301 301 300 301 302 304 305 307
311 313 313 311 311 309 308 308 308 308 307 307 306 305 305 306 306 304 304 305 305 305 306 306 307 307 306 305 304 304 304 303 301 300 298 294 294 294 295 298 301 303 304
311 311 311 310 309 308 308 307 307 307 306 306 305 305 304 304 304 303 303 303 304 305 305 306 305 304 304 303 302 302 301 299 296 293 291 290 290 290 290 291 294 298 302
311 310 310 309 308 307 307 306 306 306 305 305 304 302 303 303 302 302 302 303 303 303 304 304 303 303 302 299 299 297 293 291 291 290 290 289 290 290 290 289 289 290 294
310 309 309 308 307 306 305 305 305 304 302 301 301 300 300 301 301 301 302 303 303 303 302 302 302 300 297 294 292 291 290 290 289 289 289 289 288 288 288 289 289 289 289
309 309 308 307 306 304 304 302 301 300 301 300 300 300 300 300 297 293 291 294 296 293 291 290 291 291 291 290 290 290 289 288 288 288 288 288 288 288 288 289 288 288 289
308 308 307 306 305 303 300 299 299 299 299 298 299 298 299 292 289 290 290 289 290 290 290 289 289 289 289 289 289 288 288 288 288 288 288 288 287 288 288 289 290 290 289
308 307 306 305 303 301 300 299 298 298 298 298 298 298 291 289 290 290 289 289 289 289 290 289 289 289 288 288 287 287 287 287 287 287 288 288 288 288 289 289 290 290 290
307 306 305 303 302 300 300 299 297 298 298 297 292 289 289 289 289 289 289 289 289 289 291 290 289 288 288 288 288 287 287 287 286 286 287 287 289 289 289 289 289 289 289

GFSMA_850_thetae_090.txt.gz
Theta_e
324 325 323 320 319 319 319 321 323 323 324 325 327 327 328 327 327 328 328 330 330 331 331 330 329 327 326 326 326 325 324 325 325 326 326 325 324 323 322 320 317 310 306
331 327 324 323 322 321 320 321 322 324 327 328 329 328 328 329 329 329 329 329 329 329 329 329 326 325 325 325 324 324 324 321 323 323 324 326 326 324 323 322 320 318 312
329 329 327 325 324 323 322 321 322 326 328 329 329 330 330 330 329 329 328 328 327 327 327 328 327 325 324 325 323 323 322 321 321 320 322 325 326 326 324 323 322 321 318
331 331 330 329 327 326 325 324 328 329 330 330 331 331 329 329 328 328 328 328 327 328 328 330 327 324 324 322 322 320 319 318 319 319 320 323 324 325 324 323 323 322 321
334 334 331 330 329 327 329 330 330 331 332 332 331 328 329 328 328 328 326 326 327 327 327 327 325 326 322 323 322 319 317 318 318 318 319 319 322 323 324 323 322 322 322
334 334 331 330 330 329 330 331 332 332 331 330 330 328 329 327 326 324 325 325 326 324 324 325 325 326 324 323 321 318 317 316 316 317 315 315 316 320 321 322 324 323 322
334 333 332 332 332 333 332 331 330 330 329 329 327 325 326 323 322 320 319 321 322 321 320 321 324 326 322 323 319 319 318 316 316 314 312 313 312 314 318 319 320 322 323
335 334 334 333 333 332 332 332 331 330 328 328 329 327 326 322 321 321 320 322 323 322 322 324 325 324 324 321 320 319 318 316 315 315 314 312 314 312 314 316 318 319 321
333 331 331 332 330 330 331 333 331 329 331 328 326 328 325 324 324 321 322 320 319 319 323 322 323 322 321 321 320 320 319 318 315 314 312 311 314 315 316 316 316 319 319
330 330 331 327 328 326 327 327 329 332 328 320 316 314 314 317 320 319 319 320 320 320 321 321 321 319 319 318 320 319 318 318 314 311 310 310 315 314 314 315 314 312 316
331 330 329 329 327 326 325 326 326 321 314 313 312 311 311 312 312 315 316 315 316 318 317 319 320 319 319 320 320 318 317 315 313 310 311 313 313 312 313 312 313 314 313
329 329 329 328 324 326 326 325 315 313 312 311 311 311 311 311 312 313 314 313 313 315 317 317 316 317 319 318 318 318 316 313 312 310 308 310 311 311 311 313 313 313 313
329 328 325 323 323 325 318 313 313 311 311 311 311 310 310 310 310 311 312 314 313 313 314 316 316 315 316 317 317 316 314 312 312 309 308 307 307 308 308 309 310 310 310
328 325 325 324 325 316 313 313 315 313 312 311 310 310 310 309 309 310 311 310 312 312 314 316 315 315 315 316 315 315 312 311 310 309 307 306 306 307 308 308 308 308 308
324 323 325 324 314 312 317 319 316 313 311 310 310 309 309 308 308 309 309 308 308 311 312 314 313 314 313 314 313 313 311 310 309 308 306 305 305 306 306 307 307 308 307
324 326 322 314 312 317 319 318 317 315 311 309 309 308 308 308 308 307 308 307 307 310 310 311 312 312 312 311 312 311 310 309 308 306 304 304 305 306 306 306 306 307 306
324 318 314 312 317 318 319 318 316 311 309 309 308 308 308 307 307 307 307 306 307 308 310 311 309 310 311 311 310 309 308 307 306 305 303 302 304 304 304 303 304 305 306
315 313 314 316 316 317 316 312 310 309 309 308 308 307 307 307 307 306 305 306 306 306 307 307 307 309 309 309 309 308 306 305 305 303 302 301 300 300 299 300 302 304 306
314 313 312 312 314 313 311 310 309 308 308 307 307 306 306 305 306 305 305 303 304 305 304 304 304 305 307 307 306 305 304 304 304 302 300 298 294 293 292 295 298 303 304
312 311 311 311 311 311 310 309 308 308 307 306 306 305 305 304 304 304 303 303 302 302 303 303 304 304 304 305 304 303 302 302 300 298 294 291 290 290 290 290 291 295 301
310 311 311 311 311 310 309 308 307 306 306 305 305 303 301 301 301 302 301 301 301 302 302 303 304 304 303 303 302 300 300 298 294 291 290 289 289 289 289 290 290 290 292
310 310 311 310 310 309 308 307 306 306 305 303 301 301 300 301 301 300 301 302 302 302 302 302 303 302 302 300 296 295 292 291 290 289 289 289 289 288 288 289 289 289 289
310 310 310 309 308 308 307 306 305 304 302 300 301 300 300 300 300 297 294 293 299 300 300 299 298 296 294 293 292 290 290 290 289 288 288 288 288 288 288 288 288 288 288
310 309 309 308 308 307 305 304 301 300 300 299 299 299 299 299 294 289 289 290 290 290 290 289 289 290 290 290 290 290 289 288 288 288 288 288 288 287 288 289 289 289 289
309 309 308 307 306 305 303 302 300 299 299 299 299 298 298 296 289 290 290 289 289 289 289 289 289 289 289 289 288 288 288 288 287 287 288 288 288 288 288 289 289 289 290
308 307 307 306 305 303 302 301 301 300 299 298 298 297 294 288 289 289 289 288 289 289 289 290 289 288 288 288 289 288 288 287 287 287 287 287 288 289 289 289 289 289 290

GFSMA_850_thetae_093.txt.gz
Theta_e
321 321 321 320 320 319 319 319 320 322 322 323 326 326 327 327 327 328 329 329 330 330 330 329 327 326 325 326 325 324 324 324 320 322 323 326 325 325 323 322 320 316 309
325 326 325 322 321 320 319 321 323 323 324 327 328 328 328 328 329 329 329 329 328 327 327 326 327 326 324 325 325 323 323 322 320 320 320 323 325 326 325 323 322 321 318
330 331 328 325 324 323 322 321 321 323 326 328 329 329 330 330 328 328 328 327 327 327 326 327 327 327 324 324 324 322 319 318 317 318 318 319 324 326 326 324 323 322 321
328 329 329 328 326 325 324 322 323 325 328 329 330 330 329 328 328 327 328 327 326 326 326 326 325 326 324 323 324 322 319 317 317 317 317 319 321 324 324 324 323 322 322
332 332 332 330 330 327 326 326 327 329 331 332 332 331 328 327 328 327 326 327 326 326 326 326 326 325 326 323 323 322 319 317 316 316 316 315 317 320 322 323 323 322 322
334 334 333 332 331 329 327 330 331 332 331 329 329 328 326 324 326 322 323 320 319 321 322 321 323 325 326 325 322 321 319 318 316 316 314 313 313 315 318 320 322 323 323
334 334 334 333 331 330 329 332 331 329 330 327 329 325 326 324 320 318 318 316 318 320 320 319 320 324 326 324 321 320 318 319 317 316 316 314 313 312 314 317 319 320 322
333 334 334 332 331 332 332 332 330 329 329 329 328 329 327 323 319 319 319 320 321 319 319 322 323 325 326 324 323 319 319 319 318 317 316 312 312 314 315 316 317 318 318
332 333 332 332 332 333 331 330 330 332 331 330 329 328 325 324 321 317 319 320 318 317 315 321 323 324 324 323 321 320 320 319 318 317 314 311 311 314 315 315 316 316 318
329 331 330 331 332 330 328 327 326 326 327 326 324 315 314 316 321 318 316 319 318 317 318 320 321 322 321 319 319 318 320 318 317 315 313 314 315 315 314 313 313 314 315
331 331 330 331 330 327 326 326 324 321 323 313 312 311 311 311 311 313 316 313 315 316 315 316 317 319 318 318 318 319 319 318 316 314 312 311 313 313 312 315 314 314 313
329 328 330 328 328 327 324 322 321 322 314 312 312 311 311 311 311 312 313 312 312 312 313 315 316 316 315 316 317 318 316 317 315 313 312 311 310 308 310 313 314 313 312
329 330 327 328 327 323 322 322 319 312 314 317 315 312 310 310 310 310 311 312 312 313 311 311 313 315 315 315 316 316 316 315 313 311 311 309 308 306 306 309 310 310 310
329 329 328 325 324 324 323 318 314 318 317 316 314 312 311 310 309 309 311 312 310 310 310 311 312 315 315 314 314 314 314 313 312 311 309 308 306 305 306 307 307 307 308
328 328 326 325 324 321 314 316 318 317 316 316 313 312 310 310 309 308 309 309 309 309 310 310 313 313 313 312 312 313 313 312 311 310 308 307 304 305 306 306 306 307 308
327 326 324 325 321 314 314 317 317 316 316 315 312 310 309 309 309 308 308 308 308 308 307 309 310 310 311 311 311 310 310 310 309 307 307 306 303 305 306 305 305 306 307
326 325 325 322 315 313 316 318 316 315 317 313 311 310 309 308 308 307 307 307 306 306 307 308 309 309 309 309 309 309 309 308 307 306 305 303 302 302 302 302 302 304 306
325 325 320 315 312 315 316 315 313 312 312 310 309 309 308 307 307 307 307 306 304 305 306 306 307 308 307 308 308 307 308 307 305 304 303 302 301 300 299 299 299 302 304
318 317 314 312 314 313 312 311 311 311 311 309 308 307 307 306 306 306 306 305 303 304 304 304 304 304 304 305 307 307 306 305 304 302 302 300 298 294 292 292 294 299 303
315 313 312 311 311 311 311 311 310 310 309 308 307 307 306 305 305 304 303 303 302 303 303 303 303 303 303 304 304 304 304 302 301 301 299 296 292 291 290 290 290 292 299
311 310 310 310 310 310 310 310 310 309 309 308 307 306 305 302 301 301 301 301 301 301 301 302 302 303 303 303 303 303 301 300 300 298 293 290 289 289 290 290 290 290 291
310 309 309 309 309 309 310 309 309 309 308 307 306 303 301 300 301 300 300 300 301 301 301 301 302 301 302 301 301 299 296 296 292 290 289 289 289 289 289 289 289 289 289
309 309 309 309 309 309 309 309 309 307 306 305 302 300 300 300 299 299 298 295 297 301 302 302 302 301 300 299 296 294 292 291 290 289 289 288 288 288 288 288 289 288 288
309 309 309 309 308 308 308 307 306 305 305 300 300 300 300 299 299 296 290 290 290 290 290 291 291 291 291 291 291 290 290 290 289 288 288 288 288 288 288 288 289 289 289
308 309 309 308 308 307 307 305 304 303 301 299 299 299 299 298 298 291 290 290 290 289 289 289 289 289 290 289 289 289 289 289 288 288 288 288 288 288 288 289 289 289 290
307 308 308 307 307 306 305 305 305 303 301 300 299 298 297 297 292 289 290 290 289 289 289 290 289 289 288 288 288 288 288 288 288 287 287 287 288 289 289 289 289 289 289

GFSMA_850_thetae_096.txt.gz
Theta_e
317 317 317 318 318 318 318 319 319 320 320 322 324 326 328 329 329 329 329 328 329 329 329 329 328 327 326 325 326 325 323 323 321 319 320 322 324 325 325 323 322 320 316
319 320 321 322 321 320 319 320 320 323 324 325 330 329 330 330 330 331 331 330 328 328 326 327 326 326 327 326 324 324 322 319 318 317 317 318 320 324 326 325 323 322 320
325 323 327 324 322 322 321 321 322 323 324 326 328 328 331 332 332 331 330 330 327 327 326 326 325 326 327 326 323 323 322 318 317 316 317 317 320 323 326 326 324 323 322
329 331 331 328 327 325 323 322 321 321 327 329 331 332 332 332 330 329 329 328 328 328 328 326 326 325 326 325 323 324 322 318 317 317 315 315 317 320 323 324 324 322 322
329 329 329 330 329 327 325 324 323 326 329 332 333 333 333 331 330 329 329 328 328 324 325 327 324 326 325 325 324 323 322 319 318 317 316 315 314 315 317 320 323 324 323
328 331 332 333 332 330 328 326 327 329 332 333 332 331 330 329 328 326 325 323 319 317 320 321 321 325 325 326 324 324 322 318 318 318 317 317 315 313 313 316 320 321 323
333 334 334 334 333 332 330 328 330 332 331 331 330 329 329 328 327 320 319 317 317 320 320 319 320 325 323 326 326 323 321 319 319 319 317 317 314 312 311 313 316 319 320
333 334 334 333 333 333 331 330 332 331 331 329 330 330 327 325 325 318 318 315 316 319 316 315 321 324 325 327 326 323 321 319 319 318 317 316 313 311 313 316 316 318 318
331 331 332 332 332 333 331 331 331 329 330 329 329 328 325 323 324 322 318 314 316 317 315 314 318 324 326 326 325 323 320 318 319 318 316 315 315 316 315 315 315 315 316
329 331 329 331 330 332 331 331 330 327 327 325 325 321 314 316 319 319 320 318 315 316 314 315 318 319 322 323 321 320 319 318 319 317 314 313 314 315 316 314 313 313 313
329 328 329 329 329 330 330 328 327 325 324 321 314 312 311 311 311 319 317 318 318 315 314 313 315 316 317 320 319 318 318 318 318 316 315 313 313 312 311 312 315 315 315
326 326 329 327 330 329 324 325 325 324 324 323 322 315 315 313 315 314 317 316 316 315 312 311 312 314 316 317 316 316 316 317 316 315 312 312 312 312 309 308 311 314 313
328 327 325 323 324 324 325 327 325 322 322 322 319 316 316 314 312 311 310 314 313 314 313 310 310 310 313 316 315 315 315 314 315 313 311 311 311 309 307 306 308 311 312
329 329 327 328 325 328 326 324 322 322 314 316 315 315 315 313 311 310 310 311 313 313 313 312 309 310 312 314 314 314 313 313 313 312 310 310 310 308 305 305 307 308 308
329 329 329 328 327 325 323 323 320 315 317 316 315 314 313 311 310 310 309 309 310 311 311 312 311 310 312 312 314 312 312 312 311 310 309 309 308 305 304 306 306 306 307
327 328 329 328 326 325 324 319 314 317 316 315 315 313 312 311 310 309 309 308 308 309 309 309 309 309 309 310 311 311 310 309 310 309 309 307 306 304 303 305 305 305 306
327 328 328 326 325 323 319 312 317 317 316 315 313 311 310 310 309 309 308 308 307 307 308 308 307 307 308 308 309 308 307 308 307 307 307 306 304 302 301 300 301 302 304
324 327 327 325 323 318 312 315 316 315 313 311 310 310 309 309 308 308 307 307 306 305 305 305 306 307 307 308 307 307 307 306 306 305 305 304 303 302 299 298 298 299 302
322 325 325 324 319 313 313 315 314 312 310 309 310 309 309 308 307 307 306 306 305 304 303 304 304 304 304 304 304 305 306 305 305 304 303 302 301 299 294 291 291 293 300
318 321 320 316 313 311 313 312 311 311 310 309 309 308 307 307 306 305 305 305 302 302 302 303 303 303 303 303 303 303 304 304 303 303 301 300 299 293 291 290 290 290 294
315 315 314 312 311 311 311 311 310 310 309 309 308 307 306 306 305 303 303 303 302 301 302 302 302 302 302 303 303 303 303 302 301 300 300 296 291 290 290 290 290 290 290
313 313 312 311 310 310 310 310 309 309 308 308 308 307 305 303 302 301 301 301 301 301 301 301 301 302 302 302 302 302 301 300 297 295 291 290 289 289 289 289 289 289 290
311 310 310 309 309 309 309 309 308 308 307 307 307 305 304 301 301 300 300 299 299 300 301 301 301 301 301 301 300 300 297 294 293 290 290 289 289 288 288 289 289 288 289
309 308 308 308 308 308 308 308 308 307 306 305 305 303 301 301 300 299 299 293 290 290 293 297 300 300 299 297 295 294 292 291 290 289 288 288 289 288 288 288 288 289 289
308 307 307 307 307 307 307 307 306 305 304 304 304 302 301 301 300 298 295 290 290 290 290 290 290 289 289 290 290 290 290 289 288 288 288 288 288 288 288 288 289 289 290
308 307 307 307 306 306 306 306 306 304 304 304 303 301 300 299 298 298 290 290 290 289 289 290 289 288 289 289 289 288 288 288 287 287 288 288 288 288 289 289 289 289 289

GFSMA_850_thetae_099.txt.gz
Theta_e
329 330 329 328 328 326 328 326 325 326 324 328 328 326 330 330 330 330 330 330 329 328 328 328 327 326 326 327 326 324 323 321 318 317 317 317 318 321 325 325 323 322 320
328 327 328 328 327 324 325 327 328 329 330 330 330 331 331 331 331 331 331 331 331 329 327 326 326 326 327 327 327 324 323 320 317 316 316 316 317 320 322 325 325 324 322
328 322 330 325 324 322 323 325 329 330 330 331 332 332 332 332 332 331 330 330 329 328 328 325 325 324 325 324 327 324 324 320 318 317 317 314 314 318 323 323 325 324 323
322 321 323 324 324 322 322 327 329 329 328 330 331 332 332 332 331 330 329 329 329 329 329 328 328 326 325 325 326 325 324 322 319 318 318 317 316 315 316 320 323 324 323
325 326 328 330 328 327 325 329 329 327 328 331 332 332 332 332 330 329 329 329 328 327 326 323 325 322 322 323 325 325 323 322 319 318 318 317 316 316 314 313 317 321 324
332 330 330 332 333 331 330 330 329 327 330 331 332 331 330 330 329 328 327 325 325 317 317 319 320 324 322 324 326 326 323 323 319 318 318 317 316 316 315 311 313 317 321
331 332 330 332 333 333 332 330 329 329 331 332 331 329 330 329 328 327 323 324 322 318 319 317 315 326 322 322 325 326 325 322 320 318 319 317 316 315 313 310 317 317 317
327 331 332 334 334 333 333 332 330 331 332 332 330 330 328 327 326 324 320 320 317 316 318 314 313 321 325 323 324 325 323 323 320 318 318 317 316 314 314 316 316 316 317
333 332 332 333 333 333 333 332 331 330 331 330 328 329 327 324 324 322 324 318 315 318 315 314 312 317 322 324 324 324 323 322 319 318 318 317 315 314 315 315 315 314 314
330 331 331 330 330 330 331 331 330 331 329 329 326 324 322 323 321 319 321 320 318 316 316 314 314 314 316 319 322 322 321 320 318 318 317 316 315 313 313 312 313 313 315
329 328 329 328 329 329 329 329 329 328 328 326 320 318 313 314 315 318 319 319 320 319 314 313 314 314 314 316 317 320 319 318 318 318 316 316 314 312 312 312 312 312 315
326 326 326 325 325 329 330 327 324 325 326 326 325 322 323 320 321 319 317 317 318 316 316 313 312 313 314 315 316 317 316 316 316 316 314 313 313 312 311 310 309 310 311
326 325 325 325 325 325 327 324 324 323 326 324 324 323 322 322 319 315 313 313 315 314 314 314 312 311 311 312 313 315 315 315 314 313 313 312 312 311 310 308 306 306 308
329 326 327 326 326 325 324 324 324 325 324 322 321 318 317 317 315 313 311 312 313 312 314 313 313 311 310 310 312 313 313 314 312 312 312 311 310 310 310 307 304 306 306
327 328 328 329 327 326 326 326 326 325 322 320 314 315 316 315 314 311 310 310 310 312 312 312 313 311 310 309 311 311 312 311 311 311 310 309 309 309 307 305 305 306 306
325 326 327 328 327 328 327 328 325 323 322 314 317 315 315 314 312 310 309 309 310 310 310 309 309 309 309 308 309 308 310 310 309 308 309 309 308 306 305 302 302 305 305
321 325 326 327 328 328 327 326 323 323 315 317 316 315 314 313 311 310 309 308 308 308 308 308 308 308 307 307 307 307 308 307 307 308 307 307 306 305 304 301 300 300 301
318 322 326 327 328 328 326 325 323 315 315 316 315 314 311 310 309 309 308 308 308 307 307 306 307 305 306 306 306 307 307 306 307 306 306 305 305 303 303 299 295 295 298
318 321 326 327 328 326 324 320 315 313 316 315 313 311 310 309 308 308 307 307 306 306 305 304 304 304 304 304 304 304 304 304 305 305 304 304 303 302 300 293 291 291 293
317 320 323 325 323 322 319 315 312 314 314 311 310 309 309 308 307 307 306 306 305 305 303 302 303 303 303 303 303 303 303 304 303 303 303 302 301 300 293 291 291 291 291
315 318 321 322 320 317 315 312 312 312 310 309 309 308 307 307 306 306 306 305 304 303 302 302 302 302 302 302 303 303 303 302 302 302 301 300 298 292 290 290 290 290 291
314 314 315 315 315 313 311 311 310 309 309 308 308 307 307 306 306 305 304 302 302 302 302 301 301 301 302 302 302 302 302 302 300 297 296 294 290 290 289 290 289 289 289
313 313 313 313 312 310 310 309 308 308 308 308 307 306 306 305 304 304 302 301 301 300 300 301 301 301 301 302 302 301 300 299 297 294 291 290 289 289 288 289 289 289 289
312 312 311 310 309 308 308 308 308 308 307 307 306 306 305 304 303 302 300 301 299 294 293 299 301 301 301 300 300 299 298 295 293 291 289 288 289 289 289 289 289 289 289
311 311 310 309 308 308 308 308 308 307 307 306 305 305 304 303 302 300 299 300 292 290 290 290 290 291 294 294 292 292 292 291 290 289 289 288 289 289 288 289 289 289 290
310 310 309 308 308 307 308 308 307 306 306 305 305 304 303 302 301 299 298 297 290 290 291 290 290 290 289 289 289 290 290 289 289 289 289 288 289 288 289 290 290 290 290

GFSMA_850_thetae_102.txt.gz
Theta_e
328 329 322 322 321 321 324 327 327 327 323 321 326 324 328 330 330 330 330 330 330 330 327 327 326 325 326 327 327 326 323 322 318 316 316 316 315 316 318 323 325 324 322
327 330 328 325 325 325 328 326 322 326 328 327 327 329 330 330 330 330 331 330 330 329 327 326 325 325 325 326 324 327 324 322 319 319 318 317 315 314 321 322 323 325 324
329 329 328 324 322 320 320 321 324 328 329 330 330 331 331 330 331 331 330 330 329 329 328 328 327 327 323 325 324 325 324 323 320 319 318 317 317 316 315 317 322 324 324
325 322 323 320 319 320 321 320 321 327 328 329 329 331 331 331 329 329 329 329 328 328 328 327 325 326 323 324 325 325 325 323 321 319 318 318 317 316 316 314 314 317 323
323 319 321 323 324 323 322 323 326 328 325 328 331 331 331 331 331 330 329 329 329 328 326 322 319 321 319 319 323 325 325 323 322 318 318 318 316 316 315 315 312 313 318
323 323 323 328 330 328 328 327 328 328 327 329 330 330 330 330 330 329 328 327 324 320 316 318 318 317 320 322 322 324 326 323 322 319 318 318 317 315 315 314 313 316 317
329 328 330 331 332 331 331 330 329 329 327 331 331 330 328 329 328 328 328 323 320 316 314 316 313 315 321 318 322 324 326 324 322 320 319 317 317 316 314 314 316 316 317
333 333 332 331 331 332 333 332 330 329 329 330 330 329 329 327 327 327 322 318 315 313 313 313 313 313 314 320 325 324 323 323 321 321 319 318 318 316 314 314 314 314 315
330 330 331 331 333 333 333 333 332 330 330 330 329 329 327 325 325 323 321 319 319 315 315 314 313 313 316 322 322 321 322 322 320 319 318 317 317 316 316 315 313 313 313
331 331 330 332 333 332 331 332 332 332 330 329 329 327 326 326 320 319 322 320 319 319 317 315 314 313 312 314 317 318 319 319 320 318 317 317 316 315 314 312 313 313 313
329 328 330 331 330 329 329 329 330 330 330 328 327 326 321 314 313 316 316 319 320 319 318 316 315 314 313 313 314 316 317 317 317 317 316 315 316 315 314 313 311 311 311
327 328 327 327 326 325 325 327 329 329 327 324 327 326 324 323 320 319 321 320 318 318 316 314 314 313 312 312 312 314 316 316 316 315 315 314 313 313 312 312 310 309 308
325 325 325 326 326 325 325 325 323 322 324 323 322 325 326 323 324 323 318 316 314 314 315 313 313 312 311 310 310 311 313 314 314 314 313 312 312 312 312 310 309 307 305
325 325 326 327 326 325 325 324 324 324 324 323 323 326 324 323 321 318 313 313 312 312 312 313 313 313 312 310 310 309 311 312 312 312 312 312 311 310 309 309 308 306 305
327 328 327 326 327 326 325 325 324 324 323 324 325 322 321 316 315 314 314 313 311 311 311 312 313 312 312 310 309 308 309 310 310 310 309 309 309 309 308 307 306 302 305
326 326 326 326 326 327 327 326 326 325 325 325 322 321 314 314 314 314 314 312 310 310 310 310 312 311 309 308 308 307 307 308 308 308 308 308 308 307 306 306 303 300 301
325 324 324 325 326 326 328 328 327 326 327 325 322 317 314 314 314 314 311 310 309 309 310 310 309 308 308 307 306 307 307 306 307 306 307 307 307 306 305 304 302 299 298
318 318 319 322 325 326 327 327 327 326 325 323 322 314 315 314 314 312 310 309 308 308 308 307 307 308 307 306 305 305 306 305 305 305 305 306 306 304 303 303 299 294 293
317 317 317 319 322 326 327 326 326 325 323 322 314 315 315 314 311 310 309 308 308 307 307 306 306 305 304 304 304 304 304 304 304 304 304 305 304 303 302 300 293 292 291
316 316 317 318 321 325 324 323 323 323 320 314 313 315 313 312 310 309 308 308 307 306 305 304 303 302 303 303 303 303 303 303 303 303 303 303 303 301 300 293 291 291 291
314 314 315 316 320 321 322 322 320 316 314 312 314 313 311 310 310 309 308 307 306 306 305 304 302 302 302 302 302 303 303 303 302 302 302 302 299 298 292 290 290 290 290
313 313 314 315 317 318 319 319 316 313 312 313 312 310 310 310 309 308 307 305 305 304 303 302 302 301 301 302 302 302 302 302 302 301 299 295 294 290 290 290 289 289 289
312 312 312 313 313 315 316 315 312 310 310 310 309 309 309 308 307 306 305 303 303 302 301 301 301 301 301 302 302 302 302 300 299 299 295 291 289 289 289 289 289 289 289
310 311 311 310 310 311 311 310 309 309 308 308 308 308 307 306 305 304 303 302 301 301 300 299 299 300 301 301 300 300 299 298 297 295 292 290 289 289 289 289 289 289 289
307 310 310 310 310 309 309 309 308 307 307 307 307 307 306 306 305 304 302 301 300 300 295 291 291 298 300 301 300 299 297 295 294 291 290 289 289 290 289 289 289 289 290
307 307 308 308 308 308 308 307 307 306 306 306 306 306 305 306 304 302 301 300 299 298 291 290 291 290 290 290 291 291 291 291 290 290 290 290 289 289 289 290 290 290 290

GFSMA_850_thetae_105.txt.gz
Theta_e
328 334 332 326 322 321 322 321 320 321 321 320 323 325 326 329 330 329 329 329 329 330 327 324 325 325 324 325 326 325 326 322 319 318 318 317 316 314 317 320 320 322 324
324 328 325 321 321 321 321 321 321 321 322 320 322 325 329 330 330 330 330 330 329 328 328 328 327 324 323 323 324 324 325 323 319 319 318 318 316 316 315 316 321 324 322
328 327 322 321 321 320 322 323 323 323 324 327 327 330 330 330 330 329 329 329 328 327 327 328 328 326 324 325 324 324 325 324 320 319 318 318 317 316 315 315 314 315 321
331 325 324 321 321 323 324 322 322 324 327 330 330 330 330 330 329 330 329 328 327 327 327 328 327 321 321 321 322 323 324 324 322 319 318 318 317 316 315 315 315 314 314
328 329 327 326 323 322 321 321 322 324 327 328 329 330 331 331 330 330 329 328 328 328 328 327 318 315 317 317 319 323 324 324 323 321 318 318 318 316 315 314 314 316 313
328 328 326 323 322 323 322 322 324 326 326 325 329 330 331 331 330 330 330 329 328 326 320 313 314 313 313 316 320 323 325 325 323 321 319 319 317 316 316 314 314 316 317
325 325 324 327 327 327 326 326 326 327 327 327 330 330 330 329 329 329 329 327 327 318 313 313 313 312 312 312 319 325 325 323 323 321 320 320 318 317 316 314 315 315 314
328 327 326 329 330 330 330 330 329 328 327 327 331 331 330 328 328 328 328 327 319 315 314 314 313 312 312 312 322 323 322 323 320 321 319 319 318 317 316 315 314 313 314
332 330 330 331 331 330 331 331 331 330 329 328 329 330 329 328 327 327 326 322 319 318 318 317 316 314 313 314 315 320 319 319 322 319 319 318 317 317 316 315 313 312 313
330 332 332 331 330 331 332 332 331 330 331 329 330 330 329 327 325 324 323 323 322 319 319 320 317 315 314 314 314 318 318 318 318 318 317 317 317 316 315 315 313 312 311
328 329 328 329 329 329 328 330 328 329 328 329 329 329 328 326 325 319 320 320 320 319 320 319 318 315 314 313 312 313 316 317 316 315 315 316 315 314 314 313 312 311 310
328 328 328 326 326 324 328 327 326 326 326 328 329 328 328 327 325 315 316 320 320 320 318 318 317 315 314 312 311 311 312 313 314 314 314 314 313 312 312 312 312 310 309
327 327 327 328 328 327 326 326 325 326 327 326 327 326 327 326 321 319 320 320 321 318 317 316 315 314 313 312 311 310 310 311 312 313 313 313 312 312 311 311 310 309 308
324 324 324 325 326 325 326 326 325 327 325 325 322 322 322 325 325 324 321 321 317 315 314 314 312 312 313 312 311 310 309 309 311 311 312 312 311 311 310 309 308 307 307
324 324 324 325 324 324 325 326 325 324 323 324 323 323 323 325 325 323 321 318 313 313 312 312 312 312 312 312 311 309 308 308 309 309 310 310 308 308 308 307 307 306 305
326 325 326 326 325 326 326 326 326 325 325 324 324 323 325 323 322 317 314 313 313 312 311 310 311 311 312 311 309 308 307 306 307 307 307 307 307 306 306 306 305 305 302
325 325 325 325 326 326 328 328 327 327 325 325 325 324 324 321 317 312 313 313 313 311 310 310 310 310 310 309 308 307 305 306 306 305 306 306 306 306 306 304 304 304 299
318 319 320 320 322 325 326 327 327 326 327 326 325 325 324 321 313 314 314 314 311 310 309 309 308 308 307 307 307 305 305 305 305 304 304 305 305 305 305 303 303 300 294
316 316 317 317 318 320 323 327 324 325 327 326 324 325 323 319 313 314 314 313 310 309 309 308 307 306 306 306 304 304 303 303 303 303 303 303 304 304 303 303 301 292 291
313 314 315 315 316 317 321 322 323 324 325 323 323 321 319 315 314 313 311 310 310 309 308 307 306 305 303 304 303 303 303 303 303 303 302 303 303 302 302 300 292 291 291
312 312 313 313 314 315 316 319 321 322 322 321 320 315 312 312 312 310 310 309 309 308 307 306 305 304 303 302 302 302 302 302 302 302 302 302 301 301 299 293 291 290 291
308 311 312 312 313 313 315 317 318 319 319 316 314 312 312 313 312 309 310 308 308 307 306 305 305 303 303 302 302 301 302 302 302 302 301 301 298 296 291 290 290 290 290
307 308 310 311 311 312 312 313 315 315 314 313 311 311 310 309 308 309 308 307 307 307 306 304 303 302 302 302 301 301 301 301 301 299 299 295 292 290 290 289 290 290 290
307 307 307 309 310 310 310 311 311 311 311 310 309 309 309 308 308 307 307 306 306 305 305 303 303 301 300 301 301 301 301 300 299 298 297 294 291 290 289 289 289 289 290
306 307 307 307 308 309 309 309 308 308 309 308 308 308 307 307 307 307 306 306 305 304 303 302 301 299 298 300 300 299 299 299 298 297 294 291 290 290 289 289 289 290 290
305 305 305 306 306 307 308 307 307 307 306 307 307 306 307 307 306 305 306 305 304 303 302 301 297 291 291 297 300 300 299 298 296 294 291 290 290 289 290 290 290 291 291

GFSMA_850_thetae_111.txt.gz
Theta_e
335 335 335 327 324 321 320 321 320 320 318 319 320 320 322 323 322 325 327 328 328 328 327 326 324 323 323 323 323 322 324 323 324 320 319 319 318 317 315 315 315 314 315
334 336 336 327 328 324 322 322 321 320 318 320 321 321 322 325 326 328 328 328 329 327 327 327 325 325 325 324 323 323 324 324 323 321 319 319 318 317 317 316 315 314 314
335 336 336 330 327 326 322 323 322 321 319 320 320 319 322 325 329 329 328 328 328 328 327 327 326 326 326 325 321 322 322 324 323 323 320 319 318 318 317 316 315 315 314
334 336 336 333 326 330 324 323 322 320 320 322 321 321 324 327 329 329 329 329 328 328 327 326 327 326 327 322 317 319 322 324 324 323 321 319 318 318 319 317 316 315 314
336 336 336 330 329 328 325 322 322 322 322 322 322 326 327 329 329 329 329 329 329 328 327 327 327 326 320 314 315 316 324 327 325 324 322 320 320 319 319 317 316 315 314
333 334 331 329 328 326 324 324 322 325 324 322 325 327 329 329 329 330 330 330 329 328 328 328 327 322 313 313 312 313 324 326 325 323 322 320 320 319 319 318 316 315 315
331 327 325 322 325 329 322 323 323 325 324 324 327 328 328 328 330 331 331 331 329 328 329 328 325 314 313 313 313 313 323 325 324 321 321 321 320 319 318 317 316 316 316
327 330 323 319 320 322 322 325 324 324 324 325 327 327 327 327 330 331 331 329 329 329 328 326 318 314 315 315 314 313 319 321 322 321 320 319 320 318 317 317 316 315 315
328 326 326 323 326 326 326 325 325 324 325 325 327 326 328 329 329 330 329 329 329 328 327 323 316 318 320 317 315 314 313 317 319 320 319 318 318 316 318 316 315 314 314
327 324 329 328 326 328 327 324 326 325 325 327 328 328 327 328 328 328 328 328 328 327 326 320 318 319 320 319 317 314 313 314 315 317 317 317 316 317 317 315 314 313 313
329 329 328 328 328 328 326 327 328 329 329 328 329 328 327 327 328 327 326 327 326 327 324 321 319 319 321 320 317 314 312 312 312 316 316 315 315 314 314 313 313 312 311
327 327 327 327 325 324 323 324 327 328 328 328 327 326 326 326 325 324 324 325 326 325 323 322 319 320 321 319 317 314 312 311 311 311 313 314 314 313 314 312 311 311 311
326 326 326 326 325 324 325 326 326 327 327 326 325 325 325 325 324 324 326 326 325 323 324 320 320 321 320 318 316 313 312 311 310 310 310 311 311 311 311 311 310 310 308
324 324 324 325 325 325 325 325 325 325 324 324 323 324 324 326 326 326 326 325 319 320 319 319 320 321 318 316 314 313 312 311 310 309 309 308 309 310 310 309 310 308 307
323 322 322 323 325 325 325 325 325 325 326 326 326 326 325 325 325 326 325 324 323 319 319 319 320 319 316 314 313 312 312 311 310 308 308 308 308 309 308 308 308 307 306
325 326 325 325 325 324 324 324 325 325 325 325 324 326 325 325 325 323 322 323 323 321 317 319 318 315 313 313 312 311 311 311 309 308 307 307 307 307 307 307 306 305 306
325 325 326 326 326 325 324 324 325 325 324 324 325 325 325 325 323 323 323 323 323 322 319 319 316 313 313 312 311 310 310 310 309 307 306 306 305 305 305 305 304 304 304
319 318 319 321 324 325 325 325 325 326 326 325 325 325 325 326 326 325 324 324 323 321 317 314 312 312 312 311 310 310 309 308 306 306 305 304 304 304 304 303 303 303 303
313 313 314 315 316 316 316 317 318 320 321 320 321 321 322 323 324 323 321 322 322 320 314 311 311 311 310 309 309 309 308 306 305 304 304 303 303 303 302 303 302 302 302
308 309 310 311 311 312 312 313 314 315 316 318 320 321 322 322 322 321 321 322 319 314 313 311 310 310 309 309 308 308 307 306 304 303 303 303 303 302 302 301 301 301 299
305 306 306 307 308 309 310 311 312 312 314 314 315 317 318 320 320 320 320 317 316 312 313 312 310 308 309 308 308 307 306 304 303 303 303 302 302 302 301 300 301 299 293
305 305 305 305 305 305 306 308 310 311 311 311 312 315 315 315 317 317 317 317 312 312 311 311 311 309 310 308 307 306 305 304 303 303 302 302 302 301 301 301 299 294 290
302 302 303 303 304 305 306 306 307 308 309 309 309 310 312 312 311 311 311 310 310 310 309 310 310 309 312 311 306 304 304 302 303 302 301 301 301 301 301 295 291 290 290
301 301 301 302 302 303 304 304 305 306 307 308 308 308 308 309 309 310 309 307 308 309 309 310 308 310 307 306 304 303 302 302 301 301 301 300 300 300 297 292 290 290 290
298 298 298 299 300 300 301 300 301 302 302 303 305 307 307 306 306 305 306 307 306 306 305 305 305 305 304 303 302 301 300 300 299 300 301 300 300 297 294 291 290 290 290
296 296 297 297 296 296 296 297 300 300 300 301 303 304 305 306 306 305 305 305 304 305 304 305 304 304 302 302 301 300 299 300 300 299 299 299 299 296 291 291 291 290 290

GFSMA_850_thetae_114.txt.gz
Theta_e
336 335 335 332 331 324 319 319 320 320 319 318 318 317 318 319 322 322 325 327 327 327 326 327 325 324 323 323 322 322 322 323 323 323 320 320 319 318 318 316 316 315 314
334 334 333 333 333 328 322 321 321 321 319 318 318 319 320 321 323 323 326 327 328 328 326 326 326 325 324 325 324 321 322 323 324 323 322 320 319 319 318 318 317 315 314
331 333 334 332 334 330 326 325 323 322 320 319 319 320 321 321 323 325 327 328 328 328 328 327 327 326 326 326 325 318 318 322 322 323 323 321 320 319 319 319 317 315 315
328 334 332 332 333 331 329 327 324 322 321 319 319 321 320 320 322 327 328 328 328 328 328 328 327 326 326 326 320 315 316 324 324 324 323 322 320 320 319 319 318 316 315
327 333 333 333 333 334 331 329 326 323 322 320 322 323 322 322 324 327 328 328 329 329 328 327 327 327 327 324 314 314 315 326 327 326 324 323 321 319 319 318 318 317 315
326 331 334 333 333 334 332 331 326 324 323 321 324 323 324 326 327 328 329 329 329 329 328 328 328 328 326 316 313 312 313 322 326 325 323 321 321 320 319 319 318 317 316
326 329 332 333 334 334 324 330 330 327 323 323 325 323 325 326 328 328 328 330 330 330 329 328 328 328 323 313 313 313 315 326 325 322 323 321 320 320 319 318 317 317 315
326 328 332 332 331 328 322 323 326 327 324 326 325 326 327 326 325 326 328 330 330 330 329 328 328 326 321 315 315 315 315 320 321 320 321 321 319 317 318 317 317 315 315
326 328 329 329 329 327 322 323 323 326 324 325 325 326 327 326 325 325 327 329 330 329 328 328 328 327 318 318 319 318 315 314 315 318 320 318 318 318 316 317 316 315 313
328 329 326 328 325 322 319 318 319 323 326 326 326 326 327 327 328 328 328 328 328 329 328 328 327 324 318 318 320 320 317 314 313 314 314 317 317 316 317 317 315 313 312
327 328 328 325 326 324 318 319 323 322 324 325 326 326 327 327 327 327 327 327 327 327 325 325 327 326 321 318 320 321 319 315 313 312 312 315 315 315 314 315 313 313 311
327 328 329 325 327 326 324 325 325 325 326 326 327 328 327 328 328 327 326 326 324 323 323 324 325 326 321 319 320 321 318 315 312 311 311 311 314 314 315 313 312 311 310
327 328 328 329 327 324 324 325 324 324 324 325 325 325 325 327 326 325 325 324 324 324 324 325 325 324 322 320 320 320 318 314 312 311 310 310 311 311 311 310 310 310 309
326 326 326 326 325 325 324 324 325 324 324 324 323 326 325 324 324 324 325 326 325 325 325 324 323 323 322 320 320 320 316 314 312 311 310 309 309 309 308 309 309 309 308
325 325 325 325 325 325 324 324 323 324 325 324 324 325 326 325 325 325 325 325 325 323 321 322 321 321 320 319 320 318 315 313 311 311 310 309 308 308 308 308 308 308 307
322 323 323 322 323 323 324 324 325 324 324 324 325 325 325 325 324 325 325 324 325 323 322 322 322 321 320 320 318 315 314 312 311 311 310 308 307 307 307 307 306 306 305
324 325 325 326 325 324 325 324 324 324 324 324 325 325 325 324 324 325 324 325 324 323 322 322 321 319 318 317 315 313 312 312 311 310 309 307 306 306 305 305 305 304 304
320 319 320 322 324 324 323 325 324 324 323 322 322 323 323 323 322 322 322 323 323 323 323 323 321 318 317 313 312 312 311 311 310 309 307 305 305 305 305 304 303 303 303
312 312 313 313 314 314 315 316 316 317 317 318 319 320 320 319 320 321 321 322 322 320 321 321 321 317 315 312 311 310 310 310 309 307 305 305 304 304 303 303 302 302 302
306 306 306 307 308 309 310 310 311 311 312 313 315 315 316 317 317 318 318 319 320 319 320 319 315 315 314 312 311 310 309 309 308 307 305 304 303 303 303 302 302 301 301
304 305 305 305 305 305 305 305 306 307 308 310 310 311 312 314 315 315 316 316 316 316 316 315 314 313 312 311 311 310 308 308 307 306 305 303 303 303 302 302 301 301 300
302 302 302 302 302 303 303 304 305 305 305 305 306 308 309 310 310 312 313 314 314 313 312 314 312 312 311 311 311 310 308 308 307 306 304 304 303 302 302 301 301 300 297
299 300 300 300 300 301 301 301 301 302 302 304 305 305 306 307 308 308 309 310 309 310 310 310 310 310 311 311 311 311 309 308 309 305 303 303 302 302 301 301 300 296 291
297 297 297 297 297 298 298 298 299 299 299 300 300 301 301 303 305 306 307 307 307 307 307 308 308 309 309 309 308 308 307 306 305 303 302 301 301 301 300 299 296 292 290
295 295 295 295 295 295 295 296 296 295 296 296 297 298 299 301 302 304 306 307 306 307 307 307 306 307 306 307 306 306 305 303 301 301 301 299 300 300 300 298 294 290 290
294 294 294 294 294 294 294 295 295 295 295 294 294 294 297 299 300 301 302 303 304 306 306 304 304 304 303 305 304 304 303 302 300 300 299 298 299 299 298 296 291 290 290

GFSMA_850_thetae_117.txt.gz
Theta_e
332 334 335 333 336 334 325 320 318 320 320 320 320 319 318 319 320 321 323 325 326 326 327 325 326 324 322 323 323 324 321 323 325 324 322 320 320 319 319 319 318 316 315
330 331 334 335 335 334 330 326 318 320 321 321 320 319 318 318 320 322 322 324 327 328 326 325 326 325 325 324 324 324 321 321 322 322 323 322 320 320 319 319 318 316 314
331 332 333 333 333 334 333 331 326 322 322 321 319 318 320 320 321 322 323 325 327 328 328 327 327 327 326 326 326 325 319 318 322 323 323 323 321 320 320 319 318 318 317
329 328 331 332 333 334 332 333 328 328 324 322 321 319 320 321 321 321 323 327 328 328 328 328 328 327 326 326 326 322 314 316 317 325 324 324 322 320 320 319 318 318 317
325 325 327 331 334 334 333 333 331 329 327 324 322 320 319 322 321 320 322 327 328 328 329 328 328 327 327 327 326 316 314 313 320 326 326 324 323 321 320 319 319 318 317
325 324 324 327 333 334 333 333 329 321 323 325 324 322 321 323 323 323 325 328 328 328 329 328 328 328 328 328 325 313 313 313 317 325 326 323 322 321 320 320 319 318 317
325 326 326 325 327 332 333 334 332 325 322 326 326 324 323 323 323 323 327 328 328 329 328 329 329 328 328 327 323 313 313 314 322 324 322 321 322 321 319 317 319 317 316
325 326 326 325 328 332 334 332 332 324 323 323 325 325 326 324 322 323 325 327 327 329 330 330 329 328 328 327 324 315 315 316 318 317 317 318 320 320 318 317 316 316 315
325 326 328 327 329 329 329 332 330 325 323 321 323 325 326 326 324 324 323 324 325 327 329 328 328 328 328 327 323 317 319 319 317 316 315 316 317 316 317 318 317 317 316
326 330 327 326 327 329 329 330 327 323 321 319 324 325 325 326 326 326 327 327 327 328 328 328 327 325 326 326 324 318 320 320 319 314 316 318 316 316 317 317 316 318 315
328 326 328 327 329 328 326 327 327 322 322 321 319 320 323 324 326 326 326 326 326 326 326 326 324 323 323 323 325 320 319 320 318 316 314 313 312 315 317 316 315 315 314
326 327 328 328 327 327 322 321 322 321 320 319 318 319 322 323 325 325 325 325 326 325 325 325 323 323 323 324 324 323 319 319 320 316 313 311 312 316 316 315 313 314 312
326 325 327 327 327 328 325 322 318 319 320 321 322 323 323 324 324 325 324 325 326 324 324 323 324 324 324 324 324 323 320 319 320 317 313 311 311 315 314 314 312 312 310
325 325 327 327 328 327 324 324 322 321 324 324 324 324 324 322 322 324 325 324 325 325 324 324 323 324 324 324 323 321 320 320 320 316 313 311 312 312 311 310 309 309 309
326 326 325 326 325 324 324 325 325 324 322 323 324 324 323 324 323 323 325 325 325 324 324 324 324 323 323 323 322 321 320 319 319 315 313 311 310 309 309 308 308 308 308
324 324 324 325 325 324 324 324 322 322 323 324 324 324 324 323 324 325 325 324 324 324 323 324 322 323 322 322 321 321 319 319 317 315 313 311 309 309 308 307 307 307 306
324 324 324 324 323 323 324 323 323 323 323 324 324 323 323 324 324 324 323 323 323 322 322 322 322 323 322 321 320 320 318 318 316 314 312 311 309 307 307 306 306 305 305
322 321 320 322 322 323 324 324 323 324 324 323 324 323 323 322 322 322 320 320 321 321 321 320 320 321 321 321 320 318 317 316 314 313 311 310 309 307 305 305 305 305 303
311 311 312 312 313 313 314 314 315 317 318 318 317 317 316 316 315 317 317 317 317 317 318 318 318 319 318 318 317 317 314 313 312 311 310 309 308 306 305 304 304 303 302
305 305 305 305 305 305 305 306 307 307 308 309 310 310 311 311 312 313 314 314 315 315 316 317 316 316 316 316 316 316 313 312 311 310 308 308 307 305 304 304 303 303 302
302 302 302 303 303 303 303 303 303 304 304 304 305 305 306 307 308 308 308 309 310 310 312 313 314 315 313 314 313 314 312 312 311 309 308 308 307 305 304 303 303 302 302
300 300 300 300 300 300 300 300 300 300 300 300 300 301 301 302 304 305 306 307 307 308 309 309 309 310 313 314 313 314 311 309 309 309 308 309 307 305 304 303 302 302 301
297 297 296 296 296 296 296 296 296 296 296 296 296 296 297 298 299 300 301 303 305 306 307 308 309 308 308 310 312 311 311 309 310 309 309 308 308 305 304 302 302 301 301
296 296 295 295 295 295 295 295 295 295 295 295 295 295 295 294 295 298 300 300 301 304 305 305 305 308 309 308 308 309 310 309 309 309 307 305 305 304 302 301 301 300 300
294 294 294 294 294 294 294 294 293 293 293 293 293 293 293 294 295 296 297 298 299 300 301 303 304 304 305 306 306 306 305 306 306 306 305 304 302 301 301 301 300 300 295
294 293 293 293 293 293 293 293 293 293 293 293 293 292 292 291 292 293 295 296 297 298 300 301 302 303 303 304 304 304 304 302 303 303 303 300 300 300 299 299 299 298 294

GFSMA_850_thetae_120.txt.gz
Theta_e
336 334 334 335 335 336 336 329 328 328 321 319 320 320 323 324 325 325 323 322 324 325 325 326 327 326 323 322 323 325 324 321 322 324 323 323 320 320 320 319 320 318 316
335 334 335 335 335 333 335 335 326 327 319 321 321 321 321 321 321 321 323 324 323 325 326 326 325 325 325 325 325 324 324 322 318 321 322 323 322 320 320 320 320 318 318
334 334 333 334 335 335 335 334 331 326 322 325 322 322 321 319 321 322 324 325 325 325 327 327 327 327 327 326 326 326 325 319 316 319 323 323 323 321 321 321 319 319 318
332 332 332 333 333 334 335 334 333 333 328 321 325 324 321 321 322 324 324 326 326 326 327 327 328 328 328 327 327 327 326 315 314 316 323 324 324 323 322 321 319 319 318
329 329 329 329 331 331 334 334 333 332 331 325 320 324 321 321 320 323 323 324 323 326 328 328 328 328 328 327 328 328 326 314 313 314 323 326 326 324 321 320 320 320 319
329 326 325 325 325 329 332 333 334 333 332 327 323 323 323 322 321 321 325 324 325 325 327 328 328 328 328 328 328 328 324 313 313 314 320 322 323 320 322 320 320 318 318
329 325 325 325 325 326 329 332 333 333 333 330 327 325 324 322 322 322 324 324 325 325 327 328 328 329 329 328 328 328 325 314 313 314 319 322 322 320 320 320 319 317 317
327 325 324 326 327 329 332 332 332 334 333 330 322 320 322 325 326 324 324 324 322 325 326 326 328 329 328 328 328 327 326 318 315 317 323 320 319 320 320 320 319 318 317
323 324 325 325 326 327 330 331 329 332 330 330 329 323 325 325 325 324 325 325 324 324 325 326 328 328 327 327 325 323 323 323 320 322 321 318 317 317 320 318 318 319 318
324 324 324 324 326 328 330 331 330 331 330 329 328 322 323 325 325 324 320 322 324 326 325 325 325 326 326 324 324 323 323 322 323 321 320 321 321 321 320 318 318 318 317
324 325 326 326 329 328 330 329 329 329 330 329 325 324 322 323 325 322 320 321 323 325 319 323 325 325 325 325 324 323 323 324 324 320 319 319 320 320 321 321 318 318 317
325 325 327 327 326 329 329 329 329 328 328 327 324 324 322 322 320 319 321 321 322 322 323 324 324 323 324 324 324 324 324 324 321 318 319 319 317 317 318 317 317 317 316
325 326 326 326 326 328 328 328 328 325 327 324 322 322 321 319 319 320 321 323 324 323 322 323 322 324 323 323 323 323 324 324 323 319 319 320 317 316 315 315 317 315 314
325 325 325 325 326 326 327 327 324 320 322 322 320 321 321 321 323 323 323 323 322 324 322 322 324 324 324 324 324 324 324 323 323 319 319 320 316 315 313 314 316 314 311
324 324 324 326 325 325 327 326 326 325 321 319 320 321 323 323 323 324 323 323 322 323 323 324 325 324 324 324 323 323 323 322 322 320 320 319 315 314 312 312 314 310 309
323 325 326 326 325 325 324 324 324 324 324 321 321 322 323 324 324 324 323 324 324 324 323 323 323 323 323 323 323 323 322 322 321 320 320 319 316 314 312 311 310 309 308
323 323 324 323 324 324 323 324 324 324 322 321 321 321 321 321 322 323 323 323 323 322 321 320 321 320 321 322 321 321 322 322 321 321 319 318 316 314 311 311 310 309 307
323 322 322 322 322 323 323 324 324 323 323 324 324 323 323 323 323 322 321 320 319 318 318 317 318 318 318 319 319 320 320 320 319 319 318 317 316 313 312 310 310 308 306
313 313 315 314 314 315 316 319 319 319 318 318 318 318 317 315 315 315 315 314 314 315 315 314 314 315 315 316 317 318 319 318 317 317 317 316 315 312 311 310 308 306 305
305 305 305 305 305 305 306 306 307 307 307 307 307 307 307 307 307 308 308 308 308 309 309 310 311 311 311 312 313 314 315 315 316 315 313 314 313 312 310 309 308 307 305
302 302 302 302 302 301 301 301 301 301 301 301 301 301 301 301 301 302 303 303 304 305 306 307 308 308 309 310 310 311 312 313 313 313 312 311 310 309 309 308 308 307 305
298 298 298 298 298 297 297 296 296 296 296 296 296 296 296 296 296 296 297 299 300 301 303 304 305 307 308 309 309 309 310 310 309 312 310 310 310 309 308 308 308 307 305
296 296 296 295 295 296 296 295 295 295 295 295 295 295 295 295 295 295 295 295 296 298 300 301 303 303 303 305 307 307 307 308 308 308 310 309 310 309 308 308 306 306 304
295 295 295 295 295 294 294 294 294 294 294 293 293 293 293 293 293 293 293 294 295 296 296 298 299 300 301 303 304 304 305 306 306 306 306 306 309 309 307 306 304 303 302
295 294 294 294 294 293 293 293 293 293 293 293 292 292 292 292 292 292 292 292 292 293 294 296 297 298 299 301 302 303 302 304 304 305 304 303 303 305 303 303 303 301 301
294 293 293 293 292 292 292 292 292 292 292 292 291 291 292 292 292 292 292 292 292 292 293 293 295 296 296 299 300 301 302 302 303 303 303 302 301 301 300 300 300 300 300